<?xml version="1.0"?>
<gpx xmlns="http://www.topografix.com/GPX/1/1" xmlns:xsi="http://www.w3.org/2001/XMLSchema-instance" xmlns:wptx1="http://www.garmin.com/xmlschemas/WaypointExtension/v1" xmlns:gpxtrx="http://www.garmin.com/xmlschemas/GpxExtensions/v3" xmlns:gpxtpx="http://www.garmin.com/xmlschemas/TrackPointExtension/v1" xmlns:gpxx="http://www.garmin.com/xmlschemas/GpxExtensions/v3" xmlns:trp="http://www.garmin.com/xmlschemas/TripExtensions/v1" xmlns:adv="http://www.garmin.com/xmlschemas/AdventuresExtensions/v1" xmlns:prs="http://www.garmin.com/xmlschemas/PressureExtension/v1" creator="Garmin Desktop App" version="1.1" xsi:schemaLocation="http://www.topografix.com/GPX/1/1 http://www.topografix.com/GPX/1/1/gpx.xsd http://www.garmin.com/xmlschemas/WaypointExtension/v1 http://www8.garmin.com/xmlschemas/WaypointExtensionv1.xsd http://www.garmin.com/xmlschemas/TrackPointExtension/v1 http://www.garmin.com/xmlschemas/TrackPointExtensionv1.xsd http://www.garmin.com/xmlschemas/GpxExtensions/v3 http://www8.garmin.com/xmlschemas/GpxExtensionsv3.xsd http://www.garmin.com/xmlschemas/ActivityExtension/v1 http://www8.garmin.com/xmlschemas/ActivityExtensionv1.xsd http://www.garmin.com/xmlschemas/AdventuresExtensions/v1 http://www8.garmin.com/xmlschemas/AdventuresExtensionv1.xsd http://www.garmin.com/xmlschemas/PressureExtension/v1 http://www.garmin.com/xmlschemas/PressureExtensionv1.xsd http://www.garmin.com/xmlschemas/TripExtensions/v1 http://www.garmin.com/xmlschemas/TripExtensionsv1.xsd">

  <metadata>
    <link href="http://www.garmin.com">
      <text>Garmin International</text>
    </link>
    <time>2013-05-30T19:46:19Z</time>
    <bounds maxlat="47.738755010068417" maxlon="11.54665432870388" minlat="47.706871340051293" minlon="11.480802493169904"/>
  </metadata>

  <trk>
    <name>Zwieselberg 2013.05.28 001</name>
    <extensions>
      <gpxx:TrackExtension>
        <gpxx:DisplayColor>Red</gpxx:DisplayColor>
      </gpxx:TrackExtension>
    </extensions>
    <trkseg>
      <trkpt lat="47.722958559170365" lon="11.531694140285254">
        <ele>835.52294921875</ele>
        <time>2013-05-28T17:02:04Z</time>
      </trkpt>
      <trkpt lat="47.722938610240817" lon="11.531509151682258">
        <ele>837.445556640625</ele>
        <time>2013-05-28T17:02:08Z</time>
      </trkpt>
      <trkpt lat="47.722953362390399" lon="11.5314379055053">
        <ele>836.003662109375</ele>
        <time>2013-05-28T17:02:11Z</time>
      </trkpt>
      <trkpt lat="47.722959229722619" lon="11.531411921605468">
        <ele>834.0810546875</ele>
        <time>2013-05-28T17:02:13Z</time>
      </trkpt>
      <trkpt lat="47.722967192530632" lon="11.531387446448207">
        <ele>839.3681640625</ele>
        <time>2013-05-28T17:02:15Z</time>
      </trkpt>
      <trkpt lat="47.72297146730125" lon="11.531378729268909">
        <ele>835.52294921875</ele>
        <time>2013-05-28T17:02:16Z</time>
      </trkpt>
      <trkpt lat="47.723000636324286" lon="11.53128351084888">
        <ele>832.158447265625</ele>
        <time>2013-05-28T17:02:47Z</time>
      </trkpt>
      <trkpt lat="47.723000636324286" lon="11.531283678486943">
        <ele>828.313232421875</ele>
        <time>2013-05-28T17:02:48Z</time>
      </trkpt>
      <trkpt lat="47.723000720143318" lon="11.531283846125007">
        <ele>824.4677734375</ele>
        <time>2013-05-28T17:02:49Z</time>
      </trkpt>
      <trkpt lat="47.723000720143318" lon="11.53128401376307">
        <ele>821.103271484375</ele>
        <time>2013-05-28T17:02:50Z</time>
      </trkpt>
      <trkpt lat="47.723000636324286" lon="11.531284181401134">
        <ele>817.738525390625</ele>
        <time>2013-05-28T17:02:51Z</time>
      </trkpt>
      <trkpt lat="47.723000636324286" lon="11.531284349039197">
        <ele>813.893310546875</ele>
        <time>2013-05-28T17:02:52Z</time>
      </trkpt>
      <trkpt lat="47.723000636324286" lon="11.531284600496292">
        <ele>807.644775390625</ele>
        <time>2013-05-28T17:02:54Z</time>
      </trkpt>
      <trkpt lat="47.723000552505255" lon="11.531284768134356">
        <ele>801.876953125</ele>
        <time>2013-05-28T17:02:56Z</time>
      </trkpt>
      <trkpt lat="47.723000468686223" lon="11.531284935772419">
        <ele>796.109130859375</ele>
        <time>2013-05-28T17:02:58Z</time>
      </trkpt>
      <trkpt lat="47.723000384867191" lon="11.531285019591451">
        <ele>791.30224609375</ele>
        <time>2013-05-28T17:03:00Z</time>
      </trkpt>
      <trkpt lat="47.723000384867191" lon="11.531285103410482">
        <ele>786.495849609375</ele>
        <time>2013-05-28T17:03:02Z</time>
      </trkpt>
      <trkpt lat="47.72300030104816" lon="11.531285103410482">
        <ele>781.689208984375</ele>
        <time>2013-05-28T17:03:04Z</time>
      </trkpt>
      <trkpt lat="47.72300030104816" lon="11.531285187229514">
        <ele>777.84375</ele>
        <time>2013-05-28T17:03:06Z</time>
      </trkpt>
      <trkpt lat="47.72300030104816" lon="11.531285271048546">
        <ele>773.51806640625</ele>
        <time>2013-05-28T17:03:08Z</time>
      </trkpt>
      <trkpt lat="47.72300030104816" lon="11.531285354867578">
        <ele>770.1533203125</ele>
        <time>2013-05-28T17:03:10Z</time>
      </trkpt>
      <trkpt lat="47.72300030104816" lon="11.531285438686609">
        <ele>766.788818359375</ele>
        <time>2013-05-28T17:03:12Z</time>
      </trkpt>
      <trkpt lat="47.72300030104816" lon="11.531285606324673">
        <ele>762.943359375</ele>
        <time>2013-05-28T17:03:14Z</time>
      </trkpt>
      <trkpt lat="47.723000217229128" lon="11.531285690143704">
        <ele>758.617431640625</ele>
        <time>2013-05-28T17:03:17Z</time>
      </trkpt>
      <trkpt lat="47.723000133410096" lon="11.531285690143704">
        <ele>754.772216796875</ele>
        <time>2013-05-28T17:03:20Z</time>
      </trkpt>
      <trkpt lat="47.722999965772033" lon="11.531285690143704">
        <ele>750.927001953125</ele>
        <time>2013-05-28T17:03:23Z</time>
      </trkpt>
      <trkpt lat="47.722999881953001" lon="11.531285606324673">
        <ele>748.043212890625</ele>
        <time>2013-05-28T17:03:26Z</time>
      </trkpt>
      <trkpt lat="47.722999798133969" lon="11.531285606324673">
        <ele>744.67822265625</ele>
        <time>2013-05-28T17:03:29Z</time>
      </trkpt>
      <trkpt lat="47.722999714314938" lon="11.531285606324673">
        <ele>741.313720703125</ele>
        <time>2013-05-28T17:03:33Z</time>
      </trkpt>
      <trkpt lat="47.722999630495906" lon="11.531285606324673">
        <ele>738.429931640625</ele>
        <time>2013-05-28T17:03:37Z</time>
      </trkpt>
      <trkpt lat="47.722999546676874" lon="11.531285522505641">
        <ele>735.5458984375</ele>
        <time>2013-05-28T17:03:41Z</time>
      </trkpt>
      <trkpt lat="47.722999546676874" lon="11.531285522505641">
        <ele>735.0654296875</ele>
        <time>2013-05-28T17:03:42Z</time>
      </trkpt>
      <trkpt lat="47.722999462857842" lon="11.531285354867578">
        <ele>732.662109375</ele>
        <time>2013-05-28T17:03:47Z</time>
      </trkpt>
      <trkpt lat="47.722999295219779" lon="11.531285187229514">
        <ele>728.816650390625</ele>
        <time>2013-05-28T17:03:55Z</time>
      </trkpt>
      <trkpt lat="47.722999211400747" lon="11.531285019591451">
        <ele>725.9326171875</ele>
        <time>2013-05-28T17:04:03Z</time>
      </trkpt>
      <trkpt lat="47.722999127581716" lon="11.531284181401134">
        <ele>723.048828125</ele>
        <time>2013-05-28T17:04:16Z</time>
      </trkpt>
      <trkpt lat="47.722998792305589" lon="11.531283427029848">
        <ele>719.684326171875</ele>
        <time>2013-05-28T17:04:36Z</time>
      </trkpt>
      <trkpt lat="47.722997032105923" lon="11.531283343210816">
        <ele>719.684326171875</ele>
        <time>2013-05-28T17:05:33Z</time>
      </trkpt>
      <trkpt lat="47.722985129803419" lon="11.531273787841201">
        <ele>718.2421875</ele>
        <time>2013-05-28T17:05:43Z</time>
      </trkpt>
      <trkpt lat="47.722971299663186" lon="11.53126641176641">
        <ele>719.684326171875</ele>
        <time>2013-05-28T17:05:56Z</time>
      </trkpt>
      <trkpt lat="47.722960235551" lon="11.531277727335691">
        <ele>719.684326171875</ele>
        <time>2013-05-28T17:06:13Z</time>
      </trkpt>
      <trkpt lat="47.722965180873871" lon="11.531255766749382">
        <ele>719.20361328125</ele>
        <time>2013-05-28T17:06:19Z</time>
      </trkpt>
      <trkpt lat="47.722950512543321" lon="11.531111346557736">
        <ele>720.164794921875</ele>
        <time>2013-05-28T17:06:26Z</time>
      </trkpt>
      <trkpt lat="47.72288991138339" lon="11.53088042512536">
        <ele>721.126220703125</ele>
        <time>2013-05-28T17:06:35Z</time>
      </trkpt>
      <trkpt lat="47.722881780937314" lon="11.530854273587465">
        <ele>721.126220703125</ele>
        <time>2013-05-28T17:06:36Z</time>
      </trkpt>
      <trkpt lat="47.722871052101254" lon="11.530806161463261">
        <ele>721.126220703125</ele>
        <time>2013-05-28T17:06:38Z</time>
      </trkpt>
      <trkpt lat="47.72273987531662" lon="11.530477926135063">
        <ele>723.048828125</ele>
        <time>2013-05-28T17:06:47Z</time>
      </trkpt>
      <trkpt lat="47.722600819543004" lon="11.530152037739754">
        <ele>724.49072265625</ele>
        <time>2013-05-28T17:06:56Z</time>
      </trkpt>
      <trkpt lat="47.72241348400712" lon="11.52975020930171">
        <ele>726.413330078125</ele>
        <time>2013-05-28T17:07:07Z</time>
      </trkpt>
      <trkpt lat="47.722250120714307" lon="11.529461536556482">
        <ele>728.3359375</ele>
        <time>2013-05-28T17:07:16Z</time>
      </trkpt>
      <trkpt lat="47.722119195386767" lon="11.5293363109231">
        <ele>729.297119140625</ele>
        <time>2013-05-28T17:07:24Z</time>
      </trkpt>
      <trkpt lat="47.721937140449882" lon="11.529102539643645">
        <ele>729.297119140625</ele>
        <time>2013-05-28T17:07:33Z</time>
      </trkpt>
      <trkpt lat="47.721767742186785" lon="11.528760474175215">
        <ele>731.700439453125</ele>
        <time>2013-05-28T17:07:44Z</time>
      </trkpt>
      <trkpt lat="47.721585687249899" lon="11.528468951582909">
        <ele>733.623291015625</ele>
        <time>2013-05-28T17:07:55Z</time>
      </trkpt>
      <trkpt lat="47.721349569037557" lon="11.528169885277748">
        <ele>735.0654296875</ele>
        <time>2013-05-28T17:08:08Z</time>
      </trkpt>
      <trkpt lat="47.721223002299666" lon="11.52801314368844">
        <ele>736.50732421875</ele>
        <time>2013-05-28T17:08:16Z</time>
      </trkpt>
      <trkpt lat="47.721075229346752" lon="11.527824467048049">
        <ele>737.468505859375</ele>
        <time>2013-05-28T17:08:25Z</time>
      </trkpt>
      <trkpt lat="47.720905328169465" lon="11.527605280280113">
        <ele>738.429931640625</ele>
        <time>2013-05-28T17:08:35Z</time>
      </trkpt>
      <trkpt lat="47.720803823322058" lon="11.527498662471771">
        <ele>740.3525390625</ele>
        <time>2013-05-28T17:08:42Z</time>
      </trkpt>
      <trkpt lat="47.720802230760455" lon="11.527512157335877">
        <ele>739.871826171875</ele>
        <time>2013-05-28T17:08:50Z</time>
      </trkpt>
      <trkpt lat="47.720793932676315" lon="11.52748784981668">
        <ele>740.8330078125</ele>
        <time>2013-05-28T17:09:02Z</time>
      </trkpt>
      <trkpt lat="47.720796195790172" lon="11.527480725198984">
        <ele>740.8330078125</ele>
        <time>2013-05-28T17:09:10Z</time>
      </trkpt>
      <trkpt lat="47.720765518024564" lon="11.527469493448734">
        <ele>741.313720703125</ele>
        <time>2013-05-28T17:09:20Z</time>
      </trkpt>
      <trkpt lat="47.720772391185164" lon="11.527471002191305">
        <ele>741.313720703125</ele>
        <time>2013-05-28T17:09:27Z</time>
      </trkpt>
      <trkpt lat="47.7207135502249" lon="11.527354829013348">
        <ele>742.755859375</ele>
        <time>2013-05-28T17:09:36Z</time>
      </trkpt>
      <trkpt lat="47.72061632014811" lon="11.527277296409011">
        <ele>744.19775390625</ele>
        <time>2013-05-28T17:09:44Z</time>
      </trkpt>
      <trkpt lat="47.7205547131598" lon="11.527208480983973">
        <ele>746.60107421875</ele>
        <time>2013-05-28T17:09:51Z</time>
      </trkpt>
      <trkpt lat="47.720437031239271" lon="11.527083590626717">
        <ele>749.485107421875</ele>
        <time>2013-05-28T17:10:02Z</time>
      </trkpt>
      <trkpt lat="47.720258915796876" lon="11.526917042210698">
        <ele>752.368896484375</ele>
        <time>2013-05-28T17:10:16Z</time>
      </trkpt>
      <trkpt lat="47.720167133957148" lon="11.526751080527902">
        <ele>754.772216796875</ele>
        <time>2013-05-28T17:10:27Z</time>
      </trkpt>
      <trkpt lat="47.720030173659325" lon="11.526510519906878">
        <ele>757.65625</ele>
        <time>2013-05-28T17:10:38Z</time>
      </trkpt>
      <trkpt lat="47.719943504780531" lon="11.526265684515238">
        <ele>759.578857421875</ele>
        <time>2013-05-28T17:10:48Z</time>
      </trkpt>
      <trkpt lat="47.719890028238297" lon="11.526084300130606">
        <ele>760.5400390625</ele>
        <time>2013-05-28T17:10:55Z</time>
      </trkpt>
      <trkpt lat="47.719873348250985" lon="11.525970306247473">
        <ele>762.462646484375</ele>
        <time>2013-05-28T17:11:00Z</time>
      </trkpt>
      <trkpt lat="47.719813585281372" lon="11.525792609900236">
        <ele>763.424072265625</ele>
        <time>2013-05-28T17:11:07Z</time>
      </trkpt>
      <trkpt lat="47.719767820090055" lon="11.525739803910255">
        <ele>763.424072265625</ele>
        <time>2013-05-28T17:11:13Z</time>
      </trkpt>
      <trkpt lat="47.71978709846735" lon="11.525759333744645">
        <ele>764.385498046875</ele>
        <time>2013-05-28T17:11:42Z</time>
      </trkpt>
      <trkpt lat="47.719796150922775" lon="11.525701247155666">
        <ele>764.385498046875</ele>
        <time>2013-05-28T17:11:46Z</time>
      </trkpt>
      <trkpt lat="47.719773268327117" lon="11.525565795600414">
        <ele>764.8662109375</ele>
        <time>2013-05-28T17:11:51Z</time>
      </trkpt>
      <trkpt lat="47.719753570854664" lon="11.525422297418118">
        <ele>765.82763671875</ele>
        <time>2013-05-28T17:11:57Z</time>
      </trkpt>
      <trkpt lat="47.719746446236968" lon="11.525226747617126">
        <ele>765.82763671875</ele>
        <time>2013-05-28T17:12:06Z</time>
      </trkpt>
      <trkpt lat="47.719759354367852" lon="11.525069167837501">
        <ele>766.788818359375</ele>
        <time>2013-05-28T17:12:11Z</time>
      </trkpt>
      <trkpt lat="47.719750385731459" lon="11.524982079863548">
        <ele>766.788818359375</ele>
        <time>2013-05-28T17:12:14Z</time>
      </trkpt>
      <trkpt lat="47.719691125676036" lon="11.524825505912304">
        <ele>767.26953125</ele>
        <time>2013-05-28T17:12:18Z</time>
      </trkpt>
      <trkpt lat="47.71967469714582" lon="11.52464160695672">
        <ele>768.230712890625</ele>
        <time>2013-05-28T17:12:22Z</time>
      </trkpt>
      <trkpt lat="47.719682073220611" lon="11.524525685235858">
        <ele>768.71142578125</ele>
        <time>2013-05-28T17:12:25Z</time>
      </trkpt>
      <trkpt lat="47.719674529507756" lon="11.52446374297142">
        <ele>769.6728515625</ele>
        <time>2013-05-28T17:12:27Z</time>
      </trkpt>
      <trkpt lat="47.719676876440644" lon="11.524295601993799">
        <ele>771.11474609375</ele>
        <time>2013-05-28T17:12:33Z</time>
      </trkpt>
      <trkpt lat="47.71966346539557" lon="11.52419401332736">
        <ele>772.075927734375</ele>
        <time>2013-05-28T17:12:37Z</time>
      </trkpt>
      <trkpt lat="47.719649132341146" lon="11.524081444367766">
        <ele>773.037353515625</ele>
        <time>2013-05-28T17:12:42Z</time>
      </trkpt>
      <trkpt lat="47.719594733789563" lon="11.523987734690309">
        <ele>773.99853515625</ele>
        <time>2013-05-28T17:12:47Z</time>
      </trkpt>
      <trkpt lat="47.719484847038984" lon="11.523847756907344">
        <ele>775.921142578125</ele>
        <time>2013-05-28T17:12:54Z</time>
      </trkpt>
      <trkpt lat="47.719399183988571" lon="11.523700319230556">
        <ele>778.324462890625</ele>
        <time>2013-05-28T17:13:01Z</time>
      </trkpt>
      <trkpt lat="47.719317125156522" lon="11.523567214608192">
        <ele>779.766357421875</ele>
        <time>2013-05-28T17:13:08Z</time>
      </trkpt>
      <trkpt lat="47.719194833189249" lon="11.523411143571138">
        <ele>781.208740234375</ele>
        <time>2013-05-28T17:13:16Z</time>
      </trkpt>
      <trkpt lat="47.71907078102231" lon="11.52320746332407">
        <ele>783.131103515625</ele>
        <time>2013-05-28T17:13:26Z</time>
      </trkpt>
      <trkpt lat="47.719044461846352" lon="11.523166475817561">
        <ele>783.131103515625</ele>
        <time>2013-05-28T17:13:28Z</time>
      </trkpt>
      <trkpt lat="47.718991069123149" lon="11.523065306246281">
        <ele>784.5732421875</ele>
        <time>2013-05-28T17:13:34Z</time>
      </trkpt>
      <trkpt lat="47.718943627551198" lon="11.522979559376836">
        <ele>785.534423828125</ele>
        <time>2013-05-28T17:13:39Z</time>
      </trkpt>
      <trkpt lat="47.718874476850033" lon="11.522902278229594">
        <ele>786.01513671875</ele>
        <time>2013-05-28T17:13:44Z</time>
      </trkpt>
      <trkpt lat="47.718717148527503" lon="11.522793229669333">
        <ele>786.976318359375</ele>
        <time>2013-05-28T17:13:52Z</time>
      </trkpt>
      <trkpt lat="47.718690661713481" lon="11.52278233319521">
        <ele>787.45703125</ele>
        <time>2013-05-28T17:13:53Z</time>
      </trkpt>
      <trkpt lat="47.718521347269416" lon="11.522732796147466">
        <ele>788.41845703125</ele>
        <time>2013-05-28T17:14:00Z</time>
      </trkpt>
      <trkpt lat="47.718498129397631" lon="11.522730533033609">
        <ele>788.899169921875</ele>
        <time>2013-05-28T17:14:01Z</time>
      </trkpt>
      <trkpt lat="47.718355217948556" lon="11.522735226899385">
        <ele>788.899169921875</ele>
        <time>2013-05-28T17:14:08Z</time>
      </trkpt>
      <trkpt lat="47.718028910458088" lon="11.522721564397216">
        <ele>791.30224609375</ele>
        <time>2013-05-28T17:14:23Z</time>
      </trkpt>
      <trkpt lat="47.717917179688811" lon="11.522703627124429">
        <ele>792.744384765625</ele>
        <time>2013-05-28T17:14:30Z</time>
      </trkpt>
      <trkpt lat="47.71786822937429" lon="11.522692060098052">
        <ele>793.224853515625</ele>
        <time>2013-05-28T17:14:33Z</time>
      </trkpt>
      <trkpt lat="47.717790277674794" lon="11.522669345140457">
        <ele>794.186279296875</ele>
        <time>2013-05-28T17:14:37Z</time>
      </trkpt>
      <trkpt lat="47.717581316828728" lon="11.522622322663665">
        <ele>795.628173828125</ele>
        <time>2013-05-28T17:14:46Z</time>
      </trkpt>
      <trkpt lat="47.717409068718553" lon="11.522515118122101">
        <ele>797.0703125</ele>
        <time>2013-05-28T17:14:55Z</time>
      </trkpt>
      <trkpt lat="47.717299181967974" lon="11.522384444251657">
        <ele>798.03173828125</ele>
        <time>2013-05-28T17:15:02Z</time>
      </trkpt>
      <trkpt lat="47.717247465625405" lon="11.5222785808146">
        <ele>798.51220703125</ele>
        <time>2013-05-28T17:15:06Z</time>
      </trkpt>
      <trkpt lat="47.717198766767979" lon="11.522145140916109">
        <ele>799.954345703125</ele>
        <time>2013-05-28T17:15:10Z</time>
      </trkpt>
      <trkpt lat="47.717063566669822" lon="11.52188622392714">
        <ele>800.91552734375</ele>
        <time>2013-05-28T17:15:20Z</time>
      </trkpt>
      <trkpt lat="47.716985531151295" lon="11.521746497601271">
        <ele>801.876953125</ele>
        <time>2013-05-28T17:15:25Z</time>
      </trkpt>
      <trkpt lat="47.716923421248794" lon="11.521586738526821">
        <ele>802.838134765625</ele>
        <time>2013-05-28T17:15:30Z</time>
      </trkpt>
      <trkpt lat="47.716893078759313" lon="11.521457992494106">
        <ele>802.838134765625</ele>
        <time>2013-05-28T17:15:34Z</time>
      </trkpt>
      <trkpt lat="47.716879080981016" lon="11.521335113793612">
        <ele>802.838134765625</ele>
        <time>2013-05-28T17:15:38Z</time>
      </trkpt>
      <trkpt lat="47.716824347153306" lon="11.521114585921168">
        <ele>803.31884765625</ele>
        <time>2013-05-28T17:15:45Z</time>
      </trkpt>
      <trkpt lat="47.716690236702561" lon="11.520826667547226">
        <ele>803.799560546875</ele>
        <time>2013-05-28T17:15:52Z</time>
      </trkpt>
      <trkpt lat="47.716587809845805" lon="11.520662549883127">
        <ele>803.799560546875</ele>
        <time>2013-05-28T17:15:58Z</time>
      </trkpt>
      <trkpt lat="47.716517150402069" lon="11.520567247644067">
        <ele>804.7607421875</ele>
        <time>2013-05-28T17:16:05Z</time>
      </trkpt>
      <trkpt lat="47.716490244492888" lon="11.520514441654086">
        <ele>805.241455078125</ele>
        <time>2013-05-28T17:16:11Z</time>
      </trkpt>
      <trkpt lat="47.716479599475861" lon="11.520516704767942">
        <ele>804.2802734375</ele>
        <time>2013-05-28T17:16:19Z</time>
      </trkpt>
      <trkpt lat="47.71651622839272" lon="11.520582670345902">
        <ele>803.799560546875</ele>
        <time>2013-05-28T17:16:24Z</time>
      </trkpt>
      <trkpt lat="47.716451939195395" lon="11.520509496331215">
        <ele>805.72216796875</ele>
        <time>2013-05-28T17:16:33Z</time>
      </trkpt>
      <trkpt lat="47.71631732583046" lon="11.520358119159937">
        <ele>807.1640625</ele>
        <time>2013-05-28T17:16:42Z</time>
      </trkpt>
      <trkpt lat="47.716285977512598" lon="11.520318808034062">
        <ele>808.12548828125</ele>
        <time>2013-05-28T17:16:45Z</time>
      </trkpt>
      <trkpt lat="47.716199308633804" lon="11.520161647349596">
        <ele>809.086669921875</ele>
        <time>2013-05-28T17:16:53Z</time>
      </trkpt>
      <trkpt lat="47.716056648641825" lon="11.519986884668469">
        <ele>811.489990234375</ele>
        <time>2013-05-28T17:17:03Z</time>
      </trkpt>
      <trkpt lat="47.715983726084232" lon="11.519930642098188">
        <ele>812.451416015625</ele>
        <time>2013-05-28T17:17:07Z</time>
      </trkpt>
      <trkpt lat="47.715824721381068" lon="11.519815558567643">
        <ele>813.893310546875</ele>
        <time>2013-05-28T17:17:15Z</time>
      </trkpt>
      <trkpt lat="47.715682396665215" lon="11.519692176952958">
        <ele>815.816162109375</ele>
        <time>2013-05-28T17:17:23Z</time>
      </trkpt>
      <trkpt lat="47.7156244777143" lon="11.519627468660474">
        <ele>815.816162109375</ele>
        <time>2013-05-28T17:17:27Z</time>
      </trkpt>
      <trkpt lat="47.715568989515305" lon="11.519515486434102">
        <ele>815.816162109375</ele>
        <time>2013-05-28T17:17:32Z</time>
      </trkpt>
      <trkpt lat="47.715549962595105" lon="11.519467625766993">
        <ele>815.816162109375</ele>
        <time>2013-05-28T17:17:34Z</time>
      </trkpt>
      <trkpt lat="47.71548718214035" lon="11.519199656322598">
        <ele>816.296630859375</ele>
        <time>2013-05-28T17:17:42Z</time>
      </trkpt>
      <trkpt lat="47.715363800525665" lon="11.518908133730292">
        <ele>816.77734375</ele>
        <time>2013-05-28T17:17:49Z</time>
      </trkpt>
      <trkpt lat="47.715247208252549" lon="11.518751811236143">
        <ele>817.258056640625</ele>
        <time>2013-05-28T17:17:55Z</time>
      </trkpt>
      <trkpt lat="47.71523647941649" lon="11.518727671355009">
        <ele>817.738525390625</ele>
        <time>2013-05-28T17:17:56Z</time>
      </trkpt>
      <trkpt lat="47.715247292071581" lon="11.518621807917953">
        <ele>818.699951171875</ele>
        <time>2013-05-28T17:18:00Z</time>
      </trkpt>
      <trkpt lat="47.715228935703635" lon="11.518459031358361">
        <ele>820.141845703125</ele>
        <time>2013-05-28T17:18:06Z</time>
      </trkpt>
      <trkpt lat="47.715195324271917" lon="11.518401112407446">
        <ele>820.141845703125</ele>
        <time>2013-05-28T17:18:08Z</time>
      </trkpt>
      <trkpt lat="47.715161880478263" lon="11.518273958936334">
        <ele>821.583740234375</ele>
        <time>2013-05-28T17:18:13Z</time>
      </trkpt>
      <trkpt lat="47.715132711455226" lon="11.51817262172699">
        <ele>822.064453125</ele>
        <time>2013-05-28T17:18:17Z</time>
      </trkpt>
      <trkpt lat="47.715121060609818" lon="11.518069859594107">
        <ele>823.02587890625</ele>
        <time>2013-05-28T17:18:21Z</time>
      </trkpt>
      <trkpt lat="47.715109493583441" lon="11.518045552074909">
        <ele>823.02587890625</ele>
        <time>2013-05-28T17:18:22Z</time>
      </trkpt>
      <trkpt lat="47.715063476935029" lon="11.517961649224162">
        <ele>823.987060546875</ele>
        <time>2013-05-28T17:18:26Z</time>
      </trkpt>
      <trkpt lat="47.714927773922682" lon="11.517812451347709">
        <ele>825.428955078125</ele>
        <time>2013-05-28T17:18:34Z</time>
      </trkpt>
      <trkpt lat="47.71491595543921" lon="11.517798788845539">
        <ele>826.390380859375</ele>
        <time>2013-05-28T17:18:35Z</time>
      </trkpt>
      <trkpt lat="47.714789137244225" lon="11.517603825777769">
        <ele>828.313232421875</ele>
        <time>2013-05-28T17:18:44Z</time>
      </trkpt>
      <trkpt lat="47.714753514155746" lon="11.517547583207488">
        <ele>828.7939453125</ele>
        <time>2013-05-28T17:18:47Z</time>
      </trkpt>
      <trkpt lat="47.714683692902327" lon="11.517426297068596">
        <ele>829.755126953125</ele>
        <time>2013-05-28T17:18:54Z</time>
      </trkpt>
      <trkpt lat="47.714615380391479" lon="11.517321523278952">
        <ele>831.197265625</ele>
        <time>2013-05-28T17:18:59Z</time>
      </trkpt>
      <trkpt lat="47.714550001546741" lon="11.517089763656259">
        <ele>832.63916015625</ele>
        <time>2013-05-28T17:19:09Z</time>
      </trkpt>
      <trkpt lat="47.714531728997827" lon="11.517069898545742">
        <ele>832.63916015625</ele>
        <time>2013-05-28T17:19:10Z</time>
      </trkpt>
      <trkpt lat="47.714409353211522" lon="11.516892705112696">
        <ele>834.561767578125</ele>
        <time>2013-05-28T17:19:17Z</time>
      </trkpt>
      <trkpt lat="47.714350847527385" lon="11.516740908846259">
        <ele>835.52294921875</ele>
        <time>2013-05-28T17:19:24Z</time>
      </trkpt>
      <trkpt lat="47.714221347123384" lon="11.516519375145435">
        <ele>837.445556640625</ele>
        <time>2013-05-28T17:19:34Z</time>
      </trkpt>
      <trkpt lat="47.714188573881984" lon="11.516445195302367">
        <ele>837.445556640625</ele>
        <time>2013-05-28T17:19:37Z</time>
      </trkpt>
      <trkpt lat="47.714141048491001" lon="11.516346037387848">
        <ele>837.445556640625</ele>
        <time>2013-05-28T17:19:41Z</time>
      </trkpt>
      <trkpt lat="47.714065695181489" lon="11.51615216396749">
        <ele>839.3681640625</ele>
        <time>2013-05-28T17:19:49Z</time>
      </trkpt>
      <trkpt lat="47.713966788724065" lon="11.516019981354475">
        <ele>839.848876953125</ele>
        <time>2013-05-28T17:19:54Z</time>
      </trkpt>
      <trkpt lat="47.713907863944769" lon="11.515906406566501">
        <ele>840.81005859375</ele>
        <time>2013-05-28T17:19:59Z</time>
      </trkpt>
      <trkpt lat="47.713898560032248" lon="11.515874974429607">
        <ele>841.290771484375</ele>
        <time>2013-05-28T17:20:00Z</time>
      </trkpt>
      <trkpt lat="47.713813064619899" lon="11.515694009140134">
        <ele>842.252197265625</ele>
        <time>2013-05-28T17:20:07Z</time>
      </trkpt>
      <trkpt lat="47.713726982474327" lon="11.51553793810308">
        <ele>842.73291015625</ele>
        <time>2013-05-28T17:20:13Z</time>
      </trkpt>
      <trkpt lat="47.713619275018573" lon="11.515347249805927">
        <ele>842.73291015625</ele>
        <time>2013-05-28T17:20:19Z</time>
      </trkpt>
      <trkpt lat="47.713523721322417" lon="11.51511188596487">
        <ele>841.771484375</ele>
        <time>2013-05-28T17:20:25Z</time>
      </trkpt>
      <trkpt lat="47.713540736585855" lon="11.514913067221642">
        <ele>841.290771484375</ele>
        <time>2013-05-28T17:20:31Z</time>
      </trkpt>
      <trkpt lat="47.713517602533102" lon="11.514876438304782">
        <ele>841.290771484375</ele>
        <time>2013-05-28T17:20:32Z</time>
      </trkpt>
      <trkpt lat="47.713355245068669" lon="11.514651300385594">
        <ele>841.290771484375</ele>
        <time>2013-05-28T17:20:38Z</time>
      </trkpt>
      <trkpt lat="47.713319119066" lon="11.514532612636685">
        <ele>840.81005859375</ele>
        <time>2013-05-28T17:20:42Z</time>
      </trkpt>
      <trkpt lat="47.713324734941125" lon="11.514448709785938">
        <ele>840.81005859375</ele>
        <time>2013-05-28T17:20:46Z</time>
      </trkpt>
      <trkpt lat="47.713311156257987" lon="11.51438282802701">
        <ele>843.21337890625</ele>
        <time>2013-05-28T17:20:52Z</time>
      </trkpt>
      <trkpt lat="47.71330839022994" lon="11.514377798885107">
        <ele>842.252197265625</ele>
        <time>2013-05-28T17:20:53Z</time>
      </trkpt>
      <trkpt lat="47.713239658623934" lon="11.51434276252985">
        <ele>844.175048828125</ele>
        <time>2013-05-28T17:21:01Z</time>
      </trkpt>
      <trkpt lat="47.713102865964174" lon="11.514297081157565">
        <ele>845.13623046875</ele>
        <time>2013-05-28T17:21:07Z</time>
      </trkpt>
      <trkpt lat="47.712950399145484" lon="11.514171184971929">
        <ele>846.09765625</ele>
        <time>2013-05-28T17:21:14Z</time>
      </trkpt>
      <trkpt lat="47.712868005037308" lon="11.513977143913507">
        <ele>846.578369140625</ele>
        <time>2013-05-28T17:21:21Z</time>
      </trkpt>
      <trkpt lat="47.712508421391249" lon="11.513744881376624">
        <ele>846.578369140625</ele>
        <time>2013-05-28T17:21:27Z</time>
      </trkpt>
      <trkpt lat="47.712292838841677" lon="11.513585960492492">
        <ele>846.578369140625</ele>
        <time>2013-05-28T17:21:33Z</time>
      </trkpt>
      <trkpt lat="47.712169121950865" lon="11.513454029336572">
        <ele>848.500732421875</ele>
        <time>2013-05-28T17:21:41Z</time>
      </trkpt>
      <trkpt lat="47.71202034316957" lon="11.513268537819386">
        <ele>850.423583984375</ele>
        <time>2013-05-28T17:21:49Z</time>
      </trkpt>
      <trkpt lat="47.711970135569572" lon="11.513214223086834">
        <ele>850.904052734375</ele>
        <time>2013-05-28T17:21:52Z</time>
      </trkpt>
      <trkpt lat="47.711886148899794" lon="11.513087404891849">
        <ele>852.345947265625</ele>
        <time>2013-05-28T17:21:57Z</time>
      </trkpt>
      <trkpt lat="47.711862260475755" lon="11.513020433485508">
        <ele>853.307373046875</ele>
        <time>2013-05-28T17:22:01Z</time>
      </trkpt>
      <trkpt lat="47.711697639897466" lon="11.51278305798769">
        <ele>855.710693359375</ele>
        <time>2013-05-28T17:22:10Z</time>
      </trkpt>
      <trkpt lat="47.711588507518172" lon="11.512687085196376">
        <ele>855.710693359375</ele>
        <time>2013-05-28T17:22:13Z</time>
      </trkpt>
      <trkpt lat="47.711552632972598" lon="11.512617766857147">
        <ele>857.152587890625</ele>
        <time>2013-05-28T17:22:16Z</time>
      </trkpt>
      <trkpt lat="47.711566211655736" lon="11.512537971138954">
        <ele>858.594482421875</ele>
        <time>2013-05-28T17:22:20Z</time>
      </trkpt>
      <trkpt lat="47.711586244404316" lon="11.512415930628777">
        <ele>860.517333984375</ele>
        <time>2013-05-28T17:22:26Z</time>
      </trkpt>
      <trkpt lat="47.711598314344883" lon="11.512315599247813">
        <ele>861.478759765625</ele>
        <time>2013-05-28T17:22:31Z</time>
      </trkpt>
      <trkpt lat="47.711582472547889" lon="11.512108314782381">
        <ele>862.920654296875</ele>
        <time>2013-05-28T17:22:40Z</time>
      </trkpt>
      <trkpt lat="47.711386755108833" lon="11.511854846030474">
        <ele>864.84326171875</ele>
        <time>2013-05-28T17:22:49Z</time>
      </trkpt>
      <trkpt lat="47.711278880015016" lon="11.511642783880234">
        <ele>864.84326171875</ele>
        <time>2013-05-28T17:22:56Z</time>
      </trkpt>
      <trkpt lat="47.711283573880792" lon="11.511576315388083">
        <ele>865.323974609375</ele>
        <time>2013-05-28T17:22:59Z</time>
      </trkpt>
      <trkpt lat="47.711301343515515" lon="11.51146374642849">
        <ele>866.28515625</ele>
        <time>2013-05-28T17:23:04Z</time>
      </trkpt>
      <trkpt lat="47.711268989369273" lon="11.511226370930672">
        <ele>868.207763671875</ele>
        <time>2013-05-28T17:23:14Z</time>
      </trkpt>
      <trkpt lat="47.711233031004667" lon="11.511155292391777">
        <ele>869.64990234375</ele>
        <time>2013-05-28T17:23:18Z</time>
      </trkpt>
      <trkpt lat="47.711185170337558" lon="11.51110315695405">
        <ele>869.64990234375</ele>
        <time>2013-05-28T17:23:21Z</time>
      </trkpt>
      <trkpt lat="47.711018286645412" lon="11.510941721498966">
        <ele>872.53369140625</ele>
        <time>2013-05-28T17:23:33Z</time>
      </trkpt>
      <trkpt lat="47.710896246135235" lon="11.510825464501977">
        <ele>875.898193359375</ele>
        <time>2013-05-28T17:23:43Z</time>
      </trkpt>
      <trkpt lat="47.710779402405024" lon="11.51068733073771">
        <ele>877.821044921875</ele>
        <time>2013-05-28T17:23:53Z</time>
      </trkpt>
      <trkpt lat="47.71070203743875" lon="11.510574845597148">
        <ele>879.74365234375</ele>
        <time>2013-05-28T17:24:00Z</time>
      </trkpt>
      <trkpt lat="47.710628947243094" lon="11.51044107042253">
        <ele>881.185791015625</ele>
        <time>2013-05-28T17:24:08Z</time>
      </trkpt>
      <trkpt lat="47.710616625845432" lon="11.51040393859148">
        <ele>882.14697265625</ele>
        <time>2013-05-28T17:24:10Z</time>
      </trkpt>
      <trkpt lat="47.710593407973647" lon="11.510293884202838">
        <ele>883.108154296875</ele>
        <time>2013-05-28T17:24:16Z</time>
      </trkpt>
      <trkpt lat="47.710537584498525" lon="11.510160695761442">
        <ele>884.069580078125</ele>
        <time>2013-05-28T17:24:23Z</time>
      </trkpt>
      <trkpt lat="47.710512354969978" lon="11.510029770433903">
        <ele>885.031005859375</ele>
        <time>2013-05-28T17:24:28Z</time>
      </trkpt>
      <trkpt lat="47.710505900904536" lon="11.50994410738349">
        <ele>885.511474609375</ele>
        <time>2013-05-28T17:24:32Z</time>
      </trkpt>
      <trkpt lat="47.710473295301199" lon="11.509852409362793">
        <ele>885.9921875</ele>
        <time>2013-05-28T17:24:36Z</time>
      </trkpt>
      <trkpt lat="47.710429457947612" lon="11.509776804596186">
        <ele>886.953369140625</ele>
        <time>2013-05-28T17:24:40Z</time>
      </trkpt>
      <trkpt lat="47.71033407188952" lon="11.509688207879663">
        <ele>887.914794921875</ele>
        <time>2013-05-28T17:24:47Z</time>
      </trkpt>
      <trkpt lat="47.710252515971661" lon="11.509611178189516">
        <ele>889.83740234375</ele>
        <time>2013-05-28T17:24:56Z</time>
      </trkpt>
      <trkpt lat="47.710129721090198" lon="11.50953515432775">
        <ele>892.7216796875</ele>
        <time>2013-05-28T17:25:04Z</time>
      </trkpt>
      <trkpt lat="47.71002184599638" lon="11.509472876787186">
        <ele>893.682861328125</ele>
        <time>2013-05-28T17:25:10Z</time>
      </trkpt>
      <trkpt lat="47.709981109946966" lon="11.509435996413231">
        <ele>894.64404296875</ele>
        <time>2013-05-28T17:25:13Z</time>
      </trkpt>
      <trkpt lat="47.709914976730943" lon="11.509372377768159">
        <ele>896.086181640625</ele>
        <time>2013-05-28T17:25:18Z</time>
      </trkpt>
      <trkpt lat="47.709868038073182" lon="11.509265340864658">
        <ele>896.56689453125</ele>
        <time>2013-05-28T17:25:25Z</time>
      </trkpt>
      <trkpt lat="47.709772568196058" lon="11.509165428578854">
        <ele>896.56689453125</ele>
        <time>2013-05-28T17:25:31Z</time>
      </trkpt>
      <trkpt lat="47.70971791818738" lon="11.509092422202229">
        <ele>897.528076171875</ele>
        <time>2013-05-28T17:25:35Z</time>
      </trkpt>
      <trkpt lat="47.709673997014761" lon="11.508990749716759">
        <ele>898.969970703125</ele>
        <time>2013-05-28T17:25:40Z</time>
      </trkpt>
      <trkpt lat="47.709651533514261" lon="11.508906595408916">
        <ele>899.931396484375</ele>
        <time>2013-05-28T17:25:44Z</time>
      </trkpt>
      <trkpt lat="47.709642313420773" lon="11.50882126763463">
        <ele>900.892578125</ele>
        <time>2013-05-28T17:25:48Z</time>
      </trkpt>
      <trkpt lat="47.709607277065516" lon="11.508683385327458">
        <ele>902.33447265625</ele>
        <time>2013-05-28T17:25:54Z</time>
      </trkpt>
      <trkpt lat="47.709601409733295" lon="11.508663184940815">
        <ele>902.815185546875</ele>
        <time>2013-05-28T17:25:55Z</time>
      </trkpt>
      <trkpt lat="47.709603337571025" lon="11.508591519668698">
        <ele>903.776611328125</ele>
        <time>2013-05-28T17:25:59Z</time>
      </trkpt>
      <trkpt lat="47.709604762494564" lon="11.508515328168869">
        <ele>904.73779296875</ele>
        <time>2013-05-28T17:26:03Z</time>
      </trkpt>
      <trkpt lat="47.709608534350991" lon="11.508364202454686">
        <ele>906.1796875</ele>
        <time>2013-05-28T17:26:10Z</time>
      </trkpt>
      <trkpt lat="47.7095942851156" lon="11.508286334574223">
        <ele>907.621826171875</ele>
        <time>2013-05-28T17:26:14Z</time>
      </trkpt>
      <trkpt lat="47.709588585421443" lon="11.508248364552855">
        <ele>907.621826171875</ele>
        <time>2013-05-28T17:26:16Z</time>
      </trkpt>
      <trkpt lat="47.709595877677202" lon="11.50810151360929">
        <ele>910.025146484375</ele>
        <time>2013-05-28T17:26:24Z</time>
      </trkpt>
      <trkpt lat="47.709614234045148" lon="11.507959021255374">
        <ele>912.428466796875</ele>
        <time>2013-05-28T17:26:33Z</time>
      </trkpt>
      <trkpt lat="47.709637032821774" lon="11.507788868620992">
        <ele>914.35107421875</ele>
        <time>2013-05-28T17:26:42Z</time>
      </trkpt>
      <trkpt lat="47.709638960659504" lon="11.50776925496757">
        <ele>914.831787109375</ele>
        <time>2013-05-28T17:26:43Z</time>
      </trkpt>
      <trkpt lat="47.709652623161674" lon="11.507671354338527">
        <ele>916.273681640625</ele>
        <time>2013-05-28T17:26:49Z</time>
      </trkpt>
      <trkpt lat="47.709652539342642" lon="11.50756842456758">
        <ele>917.235107421875</ele>
        <time>2013-05-28T17:26:56Z</time>
      </trkpt>
      <trkpt lat="47.709669303148985" lon="11.507448647171259">
        <ele>919.15771484375</ele>
        <time>2013-05-28T17:27:05Z</time>
      </trkpt>
      <trkpt lat="47.709671985358" lon="11.507428698241711">
        <ele>919.638427734375</ele>
        <time>2013-05-28T17:27:06Z</time>
      </trkpt>
      <trkpt lat="47.709707692265511" lon="11.50727623142302">
        <ele>920.599609375</ele>
        <time>2013-05-28T17:27:13Z</time>
      </trkpt>
      <trkpt lat="47.709716493263841" lon="11.507193753495812">
        <ele>922.04150390625</ele>
        <time>2013-05-28T17:27:17Z</time>
      </trkpt>
      <trkpt lat="47.709742225706577" lon="11.507072718814015">
        <ele>923.483642578125</ele>
        <time>2013-05-28T17:27:23Z</time>
      </trkpt>
      <trkpt lat="47.709729904308915" lon="11.506999125704169">
        <ele>923.964111328125</ele>
        <time>2013-05-28T17:27:27Z</time>
      </trkpt>
      <trkpt lat="47.709704758599401" lon="11.506929723545909">
        <ele>925.40625</ele>
        <time>2013-05-28T17:27:31Z</time>
      </trkpt>
      <trkpt lat="47.709729569032788" lon="11.506846742704511">
        <ele>925.886962890625</ele>
        <time>2013-05-28T17:27:36Z</time>
      </trkpt>
      <trkpt lat="47.709733173251152" lon="11.50683400221169">
        <ele>926.36767578125</ele>
        <time>2013-05-28T17:27:37Z</time>
      </trkpt>
      <trkpt lat="47.709660502150655" lon="11.506740711629391">
        <ele>927.3291015625</ele>
        <time>2013-05-28T17:27:43Z</time>
      </trkpt>
      <trkpt lat="47.709596883505583" lon="11.506641302257776">
        <ele>927.8095703125</ele>
        <time>2013-05-28T17:27:49Z</time>
      </trkpt>
      <trkpt lat="47.709568217396736" lon="11.50660676881671">
        <ele>928.290283203125</ele>
        <time>2013-05-28T17:27:51Z</time>
      </trkpt>
      <trkpt lat="47.70947802811861" lon="11.50647584348917">
        <ele>928.290283203125</ele>
        <time>2013-05-28T17:27:58Z</time>
      </trkpt>
      <trkpt lat="47.709463946521282" lon="11.506454972550273">
        <ele>928.77099609375</ele>
        <time>2013-05-28T17:27:59Z</time>
      </trkpt>
      <trkpt lat="47.709323046728969" lon="11.506207790225744">
        <ele>928.77099609375</ele>
        <time>2013-05-28T17:28:09Z</time>
      </trkpt>
      <trkpt lat="47.709296392276883" lon="11.506136460229754">
        <ele>929.732177734375</ele>
        <time>2013-05-28T17:28:12Z</time>
      </trkpt>
      <trkpt lat="47.70929915830493" lon="11.506096227094531">
        <ele>930.212890625</ele>
        <time>2013-05-28T17:28:14Z</time>
      </trkpt>
      <trkpt lat="47.709273509681225" lon="11.505983490496874">
        <ele>930.693603515625</ele>
        <time>2013-05-28T17:28:19Z</time>
      </trkpt>
      <trkpt lat="47.709163287654519" lon="11.505771009251475">
        <ele>932.135498046875</ele>
        <time>2013-05-28T17:28:28Z</time>
      </trkpt>
      <trkpt lat="47.709155660122633" lon="11.505719628185034">
        <ele>932.135498046875</ele>
        <time>2013-05-28T17:28:30Z</time>
      </trkpt>
      <trkpt lat="47.709131436422467" lon="11.505586691200733">
        <ele>933.0966796875</ele>
        <time>2013-05-28T17:28:35Z</time>
      </trkpt>
      <trkpt lat="47.709117103368044" lon="11.505538830533624">
        <ele>933.0966796875</ele>
        <time>2013-05-28T17:28:37Z</time>
      </trkpt>
      <trkpt lat="47.70908759906888" lon="11.505428440868855">
        <ele>933.0966796875</ele>
        <time>2013-05-28T17:28:41Z</time>
      </trkpt>
      <trkpt lat="47.708986848592758" lon="11.505227359011769">
        <ele>934.05810546875</ele>
        <time>2013-05-28T17:28:48Z</time>
      </trkpt>
      <trkpt lat="47.708922894671559" lon="11.50507103651762">
        <ele>934.05810546875</ele>
        <time>2013-05-28T17:28:54Z</time>
      </trkpt>
      <trkpt lat="47.708822730928659" lon="11.504873977974057">
        <ele>933.577392578125</ele>
        <time>2013-05-28T17:29:01Z</time>
      </trkpt>
      <trkpt lat="47.708711419254541" lon="11.504628304392099">
        <ele>934.538818359375</ele>
        <time>2013-05-28T17:29:08Z</time>
      </trkpt>
      <trkpt lat="47.708670180290937" lon="11.504415990784764">
        <ele>935.980712890625</ele>
        <time>2013-05-28T17:29:14Z</time>
      </trkpt>
      <trkpt lat="47.708621062338352" lon="11.504210298880935">
        <ele>936.46142578125</ele>
        <time>2013-05-28T17:29:21Z</time>
      </trkpt>
      <trkpt lat="47.708536824211478" lon="11.503942413255572">
        <ele>938.384033203125</ele>
        <time>2013-05-28T17:29:29Z</time>
      </trkpt>
      <trkpt lat="47.708520144224167" lon="11.503862701356411">
        <ele>939.825927734375</ele>
        <time>2013-05-28T17:29:32Z</time>
      </trkpt>
      <trkpt lat="47.708497177809477" lon="11.503665978088975">
        <ele>940.787353515625</ele>
        <time>2013-05-28T17:29:39Z</time>
      </trkpt>
      <trkpt lat="47.708479491993785" lon="11.50360856205225">
        <ele>940.787353515625</ele>
        <time>2013-05-28T17:29:41Z</time>
      </trkpt>
      <trkpt lat="47.708430625498295" lon="11.503423154354095">
        <ele>941.748779296875</ele>
        <time>2013-05-28T17:29:47Z</time>
      </trkpt>
      <trkpt lat="47.70840740762651" lon="11.503340508788824">
        <ele>941.748779296875</ele>
        <time>2013-05-28T17:29:50Z</time>
      </trkpt>
      <trkpt lat="47.70839910954237" lon="11.503238920122385">
        <ele>942.710205078125</ele>
        <time>2013-05-28T17:29:54Z</time>
      </trkpt>
      <trkpt lat="47.708383351564407" lon="11.503022499382496">
        <ele>944.632568359375</ele>
        <time>2013-05-28T17:30:03Z</time>
      </trkpt>
      <trkpt lat="47.708361726254225" lon="11.50284681469202">
        <ele>947.035888671875</ele>
        <time>2013-05-28T17:30:11Z</time>
      </trkpt>
      <trkpt lat="47.708349069580436" lon="11.502800630405545">
        <ele>947.997314453125</ele>
        <time>2013-05-28T17:30:14Z</time>
      </trkpt>
      <trkpt lat="47.708339178934693" lon="11.502693258225918">
        <ele>949.439208984375</ele>
        <time>2013-05-28T17:30:19Z</time>
      </trkpt>
      <trkpt lat="47.70829115062952" lon="11.502490332350135">
        <ele>949.919921875</ele>
        <time>2013-05-28T17:30:28Z</time>
      </trkpt>
      <trkpt lat="47.708286456763744" lon="11.502469209954143">
        <ele>950.881103515625</ele>
        <time>2013-05-28T17:30:29Z</time>
      </trkpt>
      <trkpt lat="47.708227364346385" lon="11.502327723428607">
        <ele>951.36181640625</ele>
        <time>2013-05-28T17:30:37Z</time>
      </trkpt>
      <trkpt lat="47.708150167018175" lon="11.502149188891053">
        <ele>953.76513671875</ele>
        <time>2013-05-28T17:30:45Z</time>
      </trkpt>
      <trkpt lat="47.708134325221181" lon="11.502064615488052">
        <ele>954.726318359375</ele>
        <time>2013-05-28T17:30:50Z</time>
      </trkpt>
      <trkpt lat="47.708114879205823" lon="11.501934193074703">
        <ele>955.687744140625</ele>
        <time>2013-05-28T17:30:57Z</time>
      </trkpt>
      <trkpt lat="47.708139857277274" lon="11.501767477020621">
        <ele>956.16845703125</ele>
        <time>2013-05-28T17:31:03Z</time>
      </trkpt>
      <trkpt lat="47.708149999380112" lon="11.501666055992246">
        <ele>956.16845703125</ele>
        <time>2013-05-28T17:31:06Z</time>
      </trkpt>
      <trkpt lat="47.708202134817839" lon="11.501433122903109">
        <ele>956.649169921875</ele>
        <time>2013-05-28T17:31:13Z</time>
      </trkpt>
      <trkpt lat="47.70819534547627" lon="11.501292726024985">
        <ele>956.649169921875</ele>
        <time>2013-05-28T17:31:16Z</time>
      </trkpt>
      <trkpt lat="47.708122925832868" lon="11.50097387842834">
        <ele>957.610595703125</ele>
        <time>2013-05-28T17:31:24Z</time>
      </trkpt>
      <trkpt lat="47.708122842013836" lon="11.500773970037699">
        <ele>958.57177734375</ele>
        <time>2013-05-28T17:31:30Z</time>
      </trkpt>
      <trkpt lat="47.708069952204823" lon="11.500345151871443">
        <ele>960.013671875</ele>
        <time>2013-05-28T17:31:42Z</time>
      </trkpt>
      <trkpt lat="47.707873480394483" lon="11.499864952638745">
        <ele>962.4169921875</ele>
        <time>2013-05-28T17:31:56Z</time>
      </trkpt>
      <trkpt lat="47.707776250317693" lon="11.499610058963299">
        <ele>962.897705078125</ele>
        <time>2013-05-28T17:32:05Z</time>
      </trkpt>
      <trkpt lat="47.707551196217537" lon="11.49909951724112">
        <ele>963.85888671875</ele>
        <time>2013-05-28T17:32:21Z</time>
      </trkpt>
      <trkpt lat="47.707440387457609" lon="11.498857866972685">
        <ele>967.2236328125</ele>
        <time>2013-05-28T17:32:30Z</time>
      </trkpt>
      <trkpt lat="47.707268558442593" lon="11.498544048517942">
        <ele>967.7041015625</ele>
        <time>2013-05-28T17:32:43Z</time>
      </trkpt>
      <trkpt lat="47.707170406356454" lon="11.498195780441165">
        <ele>967.7041015625</ele>
        <time>2013-05-28T17:32:53Z</time>
      </trkpt>
      <trkpt lat="47.707086335867643" lon="11.497640227898955">
        <ele>967.2236328125</ele>
        <time>2013-05-28T17:33:07Z</time>
      </trkpt>
      <trkpt lat="47.70700846798718" lon="11.49714938364923">
        <ele>966.742919921875</ele>
        <time>2013-05-28T17:33:18Z</time>
      </trkpt>
      <trkpt lat="47.706966642290354" lon="11.496745124459267">
        <ele>966.26220703125</ele>
        <time>2013-05-28T17:33:27Z</time>
      </trkpt>
      <trkpt lat="47.706948453560472" lon="11.496427115052938">
        <ele>966.26220703125</ele>
        <time>2013-05-28T17:33:34Z</time>
      </trkpt>
      <trkpt lat="47.706922888755798" lon="11.496119666844606">
        <ele>966.742919921875</ele>
        <time>2013-05-28T17:33:43Z</time>
      </trkpt>
      <trkpt lat="47.706902101635933" lon="11.4960768353194">
        <ele>966.742919921875</ele>
        <time>2013-05-28T17:33:50Z</time>
      </trkpt>
      <trkpt lat="47.706871340051293" lon="11.496020089834929">
        <ele>967.2236328125</ele>
        <time>2013-05-28T17:38:09Z</time>
      </trkpt>
      <trkpt lat="47.706903023645282" lon="11.495783887803555">
        <ele>966.742919921875</ele>
        <time>2013-05-28T17:38:15Z</time>
      </trkpt>
      <trkpt lat="47.706967564299703" lon="11.495492700487375">
        <ele>966.742919921875</ele>
        <time>2013-05-28T17:38:21Z</time>
      </trkpt>
      <trkpt lat="47.707045515999198" lon="11.495214672759175">
        <ele>965.78173828125</ele>
        <time>2013-05-28T17:38:26Z</time>
      </trkpt>
      <trkpt lat="47.70716437138617" lon="11.494946368038654">
        <ele>966.742919921875</ele>
        <time>2013-05-28T17:38:31Z</time>
      </trkpt>
      <trkpt lat="47.707303427159786" lon="11.494574882090092">
        <ele>966.742919921875</ele>
        <time>2013-05-28T17:38:38Z</time>
      </trkpt>
      <trkpt lat="47.707322370260954" lon="11.494527272880077">
        <ele>966.742919921875</ele>
        <time>2013-05-28T17:38:39Z</time>
      </trkpt>
      <trkpt lat="47.707506269216537" lon="11.494186129420996">
        <ele>967.7041015625</ele>
        <time>2013-05-28T17:38:48Z</time>
      </trkpt>
      <trkpt lat="47.707663094624877" lon="11.493807099759579">
        <ele>969.626953125</ele>
        <time>2013-05-28T17:38:58Z</time>
      </trkpt>
      <trkpt lat="47.70764616318047" lon="11.493398314341903">
        <ele>969.626953125</ele>
        <time>2013-05-28T17:39:06Z</time>
      </trkpt>
      <trkpt lat="47.707524793222547" lon="11.492940075695515">
        <ele>969.146240234375</ele>
        <time>2013-05-28T17:39:14Z</time>
      </trkpt>
      <trkpt lat="47.707461677491665" lon="11.492270780727267">
        <ele>970.588134765625</ele>
        <time>2013-05-28T17:39:23Z</time>
      </trkpt>
      <trkpt lat="47.707482716068625" lon="11.491947406902909">
        <ele>972.99169921875</ele>
        <time>2013-05-28T17:39:30Z</time>
      </trkpt>
      <trkpt lat="47.707578521221876" lon="11.491497131064534">
        <ele>973.952880859375</ele>
        <time>2013-05-28T17:39:43Z</time>
      </trkpt>
      <trkpt lat="47.707735765725374" lon="11.491052387282252">
        <ele>976.356201171875</ele>
        <time>2013-05-28T17:39:57Z</time>
      </trkpt>
      <trkpt lat="47.707778681069613" lon="11.490961695089936">
        <ele>976.8369140625</ele>
        <time>2013-05-28T17:40:00Z</time>
      </trkpt>
      <trkpt lat="47.707997532561421" lon="11.490734713152051">
        <ele>977.317626953125</ele>
        <time>2013-05-28T17:40:09Z</time>
      </trkpt>
      <trkpt lat="47.708095349371433" lon="11.490566236898303">
        <ele>978.759521484375</ele>
        <time>2013-05-28T17:40:17Z</time>
      </trkpt>
      <trkpt lat="47.708115382120013" lon="11.490497253835201">
        <ele>980.201416015625</ele>
        <time>2013-05-28T17:40:20Z</time>
      </trkpt>
      <trkpt lat="47.708160309121013" lon="11.490347050130367">
        <ele>982.604736328125</ele>
        <time>2013-05-28T17:40:27Z</time>
      </trkpt>
      <trkpt lat="47.708182269707322" lon="11.49023381061852">
        <ele>983.56591796875</ele>
        <time>2013-05-28T17:40:32Z</time>
      </trkpt>
      <trkpt lat="47.708191238343716" lon="11.490207742899656">
        <ele>984.046630859375</ele>
        <time>2013-05-28T17:40:33Z</time>
      </trkpt>
      <trkpt lat="47.708286205306649" lon="11.489968439564109">
        <ele>985.96923828125</ele>
        <time>2013-05-28T17:40:44Z</time>
      </trkpt>
      <trkpt lat="47.708429200574756" lon="11.489741373807192">
        <ele>986.930419921875</ele>
        <time>2013-05-28T17:40:54Z</time>
      </trkpt>
      <trkpt lat="47.708646962419152" lon="11.48947742767632">
        <ele>988.372802734375</ele>
        <time>2013-05-28T17:41:07Z</time>
      </trkpt>
      <trkpt lat="47.708924319595098" lon="11.489212475717068">
        <ele>988.372802734375</ele>
        <time>2013-05-28T17:41:18Z</time>
      </trkpt>
      <trkpt lat="47.709264121949673" lon="11.48887443356216">
        <ele>988.372802734375</ele>
        <time>2013-05-28T17:41:30Z</time>
      </trkpt>
      <trkpt lat="47.709478866308928" lon="11.488717943429947">
        <ele>987.4111328125</ele>
        <time>2013-05-28T17:41:36Z</time>
      </trkpt>
      <trkpt lat="47.709558745846152" lon="11.488474868237972">
        <ele>988.853515625</ele>
        <time>2013-05-28T17:41:42Z</time>
      </trkpt>
      <trkpt lat="47.709557572379708" lon="11.488454332575202">
        <ele>990.29541015625</ele>
        <time>2013-05-28T17:41:43Z</time>
      </trkpt>
      <trkpt lat="47.709590848535299" lon="11.488394904881716">
        <ele>991.256591796875</ele>
        <time>2013-05-28T17:41:51Z</time>
      </trkpt>
      <trkpt lat="47.709624292328954" lon="11.488333381712437">
        <ele>991.7373046875</ele>
        <time>2013-05-28T17:41:55Z</time>
      </trkpt>
      <trkpt lat="47.709700651466846" lon="11.488281581550837">
        <ele>993.17919921875</ele>
        <time>2013-05-28T17:42:02Z</time>
      </trkpt>
      <trkpt lat="47.70975505001843" lon="11.488255932927132">
        <ele>993.659912109375</ele>
        <time>2013-05-28T17:42:09Z</time>
      </trkpt>
      <trkpt lat="47.709766030311584" lon="11.488261548802257">
        <ele>993.17919921875</ele>
        <time>2013-05-28T17:42:15Z</time>
      </trkpt>
      <trkpt lat="47.709769802168012" lon="11.488284012302756">
        <ele>992.218017578125</ele>
        <time>2013-05-28T17:42:17Z</time>
      </trkpt>
      <trkpt lat="47.709828140214086" lon="11.488373698666692">
        <ele>990.29541015625</ele>
        <time>2013-05-28T17:42:21Z</time>
      </trkpt>
      <trkpt lat="47.709856638684869" lon="11.488393982872367">
        <ele>989.814697265625</ele>
        <time>2013-05-28T17:42:22Z</time>
      </trkpt>
      <trkpt lat="47.71012200973928" lon="11.488435892388225">
        <ele>987.891845703125</ele>
        <time>2013-05-28T17:42:25Z</time>
      </trkpt>
      <trkpt lat="47.710230723023415" lon="11.488467743620276">
        <ele>987.891845703125</ele>
        <time>2013-05-28T17:42:27Z</time>
      </trkpt>
      <trkpt lat="47.710328623652458" lon="11.488481406122446">
        <ele>988.372802734375</ele>
        <time>2013-05-28T17:42:30Z</time>
      </trkpt>
      <trkpt lat="47.710403054952621" lon="11.488336566835642">
        <ele>989.333984375</ele>
        <time>2013-05-28T17:42:36Z</time>
      </trkpt>
      <trkpt lat="47.710422500967979" lon="11.488184686750174">
        <ele>991.256591796875</ele>
        <time>2013-05-28T17:42:43Z</time>
      </trkpt>
      <trkpt lat="47.710524927824736" lon="11.487917471677065">
        <ele>994.140625</ele>
        <time>2013-05-28T17:42:52Z</time>
      </trkpt>
      <trkpt lat="47.710977466776967" lon="11.487594684585929">
        <ele>996.5439453125</ele>
        <time>2013-05-28T17:43:00Z</time>
      </trkpt>
      <trkpt lat="47.710913848131895" lon="11.487431488931179">
        <ele>997.98583984375</ele>
        <time>2013-05-28T17:43:08Z</time>
      </trkpt>
      <trkpt lat="47.710895743221045" lon="11.487354794517159">
        <ele>998.947021484375</ele>
        <time>2013-05-28T17:43:12Z</time>
      </trkpt>
      <trkpt lat="47.710849139839411" lon="11.487160166725516">
        <ele>1000.38916015625</ele>
        <time>2013-05-28T17:43:21Z</time>
      </trkpt>
      <trkpt lat="47.710854755714536" lon="11.487115491181612">
        <ele>999.908447265625</ele>
        <time>2013-05-28T17:43:23Z</time>
      </trkpt>
      <trkpt lat="47.710874285548925" lon="11.486953720450401">
        <ele>998.947021484375</ele>
        <time>2013-05-28T17:43:27Z</time>
      </trkpt>
      <trkpt lat="47.710883505642414" lon="11.486836373806">
        <ele>997.98583984375</ele>
        <time>2013-05-28T17:43:29Z</time>
      </trkpt>
      <trkpt lat="47.710883254185319" lon="11.486674603074789">
        <ele>997.98583984375</ele>
        <time>2013-05-28T17:43:31Z</time>
      </trkpt>
      <trkpt lat="47.710797926411033" lon="11.486317617818713">
        <ele>999.908447265625</ele>
        <time>2013-05-28T17:43:37Z</time>
      </trkpt>
      <trkpt lat="47.710789460688829" lon="11.486173029989004">
        <ele>1000.86962890625</ele>
        <time>2013-05-28T17:43:41Z</time>
      </trkpt>
      <trkpt lat="47.710773702710867" lon="11.485815374180675">
        <ele>997.98583984375</ele>
        <time>2013-05-28T17:43:46Z</time>
      </trkpt>
      <trkpt lat="47.71074210293591" lon="11.485354956239462">
        <ele>998.46630859375</ele>
        <time>2013-05-28T17:43:50Z</time>
      </trkpt>
      <trkpt lat="47.710747048258781" lon="11.485304748639464">
        <ele>999.908447265625</ele>
        <time>2013-05-28T17:43:51Z</time>
      </trkpt>
      <trkpt lat="47.710803207010031" lon="11.485148509964347">
        <ele>1001.8310546875</ele>
        <time>2013-05-28T17:43:58Z</time>
      </trkpt>
      <trkpt lat="47.710958104580641" lon="11.485076928511262">
        <ele>1003.753662109375</ele>
        <time>2013-05-28T17:44:08Z</time>
      </trkpt>
      <trkpt lat="47.711069164797664" lon="11.484920689836144">
        <ele>1005.676513671875</ele>
        <time>2013-05-28T17:44:19Z</time>
      </trkpt>
      <trkpt lat="47.711138650774956" lon="11.48472061380744">
        <ele>1007.118408203125</ele>
        <time>2013-05-28T17:44:28Z</time>
      </trkpt>
      <trkpt lat="47.711187433451414" lon="11.48450905457139">
        <ele>1010.002197265625</ele>
        <time>2013-05-28T17:44:39Z</time>
      </trkpt>
      <trkpt lat="47.711236635223031" lon="11.484352312982082">
        <ele>1012.88623046875</ele>
        <time>2013-05-28T17:44:49Z</time>
      </trkpt>
      <trkpt lat="47.711296230554581" lon="11.484157098457217">
        <ele>1015.770263671875</ele>
        <time>2013-05-28T17:45:01Z</time>
      </trkpt>
      <trkpt lat="47.711355239152908" lon="11.484003122895956">
        <ele>1018.654052734375</ele>
        <time>2013-05-28T17:45:12Z</time>
      </trkpt>
      <trkpt lat="47.711369236931205" lon="11.483959369361401">
        <ele>1020.09619140625</ele>
        <time>2013-05-28T17:45:22Z</time>
      </trkpt>
      <trkpt lat="47.711412236094475" lon="11.483846548944712">
        <ele>1022.018798828125</ele>
        <time>2013-05-28T17:45:34Z</time>
      </trkpt>
      <trkpt lat="47.711431849747896" lon="11.483778404071927">
        <ele>1023.4609375</ele>
        <time>2013-05-28T17:45:40Z</time>
      </trkpt>
      <trkpt lat="47.711443500593305" lon="11.48367983289063">
        <ele>1025.864013671875</ele>
        <time>2013-05-28T17:45:49Z</time>
      </trkpt>
      <trkpt lat="47.711469316855073" lon="11.483498113229871">
        <ele>1027.30615234375</ele>
        <time>2013-05-28T17:45:58Z</time>
      </trkpt>
      <trkpt lat="47.711498150601983" lon="11.483360817655921">
        <ele>1028.748046875</ele>
        <time>2013-05-28T17:46:07Z</time>
      </trkpt>
      <trkpt lat="47.711500246077776" lon="11.483336677774787">
        <ele>1029.709228515625</ele>
        <time>2013-05-28T17:46:16Z</time>
      </trkpt>
      <trkpt lat="47.711495216935873" lon="11.483331564813852">
        <ele>1030.18994140625</ele>
        <time>2013-05-28T17:46:28Z</time>
      </trkpt>
      <trkpt lat="47.711479291319847" lon="11.483245985582471">
        <ele>1030.670654296875</ele>
        <time>2013-05-28T17:46:33Z</time>
      </trkpt>
      <trkpt lat="47.711473843082786" lon="11.483220588415861">
        <ele>1031.1513671875</ele>
        <time>2013-05-28T17:46:35Z</time>
      </trkpt>
      <trkpt lat="47.711504269391298" lon="11.483110450208187">
        <ele>1033.07373046875</ele>
        <time>2013-05-28T17:46:43Z</time>
      </trkpt>
      <trkpt lat="47.711509885266423" lon="11.483094524592161">
        <ele>1033.554443359375</ele>
        <time>2013-05-28T17:46:44Z</time>
      </trkpt>
      <trkpt lat="47.711559003219008" lon="11.482957229018211">
        <ele>1036.438720703125</ele>
        <time>2013-05-28T17:46:56Z</time>
      </trkpt>
      <trkpt lat="47.711574425920844" lon="11.482842732220888">
        <ele>1038.361328125</ele>
        <time>2013-05-28T17:47:08Z</time>
      </trkpt>
      <trkpt lat="47.711587753146887" lon="11.482718931511045">
        <ele>1040.283935546875</ele>
        <time>2013-05-28T17:47:18Z</time>
      </trkpt>
      <trkpt lat="47.71161382086575" lon="11.482643997296691">
        <ele>1042.20654296875</ele>
        <time>2013-05-28T17:47:26Z</time>
      </trkpt>
      <trkpt lat="47.711646007373929" lon="11.4825848210603">
        <ele>1042.687255859375</ele>
        <time>2013-05-28T17:47:32Z</time>
      </trkpt>
      <trkpt lat="47.71168414503336" lon="11.482516005635262">
        <ele>1044.129150390625</ele>
        <time>2013-05-28T17:47:40Z</time>
      </trkpt>
      <trkpt lat="47.711674170568585" lon="11.482484489679337">
        <ele>1045.09033203125</ele>
        <time>2013-05-28T17:47:53Z</time>
      </trkpt>
      <trkpt lat="47.711626896634698" lon="11.482492368668318">
        <ele>1045.09033203125</ele>
        <time>2013-05-28T17:48:01Z</time>
      </trkpt>
      <trkpt lat="47.711656568571925" lon="11.482470156624913">
        <ele>1046.0517578125</ele>
        <time>2013-05-28T17:48:12Z</time>
      </trkpt>
      <trkpt lat="47.711782967671752" lon="11.482387594878674">
        <ele>1047.49365234375</ele>
        <time>2013-05-28T17:48:19Z</time>
      </trkpt>
      <trkpt lat="47.711844574660063" lon="11.48232338950038">
        <ele>1048.454833984375</ele>
        <time>2013-05-28T17:48:28Z</time>
      </trkpt>
      <trkpt lat="47.711846251040697" lon="11.482300255447626">
        <ele>1048.935546875</ele>
        <time>2013-05-28T17:48:34Z</time>
      </trkpt>
      <trkpt lat="47.711950605735183" lon="11.482190452516079">
        <ele>1051.3388671875</ele>
        <time>2013-05-28T17:48:43Z</time>
      </trkpt>
      <trkpt lat="47.712023193016648" lon="11.482138065621257">
        <ele>1052.781005859375</ele>
        <time>2013-05-28T17:48:49Z</time>
      </trkpt>
      <trkpt lat="47.712163757532835" lon="11.482178131118417">
        <ele>1055.6650390625</ele>
        <time>2013-05-28T17:48:59Z</time>
      </trkpt>
      <trkpt lat="47.712198290973902" lon="11.482216604053974">
        <ele>1055.6650390625</ele>
        <time>2013-05-28T17:49:04Z</time>
      </trkpt>
      <trkpt lat="47.712243553251028" lon="11.482250634580851">
        <ele>1057.10693359375</ele>
        <time>2013-05-28T17:49:11Z</time>
      </trkpt>
      <trkpt lat="47.712259059771895" lon="11.482286173850298">
        <ele>1058.068359375</ele>
        <time>2013-05-28T17:49:21Z</time>
      </trkpt>
      <trkpt lat="47.712291916832328" lon="11.482459679245949">
        <ele>1060.9521484375</ele>
        <time>2013-05-28T17:49:36Z</time>
      </trkpt>
      <trkpt lat="47.712299628183246" lon="11.482665957883">
        <ele>1064.316650390625</ele>
        <time>2013-05-28T17:49:52Z</time>
      </trkpt>
      <trkpt lat="47.712344136089087" lon="11.482930658385158">
        <ele>1067.20068359375</ele>
        <time>2013-05-28T17:50:08Z</time>
      </trkpt>
      <trkpt lat="47.712381016463041" lon="11.48303534835577">
        <ele>1069.12353515625</ele>
        <time>2013-05-28T17:50:17Z</time>
      </trkpt>
      <trkpt lat="47.712414292618632" lon="11.483108941465616">
        <ele>1070.084716796875</ele>
        <time>2013-05-28T17:50:28Z</time>
      </trkpt>
      <trkpt lat="47.712375735864043" lon="11.483132746070623">
        <ele>1070.084716796875</ele>
        <time>2013-05-28T17:51:37Z</time>
      </trkpt>
      <trkpt lat="47.712376490235329" lon="11.483119754120708">
        <ele>1069.12353515625</ele>
        <time>2013-05-28T17:51:42Z</time>
      </trkpt>
      <trkpt lat="47.712412280961871" lon="11.483108270913363">
        <ele>1069.604248046875</ele>
        <time>2013-05-28T17:52:59Z</time>
      </trkpt>
      <trkpt lat="47.712406665086746" lon="11.483109528198838">
        <ele>1070.084716796875</ele>
        <time>2013-05-28T17:54:27Z</time>
      </trkpt>
      <trkpt lat="47.71242393180728" lon="11.48317507468164">
        <ele>1071.046142578125</ele>
        <time>2013-05-28T17:54:35Z</time>
      </trkpt>
      <trkpt lat="47.712478414177895" lon="11.483299797400832">
        <ele>1072.488037109375</ele>
        <time>2013-05-28T17:54:42Z</time>
      </trkpt>
      <trkpt lat="47.712559886276722" lon="11.483454946428537">
        <ele>1074.891357421875</ele>
        <time>2013-05-28T17:54:52Z</time>
      </trkpt>
      <trkpt lat="47.712609255686402" lon="11.483545806258917">
        <ele>1077.294677734375</ele>
        <time>2013-05-28T17:55:00Z</time>
      </trkpt>
      <trkpt lat="47.712633060291409" lon="11.483571287244558">
        <ele>1077.775146484375</ele>
        <time>2013-05-28T17:55:09Z</time>
      </trkpt>
      <trkpt lat="47.712699109688401" lon="11.483704643324018">
        <ele>1081.139892578125</ele>
        <time>2013-05-28T17:55:24Z</time>
      </trkpt>
      <trkpt lat="47.712714280933142" lon="11.483743200078607">
        <ele>1082.10107421875</ele>
        <time>2013-05-28T17:55:29Z</time>
      </trkpt>
      <trkpt lat="47.712769182398915" lon="11.483831880614161">
        <ele>1083.54296875</ele>
        <time>2013-05-28T17:55:40Z</time>
      </trkpt>
      <trkpt lat="47.712837997823954" lon="11.483989208936691">
        <ele>1086.42724609375</ele>
        <time>2013-05-28T17:55:55Z</time>
      </trkpt>
      <trkpt lat="47.712924163788557" lon="11.484046876430511">
        <ele>1088.83056640625</ele>
        <time>2013-05-28T17:56:07Z</time>
      </trkpt>
      <trkpt lat="47.713001277297735" lon="11.484114853665233">
        <ele>1090.7529296875</ele>
        <time>2013-05-28T17:56:17Z</time>
      </trkpt>
      <trkpt lat="47.713052071630955" lon="11.484154416248202">
        <ele>1093.15625</ele>
        <time>2013-05-28T17:56:26Z</time>
      </trkpt>
      <trkpt lat="47.713065817952156" lon="11.484081409871578">
        <ele>1095.078857421875</ele>
        <time>2013-05-28T17:56:37Z</time>
      </trkpt>
      <trkpt lat="47.713084761053324" lon="11.48395199328661">
        <ele>1097.962890625</ele>
        <time>2013-05-28T17:56:50Z</time>
      </trkpt>
      <trkpt lat="47.713100519031286" lon="11.483844369649887">
        <ele>1099.885498046875</ele>
        <time>2013-05-28T17:57:03Z</time>
      </trkpt>
      <trkpt lat="47.713091131299734" lon="11.483856355771422">
        <ele>1100.366455078125</ele>
        <time>2013-05-28T17:57:55Z</time>
      </trkpt>
      <trkpt lat="47.713100183755159" lon="11.483835317194462">
        <ele>1101.32763671875</ele>
        <time>2013-05-28T17:58:10Z</time>
      </trkpt>
      <trkpt lat="47.713092137128115" lon="11.483822576701641">
        <ele>1101.32763671875</ele>
        <time>2013-05-28T17:58:20Z</time>
      </trkpt>
      <trkpt lat="47.713081073015928" lon="11.4837780687958">
        <ele>1102.76953125</ele>
        <time>2013-05-28T17:58:27Z</time>
      </trkpt>
      <trkpt lat="47.713086772710085" lon="11.483746133744717">
        <ele>1102.288818359375</ele>
        <time>2013-05-28T17:58:37Z</time>
      </trkpt>
      <trkpt lat="47.713121641427279" lon="11.483651250600815">
        <ele>1104.211669921875</ele>
        <time>2013-05-28T17:58:49Z</time>
      </trkpt>
      <trkpt lat="47.713122647255659" lon="11.483640857040882">
        <ele>1104.211669921875</ele>
        <time>2013-05-28T17:58:54Z</time>
      </trkpt>
      <trkpt lat="47.713137147948146" lon="11.483486546203494">
        <ele>1105.653564453125</ele>
        <time>2013-05-28T17:59:03Z</time>
      </trkpt>
      <trkpt lat="47.713143350556493" lon="11.483449582010508">
        <ele>1106.61474609375</ele>
        <time>2013-05-28T17:59:05Z</time>
      </trkpt>
      <trkpt lat="47.713159611448646" lon="11.483301892876625">
        <ele>1108.537353515625</ele>
        <time>2013-05-28T17:59:13Z</time>
      </trkpt>
      <trkpt lat="47.713215267285705" lon="11.483094440773129">
        <ele>1110.4599609375</ele>
        <time>2013-05-28T17:59:23Z</time>
      </trkpt>
      <trkpt lat="47.713302690535784" lon="11.482913978397846">
        <ele>1111.902099609375</ele>
        <time>2013-05-28T17:59:33Z</time>
      </trkpt>
      <trkpt lat="47.713364884257317" lon="11.482836445793509">
        <ele>1113.343994140625</ele>
        <time>2013-05-28T17:59:39Z</time>
      </trkpt>
      <trkpt lat="47.713419701904058" lon="11.482755225151777">
        <ele>1114.785888671875</ele>
        <time>2013-05-28T17:59:46Z</time>
      </trkpt>
      <trkpt lat="47.713476782664657" lon="11.482664532959461">
        <ele>1117.189453125</ele>
        <time>2013-05-28T17:59:55Z</time>
      </trkpt>
      <trkpt lat="47.713614832609892" lon="11.482526985928416">
        <ele>1119.5927734375</ele>
        <time>2013-05-28T18:00:07Z</time>
      </trkpt>
      <trkpt lat="47.713667722418904" lon="11.482382146641612">
        <ele>1121.03466796875</ele>
        <time>2013-05-28T18:00:15Z</time>
      </trkpt>
      <trkpt lat="47.713686916977167" lon="11.482307882979512">
        <ele>1121.51513671875</ele>
        <time>2013-05-28T18:00:20Z</time>
      </trkpt>
      <trkpt lat="47.713709967210889" lon="11.482207216322422">
        <ele>1122.4765625</ele>
        <time>2013-05-28T18:00:27Z</time>
      </trkpt>
      <trkpt lat="47.713747099041939" lon="11.482153488323092">
        <ele>1124.399169921875</ele>
        <time>2013-05-28T18:00:31Z</time>
      </trkpt>
      <trkpt lat="47.713808538392186" lon="11.482084086164832">
        <ele>1125.841064453125</ele>
        <time>2013-05-28T18:00:37Z</time>
      </trkpt>
      <trkpt lat="47.713869474828243" lon="11.482006972655654">
        <ele>1126.802490234375</ele>
        <time>2013-05-28T18:00:44Z</time>
      </trkpt>
      <trkpt lat="47.713894201442599" lon="11.481966404244304">
        <ele>1126.802490234375</ele>
        <time>2013-05-28T18:00:47Z</time>
      </trkpt>
      <trkpt lat="47.713996460661292" lon="11.481741098687053">
        <ele>1129.20556640625</ele>
        <time>2013-05-28T18:00:58Z</time>
      </trkpt>
      <trkpt lat="47.714034179225564" lon="11.481581004336476">
        <ele>1129.686279296875</ele>
        <time>2013-05-28T18:01:04Z</time>
      </trkpt>
      <trkpt lat="47.714073657989502" lon="11.481455862522125">
        <ele>1129.686279296875</ele>
        <time>2013-05-28T18:01:10Z</time>
      </trkpt>
      <trkpt lat="47.714153956621885" lon="11.481234580278397">
        <ele>1131.12841796875</ele>
        <time>2013-05-28T18:01:19Z</time>
      </trkpt>
      <trkpt lat="47.714232075959444" lon="11.481003491207957">
        <ele>1132.08984375</ele>
        <time>2013-05-28T18:01:28Z</time>
      </trkpt>
      <trkpt lat="47.714312542229891" lon="11.480870973318815">
        <ele>1134.973876953125</ele>
        <time>2013-05-28T18:01:37Z</time>
      </trkpt>
      <trkpt lat="47.714387392625213" lon="11.48081841878593">
        <ele>1136.415771484375</ele>
        <time>2013-05-28T18:01:45Z</time>
      </trkpt>
      <trkpt lat="47.71448596380651" lon="11.480802493169904">
        <ele>1139.7802734375</ele>
        <time>2013-05-28T18:01:57Z</time>
      </trkpt>
      <trkpt lat="47.714637843891978" lon="11.480842642486095">
        <ele>1143.144775390625</ele>
        <time>2013-05-28T18:02:09Z</time>
      </trkpt>
      <trkpt lat="47.714654775336385" lon="11.480851862579584">
        <ele>1142.664306640625</ele>
        <time>2013-05-28T18:02:10Z</time>
      </trkpt>
      <trkpt lat="47.714722752571106" lon="11.480903327465057">
        <ele>1143.144775390625</ele>
        <time>2013-05-28T18:02:14Z</time>
      </trkpt>
      <trkpt lat="47.714871279895306" lon="11.481063505634665">
        <ele>1144.586669921875</ele>
        <time>2013-05-28T18:02:24Z</time>
      </trkpt>
      <trkpt lat="47.714894078671932" lon="11.481258636340499">
        <ele>1146.02880859375</ele>
        <time>2013-05-28T18:02:34Z</time>
      </trkpt>
      <trkpt lat="47.714875554665923" lon="11.481466172263026">
        <ele>1148.912841796875</ele>
        <time>2013-05-28T18:02:44Z</time>
      </trkpt>
      <trkpt lat="47.714856695383787" lon="11.481724083423615">
        <ele>1150.35498046875</ele>
        <time>2013-05-28T18:02:56Z</time>
      </trkpt>
      <trkpt lat="47.714852252975106" lon="11.481905216351151">
        <ele>1151.796875</ele>
        <time>2013-05-28T18:03:04Z</time>
      </trkpt>
      <trkpt lat="47.714868346229196" lon="11.482110740616918">
        <ele>1152.758056640625</ele>
        <time>2013-05-28T18:03:13Z</time>
      </trkpt>
      <trkpt lat="47.714880416169763" lon="11.482190368697047">
        <ele>1153.719482421875</ele>
        <time>2013-05-28T18:03:17Z</time>
      </trkpt>
      <trkpt lat="47.714929366484284" lon="11.482420954853296">
        <ele>1155.64208984375</ele>
        <time>2013-05-28T18:03:29Z</time>
      </trkpt>
      <trkpt lat="47.714953171089292" lon="11.482630586251616">
        <ele>1157.083984375</ele>
        <time>2013-05-28T18:03:39Z</time>
      </trkpt>
      <trkpt lat="47.714969851076603" lon="11.482737539336085">
        <ele>1158.04541015625</ele>
        <time>2013-05-28T18:03:44Z</time>
      </trkpt>
      <trkpt lat="47.714990638196468" lon="11.482931328937411">
        <ele>1159.4873046875</ele>
        <time>2013-05-28T18:03:52Z</time>
      </trkpt>
      <trkpt lat="47.714985106140375" lon="11.483148923143744">
        <ele>1161.409912109375</ele>
        <time>2013-05-28T18:04:02Z</time>
      </trkpt>
      <trkpt lat="47.714994326233864" lon="11.483219834044576">
        <ele>1161.890625</ele>
        <time>2013-05-28T18:04:05Z</time>
      </trkpt>
      <trkpt lat="47.715016454458237" lon="11.483307676389813">
        <ele>1163.33251953125</ele>
        <time>2013-05-28T18:04:09Z</time>
      </trkpt>
      <trkpt lat="47.715088203549385" lon="11.483443463221192">
        <ele>1164.774658203125</ele>
        <time>2013-05-28T18:04:17Z</time>
      </trkpt>
      <trkpt lat="47.71515198983252" lon="11.483549997210503">
        <ele>1166.697265625</ele>
        <time>2013-05-28T18:04:24Z</time>
      </trkpt>
      <trkpt lat="47.715192474424839" lon="11.483721742406487">
        <ele>1167.658447265625</ele>
        <time>2013-05-28T18:04:32Z</time>
      </trkpt>
      <trkpt lat="47.715213848277926" lon="11.483858283609152">
        <ele>1169.1005859375</ele>
        <time>2013-05-28T18:04:38Z</time>
      </trkpt>
      <trkpt lat="47.715201526880264" lon="11.484020054340363">
        <ele>1170.54248046875</ele>
        <time>2013-05-28T18:04:45Z</time>
      </trkpt>
      <trkpt lat="47.715231282636523" lon="11.484186435118318">
        <ele>1172.465087890625</ele>
        <time>2013-05-28T18:04:55Z</time>
      </trkpt>
      <trkpt lat="47.715255254879594" lon="11.484455075114965">
        <ele>1174.868408203125</ele>
        <time>2013-05-28T18:05:05Z</time>
      </trkpt>
      <trkpt lat="47.715285513550043" lon="11.484589101746678">
        <ele>1176.310302734375</ele>
        <time>2013-05-28T18:05:11Z</time>
      </trkpt>
      <trkpt lat="47.715309737250209" lon="11.484649619087577">
        <ele>1177.271728515625</ele>
        <time>2013-05-28T18:05:15Z</time>
      </trkpt>
      <trkpt lat="47.715370170772076" lon="11.484805773943663">
        <ele>1179.194091796875</ele>
        <time>2013-05-28T18:05:25Z</time>
      </trkpt>
      <trkpt lat="47.715449715033174" lon="11.485005430877209">
        <ele>1181.1171875</ele>
        <time>2013-05-28T18:05:35Z</time>
      </trkpt>
      <trkpt lat="47.71553747355938" lon="11.485264850780368">
        <ele>1183.03955078125</ele>
        <time>2013-05-28T18:05:48Z</time>
      </trkpt>
      <trkpt lat="47.715619867667556" lon="11.485432991757989">
        <ele>1184.96240234375</ele>
        <time>2013-05-28T18:05:58Z</time>
      </trkpt>
      <trkpt lat="47.715689353644848" lon="11.485547991469502">
        <ele>1187.365478515625</ele>
        <time>2013-05-28T18:06:06Z</time>
      </trkpt>
      <trkpt lat="47.71576227620244" lon="11.485722670331597">
        <ele>1189.2880859375</ele>
        <time>2013-05-28T18:06:15Z</time>
      </trkpt>
      <trkpt lat="47.715832851827145" lon="11.485858540982008">
        <ele>1190.72998046875</ele>
        <time>2013-05-28T18:06:23Z</time>
      </trkpt>
      <trkpt lat="47.715897727757692" lon="11.485938671976328">
        <ele>1192.172119140625</ele>
        <time>2013-05-28T18:06:29Z</time>
      </trkpt>
      <trkpt lat="47.715989677235484" lon="11.486072447150946">
        <ele>1193.614013671875</ele>
        <time>2013-05-28T18:06:39Z</time>
      </trkpt>
      <trkpt lat="47.716057738289237" lon="11.486187363043427">
        <ele>1195.53662109375</ele>
        <time>2013-05-28T18:06:47Z</time>
      </trkpt>
      <trkpt lat="47.716115573421121" lon="11.486270511522889">
        <ele>1196.498291015625</ele>
        <time>2013-05-28T18:06:53Z</time>
      </trkpt>
      <trkpt lat="47.716210205107927" lon="11.486436054110527">
        <ele>1198.420654296875</ele>
        <time>2013-05-28T18:07:04Z</time>
      </trkpt>
      <trkpt lat="47.716311290860176" lon="11.486617019400001">
        <ele>1201.3046875</ele>
        <time>2013-05-28T18:07:16Z</time>
      </trkpt>
      <trkpt lat="47.716388069093227" lon="11.486771665513515">
        <ele>1202.74658203125</ele>
        <time>2013-05-28T18:07:25Z</time>
      </trkpt>
      <trkpt lat="47.716481192037463" lon="11.486927065998316">
        <ele>1205.14990234375</ele>
        <time>2013-05-28T18:07:35Z</time>
      </trkpt>
      <trkpt lat="47.716591330245137" lon="11.487116580829024">
        <ele>1207.072509765625</ele>
        <time>2013-05-28T18:07:47Z</time>
      </trkpt>
      <trkpt lat="47.716714711859822" lon="11.487400727346539">
        <ele>1208.9951171875</ele>
        <time>2013-05-28T18:08:03Z</time>
      </trkpt>
      <trkpt lat="47.716779001057148" lon="11.487592002376914">
        <ele>1210.917724609375</ele>
        <time>2013-05-28T18:08:13Z</time>
      </trkpt>
      <trkpt lat="47.716865167021751" lon="11.487846979871392">
        <ele>1213.3212890625</ele>
        <time>2013-05-28T18:08:26Z</time>
      </trkpt>
      <trkpt lat="47.716921493411064" lon="11.488044876605272">
        <ele>1215.724609375</ele>
        <time>2013-05-28T18:08:37Z</time>
      </trkpt>
      <trkpt lat="47.716999780386686" lon="11.488219890743494">
        <ele>1218.127685546875</ele>
        <time>2013-05-28T18:08:47Z</time>
      </trkpt>
      <trkpt lat="47.717113941907883" lon="11.488323826342821">
        <ele>1219.56982421875</ele>
        <time>2013-05-28T18:08:55Z</time>
      </trkpt>
      <trkpt lat="47.717203628271818" lon="11.488389540463686">
        <ele>1220.531005859375</ele>
        <time>2013-05-28T18:09:00Z</time>
      </trkpt>
      <trkpt lat="47.717361459508538" lon="11.488473024219275">
        <ele>1220.531005859375</ele>
        <time>2013-05-28T18:09:08Z</time>
      </trkpt>
      <trkpt lat="47.717501940205693" lon="11.488548461347818">
        <ele>1220.05029296875</ele>
        <time>2013-05-28T18:09:13Z</time>
      </trkpt>
      <trkpt lat="47.717541167512536" lon="11.488566817715764">
        <ele>1218.6083984375</ele>
        <time>2013-05-28T18:09:14Z</time>
      </trkpt>
      <trkpt lat="47.717676870524883" lon="11.488615851849318">
        <ele>1217.16650390625</ele>
        <time>2013-05-28T18:09:17Z</time>
      </trkpt>
      <trkpt lat="47.71792883053422" lon="11.488676033914089">
        <ele>1214.76318359375</ele>
        <time>2013-05-28T18:09:20Z</time>
      </trkpt>
      <trkpt lat="47.718131002038717" lon="11.488689109683037">
        <ele>1215.243896484375</ele>
        <time>2013-05-28T18:09:23Z</time>
      </trkpt>
      <trkpt lat="47.718354463577271" lon="11.488658851012588">
        <ele>1211.3984375</ele>
        <time>2013-05-28T18:09:26Z</time>
      </trkpt>
      <trkpt lat="47.718432582914829" lon="11.48864284157753">
        <ele>1211.3984375</ele>
        <time>2013-05-28T18:09:27Z</time>
      </trkpt>
      <trkpt lat="47.718667443841696" lon="11.488587437197566">
        <ele>1212.840576171875</ele>
        <time>2013-05-28T18:09:30Z</time>
      </trkpt>
      <trkpt lat="47.718865256756544" lon="11.488523818552494">
        <ele>1212.840576171875</ele>
        <time>2013-05-28T18:09:33Z</time>
      </trkpt>
      <trkpt lat="47.719057789072394" lon="11.488470593467355">
        <ele>1215.724609375</ele>
        <time>2013-05-28T18:09:38Z</time>
      </trkpt>
      <trkpt lat="47.719325926154852" lon="11.488482244312763">
        <ele>1216.685791015625</ele>
        <time>2013-05-28T18:09:47Z</time>
      </trkpt>
      <trkpt lat="47.719574784860015" lon="11.48850847966969">
        <ele>1213.8017578125</ele>
        <time>2013-05-28T18:09:53Z</time>
      </trkpt>
      <trkpt lat="47.719643516466022" lon="11.488509569317102">
        <ele>1211.879150390625</ele>
        <time>2013-05-28T18:09:54Z</time>
      </trkpt>
      <trkpt lat="47.719888435676694" lon="11.488581737503409">
        <ele>1207.55322265625</ele>
        <time>2013-05-28T18:09:57Z</time>
      </trkpt>
      <trkpt lat="47.720431080088019" lon="11.488904524594545">
        <ele>1206.591796875</ele>
        <time>2013-05-28T18:10:04Z</time>
      </trkpt>
      <trkpt lat="47.720532417297363" lon="11.488965041935444">
        <ele>1210.917724609375</ele>
        <time>2013-05-28T18:10:06Z</time>
      </trkpt>
      <trkpt lat="47.720558233559132" lon="11.488981135189533">
        <ele>1211.3984375</ele>
        <time>2013-05-28T18:10:07Z</time>
      </trkpt>
      <trkpt lat="47.720610117539763" lon="11.489019272848964">
        <ele>1213.3212890625</ele>
        <time>2013-05-28T18:10:15Z</time>
      </trkpt>
      <trkpt lat="47.720632161945105" lon="11.48900929838419">
        <ele>1214.76318359375</ele>
        <time>2013-05-28T18:10:22Z</time>
      </trkpt>
      <trkpt lat="47.720708604902029" lon="11.488933609798551">
        <ele>1216.205078125</ele>
        <time>2013-05-28T18:10:36Z</time>
      </trkpt>
      <trkpt lat="47.720807259902358" lon="11.488820873200893">
        <ele>1219.089111328125</ele>
        <time>2013-05-28T18:10:54Z</time>
      </trkpt>
      <trkpt lat="47.720900885760784" lon="11.488738395273685">
        <ele>1221.01171875</ele>
        <time>2013-05-28T18:11:07Z</time>
      </trkpt>
      <trkpt lat="47.721054777503014" lon="11.488766139373183">
        <ele>1224.376220703125</ele>
        <time>2013-05-28T18:11:26Z</time>
      </trkpt>
      <trkpt lat="47.721081096678972" lon="11.488803941756487">
        <ele>1225.33740234375</ele>
        <time>2013-05-28T18:11:33Z</time>
      </trkpt>
      <trkpt lat="47.721152929589152" lon="11.488917768001556">
        <ele>1228.2216796875</ele>
        <time>2013-05-28T18:11:45Z</time>
      </trkpt>
      <trkpt lat="47.72120313718915" lon="11.488992618396878">
        <ele>1229.182861328125</ele>
        <time>2013-05-28T18:11:53Z</time>
      </trkpt>
      <trkpt lat="47.721222080290318" lon="11.489018853753805">
        <ele>1230.625</ele>
        <time>2013-05-28T18:11:56Z</time>
      </trkpt>
      <trkpt lat="47.721233060583472" lon="11.489037126302719">
        <ele>1230.144287109375</ele>
        <time>2013-05-28T18:11:58Z</time>
      </trkpt>
      <trkpt lat="47.721343617886305" lon="11.489056907594204">
        <ele>1233.5087890625</ele>
        <time>2013-05-28T18:12:14Z</time>
      </trkpt>
      <trkpt lat="47.721467670053244" lon="11.48907233029604">
        <ele>1236.392822265625</ele>
        <time>2013-05-28T18:12:30Z</time>
      </trkpt>
      <trkpt lat="47.721525840461254" lon="11.489140810444951">
        <ele>1237.834716796875</ele>
        <time>2013-05-28T18:12:41Z</time>
      </trkpt>
      <trkpt lat="47.721584513783455" lon="11.489221695810556">
        <ele>1239.276611328125</ele>
        <time>2013-05-28T18:12:52Z</time>
      </trkpt>
      <trkpt lat="47.721628183498979" lon="11.48930249735713">
        <ele>1240.718505859375</ele>
        <time>2013-05-28T18:13:02Z</time>
      </trkpt>
      <trkpt lat="47.72160186432302" lon="11.489316327497363">
        <ele>1240.718505859375</ele>
        <time>2013-05-28T18:13:16Z</time>
      </trkpt>
      <trkpt lat="47.721594572067261" lon="11.489331750199199">
        <ele>1241.19921875</ele>
        <time>2013-05-28T18:13:44Z</time>
      </trkpt>
      <trkpt lat="47.721647964790463" lon="11.48930300027132">
        <ele>1241.19921875</ele>
        <time>2013-05-28T18:14:14Z</time>
      </trkpt>
      <trkpt lat="47.721654754132032" lon="11.489250026643276">
        <ele>1243.121826171875</ele>
        <time>2013-05-28T18:17:30Z</time>
      </trkpt>
      <trkpt lat="47.721626590937376" lon="11.489200489595532">
        <ele>1244.08349609375</ele>
        <time>2013-05-28T18:17:40Z</time>
      </trkpt>
      <trkpt lat="47.721596164628863" lon="11.489154640585184">
        <ele>1245.044677734375</ele>
        <time>2013-05-28T18:17:50Z</time>
      </trkpt>
      <trkpt lat="47.721636146306992" lon="11.489035952836275">
        <ele>1246.48681640625</ele>
        <time>2013-05-28T18:18:01Z</time>
      </trkpt>
      <trkpt lat="47.72173966281116" lon="11.489002089947462">
        <ele>1249.851318359375</ele>
        <time>2013-05-28T18:18:14Z</time>
      </trkpt>
      <trkpt lat="47.721825242042542" lon="11.488955151289701">
        <ele>1252.25439453125</ele>
        <time>2013-05-28T18:18:26Z</time>
      </trkpt>
      <trkpt lat="47.721896236762404" lon="11.488893628120422">
        <ele>1254.65771484375</ele>
        <time>2013-05-28T18:18:40Z</time>
      </trkpt>
      <trkpt lat="47.721936888992786" lon="11.48888180963695">
        <ele>1256.580322265625</ele>
        <time>2013-05-28T18:18:51Z</time>
      </trkpt>
      <trkpt lat="47.721957759931684" lon="11.488879295065999">
        <ele>1257.06103515625</ele>
        <time>2013-05-28T18:19:00Z</time>
      </trkpt>
      <trkpt lat="47.721987515687943" lon="11.488892789930105">
        <ele>1258.5029296875</ele>
        <time>2013-05-28T18:19:13Z</time>
      </trkpt>
      <trkpt lat="47.722038645297289" lon="11.488934783264995">
        <ele>1260.906494140625</ele>
        <time>2013-05-28T18:19:27Z</time>
      </trkpt>
      <trkpt lat="47.722053229808807" lon="11.488946517929435">
        <ele>1262.348388671875</ele>
        <time>2013-05-28T18:19:40Z</time>
      </trkpt>
      <trkpt lat="47.722070664167404" lon="11.488953810185194">
        <ele>1263.790283203125</ele>
        <time>2013-05-28T18:19:49Z</time>
      </trkpt>
      <trkpt lat="47.722110142931342" lon="11.488965796306729">
        <ele>1265.232421875</ele>
        <time>2013-05-28T18:20:02Z</time>
      </trkpt>
      <trkpt lat="47.722168397158384" lon="11.488966215401888">
        <ele>1267.635498046875</ele>
        <time>2013-05-28T18:20:14Z</time>
      </trkpt>
      <trkpt lat="47.72219899110496" lon="11.488937381654978">
        <ele>1269.07763671875</ele>
        <time>2013-05-28T18:20:24Z</time>
      </trkpt>
      <trkpt lat="47.72221558727324" lon="11.488920450210571">
        <ele>1270.51953125</ele>
        <time>2013-05-28T18:20:31Z</time>
      </trkpt>
      <trkpt lat="47.722227154299617" lon="11.488903099671006">
        <ele>1271.96142578125</ele>
        <time>2013-05-28T18:20:39Z</time>
      </trkpt>
      <trkpt lat="47.722242744639516" lon="11.488894633948803">
        <ele>1272.9228515625</ele>
        <time>2013-05-28T18:20:49Z</time>
      </trkpt>
      <trkpt lat="47.722278703004122" lon="11.488882983103395">
        <ele>1274.36474609375</ele>
        <time>2013-05-28T18:20:58Z</time>
      </trkpt>
      <trkpt lat="47.722280127927661" lon="11.48887200281024">
        <ele>1274.845458984375</ele>
        <time>2013-05-28T18:21:13Z</time>
      </trkpt>
      <trkpt lat="47.722332766279578" lon="11.488861357793212">
        <ele>1277.2490234375</ele>
        <time>2013-05-28T18:21:27Z</time>
      </trkpt>
      <trkpt lat="47.722364701330662" lon="11.488830596208572">
        <ele>1278.69091796875</ele>
        <time>2013-05-28T18:21:38Z</time>
      </trkpt>
      <trkpt lat="47.722389595583081" lon="11.488801594823599">
        <ele>1281.09423828125</ele>
        <time>2013-05-28T18:21:48Z</time>
      </trkpt>
      <trkpt lat="47.722397558391094" lon="11.488794721662998">
        <ele>1281.57470703125</ele>
        <time>2013-05-28T18:21:56Z</time>
      </trkpt>
      <trkpt lat="47.722410801798105" lon="11.488790530711412">
        <ele>1282.055419921875</ele>
        <time>2013-05-28T18:22:09Z</time>
      </trkpt>
      <trkpt lat="47.722424799576402" lon="11.488793548196554">
        <ele>1283.0166015625</ele>
        <time>2013-05-28T18:22:17Z</time>
      </trkpt>
      <trkpt lat="47.722451454028487" lon="11.48879824206233">
        <ele>1284.939453125</ele>
        <time>2013-05-28T18:22:46Z</time>
      </trkpt>
      <trkpt lat="47.722481880337" lon="11.488800086081028">
        <ele>1285.900634765625</ele>
        <time>2013-05-28T18:22:54Z</time>
      </trkpt>
      <trkpt lat="47.722508031874895" lon="11.488816263154149">
        <ele>1286.86181640625</ele>
        <time>2013-05-28T18:23:03Z</time>
      </trkpt>
      <trkpt lat="47.722564022988081" lon="11.48883830755949">
        <ele>1289.745849609375</ele>
        <time>2013-05-28T18:23:15Z</time>
      </trkpt>
      <trkpt lat="47.722570979967713" lon="11.48882414214313">
        <ele>1289.745849609375</ele>
        <time>2013-05-28T18:23:30Z</time>
      </trkpt>
      <trkpt lat="47.722592940554023" lon="11.488798996433616">
        <ele>1292.1494140625</ele>
        <time>2013-05-28T18:23:39Z</time>
      </trkpt>
      <trkpt lat="47.722602831199765" lon="11.488778963685036">
        <ele>1292.630126953125</ele>
        <time>2013-05-28T18:23:48Z</time>
      </trkpt>
      <trkpt lat="47.722618253901601" lon="11.488766642287374">
        <ele>1294.072021484375</ele>
        <time>2013-05-28T18:23:57Z</time>
      </trkpt>
      <trkpt lat="47.72263141348958" lon="11.488758511841297">
        <ele>1294.552490234375</ele>
        <time>2013-05-28T18:24:13Z</time>
      </trkpt>
      <trkpt lat="47.722639460116625" lon="11.488771922886372">
        <ele>1295.513916015625</ele>
        <time>2013-05-28T18:24:25Z</time>
      </trkpt>
      <trkpt lat="47.722654044628143" lon="11.48874694481492">
        <ele>1295.99462890625</ele>
        <time>2013-05-28T18:25:37Z</time>
      </trkpt>
      <trkpt lat="47.722673574462533" lon="11.488721715286374">
        <ele>1297.917236328125</ele>
        <time>2013-05-28T18:25:47Z</time>
      </trkpt>
      <trkpt lat="47.722695367410779" lon="11.488705789670348">
        <ele>1298.87841796875</ele>
        <time>2013-05-28T18:26:01Z</time>
      </trkpt>
      <trkpt lat="47.722709197551012" lon="11.488700341433287">
        <ele>1300.320556640625</ele>
        <time>2013-05-28T18:26:10Z</time>
      </trkpt>
      <trkpt lat="47.722724955528975" lon="11.488686511293054">
        <ele>1301.28173828125</ele>
        <time>2013-05-28T18:26:20Z</time>
      </trkpt>
      <trkpt lat="47.722742138430476" lon="11.488677626475692">
        <ele>1302.242919921875</ele>
        <time>2013-05-28T18:26:31Z</time>
      </trkpt>
      <trkpt lat="47.722792597487569" lon="11.488675950095057">
        <ele>1305.126953125</ele>
        <time>2013-05-28T18:26:43Z</time>
      </trkpt>
      <trkpt lat="47.72282981313765" lon="11.488607386127114">
        <ele>1307.049560546875</ele>
        <time>2013-05-28T18:26:54Z</time>
      </trkpt>
      <trkpt lat="47.722881613299251" lon="11.488644434139132">
        <ele>1309.453125</ele>
        <time>2013-05-28T18:27:06Z</time>
      </trkpt>
      <trkpt lat="47.72292897105217" lon="11.488713165745139">
        <ele>1310.89501953125</ele>
        <time>2013-05-28T18:27:17Z</time>
      </trkpt>
      <trkpt lat="47.722944980487227" lon="11.488740658387542">
        <ele>1311.375732421875</ele>
        <time>2013-05-28T18:27:31Z</time>
      </trkpt>
      <trkpt lat="47.722965432330966" lon="11.488704113289714">
        <ele>1313.29833984375</ele>
        <time>2013-05-28T18:27:42Z</time>
      </trkpt>
      <trkpt lat="47.722967779263854" lon="11.488691372796893">
        <ele>1313.29833984375</ele>
        <time>2013-05-28T18:27:51Z</time>
      </trkpt>
      <trkpt lat="47.722985045984387" lon="11.488669328391552">
        <ele>1315.220947265625</ele>
        <time>2013-05-28T18:28:15Z</time>
      </trkpt>
      <trkpt lat="47.722989739850163" lon="11.488629011437297">
        <ele>1315.70166015625</ele>
        <time>2013-05-28T18:28:24Z</time>
      </trkpt>
      <trkpt lat="47.723010275512934" lon="11.488632867112756">
        <ele>1317.1435546875</ele>
        <time>2013-05-28T18:28:36Z</time>
      </trkpt>
      <trkpt lat="47.723022513091564" lon="11.488620294257998">
        <ele>1318.58544921875</ele>
        <time>2013-05-28T18:28:49Z</time>
      </trkpt>
      <trkpt lat="47.723036678507924" lon="11.488601015880704">
        <ele>1319.066162109375</ele>
        <time>2013-05-28T18:28:59Z</time>
      </trkpt>
      <trkpt lat="47.723045563325286" lon="11.488591125234962">
        <ele>1320.02734375</ele>
        <time>2013-05-28T18:29:11Z</time>
      </trkpt>
      <trkpt lat="47.723053190857172" lon="11.488574780523777">
        <ele>1320.98876953125</ele>
        <time>2013-05-28T18:29:22Z</time>
      </trkpt>
      <trkpt lat="47.723066853359342" lon="11.48857737891376">
        <ele>1321.949951171875</ele>
        <time>2013-05-28T18:29:38Z</time>
      </trkpt>
      <trkpt lat="47.723082192242146" lon="11.488552400842309">
        <ele>1323.39208984375</ele>
        <time>2013-05-28T18:29:53Z</time>
      </trkpt>
      <trkpt lat="47.723095268011093" lon="11.488544689491391">
        <ele>1324.353515625</ele>
        <time>2013-05-28T18:30:02Z</time>
      </trkpt>
      <trkpt lat="47.723111025989056" lon="11.488528260961175">
        <ele>1324.834228515625</ele>
        <time>2013-05-28T18:30:11Z</time>
      </trkpt>
      <trkpt lat="47.723132483661175" lon="11.488523567095399">
        <ele>1326.7568359375</ele>
        <time>2013-05-28T18:30:26Z</time>
      </trkpt>
      <trkpt lat="47.723146062344313" lon="11.488514598459005">
        <ele>1327.718017578125</ele>
        <time>2013-05-28T18:30:39Z</time>
      </trkpt>
      <trkpt lat="47.723156874999404" lon="11.488512000069022">
        <ele>1327.718017578125</ele>
        <time>2013-05-28T18:30:52Z</time>
      </trkpt>
      <trkpt lat="47.723168944939971" lon="11.488509569317102">
        <ele>1329.640625</ele>
        <time>2013-05-28T18:31:07Z</time>
      </trkpt>
      <trkpt lat="47.723184619098902" lon="11.488506468012929">
        <ele>1330.60205078125</ele>
        <time>2013-05-28T18:31:18Z</time>
      </trkpt>
      <trkpt lat="47.723203729838133" lon="11.48851920850575">
        <ele>1331.563232421875</ele>
        <time>2013-05-28T18:31:28Z</time>
      </trkpt>
      <trkpt lat="47.72321529686451" lon="11.488531026989222">
        <ele>1332.0439453125</ele>
        <time>2013-05-28T18:31:37Z</time>
      </trkpt>
      <trkpt lat="47.723223762586713" lon="11.488527087494731">
        <ele>1332.524658203125</ele>
        <time>2013-05-28T18:32:01Z</time>
      </trkpt>
      <trkpt lat="47.72322996519506" lon="11.488514011725783">
        <ele>1333.966552734375</ele>
        <time>2013-05-28T18:32:11Z</time>
      </trkpt>
      <trkpt lat="47.723251674324274" lon="11.488497499376535">
        <ele>1335.88916015625</ele>
        <time>2013-05-28T18:32:20Z</time>
      </trkpt>
      <trkpt lat="47.723285872489214" lon="11.488498169928789">
        <ele>1336.850341796875</ele>
        <time>2013-05-28T18:32:29Z</time>
      </trkpt>
      <trkpt lat="47.723342115059495" lon="11.488519124686718">
        <ele>1339.734375</ele>
        <time>2013-05-28T18:32:40Z</time>
      </trkpt>
      <trkpt lat="47.723429789766669" lon="11.488482328131795">
        <ele>1343.09912109375</ele>
        <time>2013-05-28T18:32:55Z</time>
      </trkpt>
      <trkpt lat="47.723489217460155" lon="11.488420469686389">
        <ele>1345.983154296875</ele>
        <time>2013-05-28T18:33:08Z</time>
      </trkpt>
      <trkpt lat="47.723529618233442" lon="11.48837948217988">
        <ele>1346.9443359375</ele>
        <time>2013-05-28T18:33:19Z</time>
      </trkpt>
      <trkpt lat="47.72355685941875" lon="11.488335644826293">
        <ele>1347.90576171875</ele>
        <time>2013-05-28T18:33:28Z</time>
      </trkpt>
      <trkpt lat="47.723561469465494" lon="11.488384427502751">
        <ele>1347.90576171875</ele>
        <time>2013-05-28T18:33:34Z</time>
      </trkpt>
      <trkpt lat="47.723560463637114" lon="11.488396497443318">
        <ele>1347.425048828125</ele>
        <time>2013-05-28T18:33:51Z</time>
      </trkpt>
      <trkpt lat="47.723567672073841" lon="11.488370094448328">
        <ele>1346.4638671875</ele>
        <time>2013-05-28T18:34:04Z</time>
      </trkpt>
      <trkpt lat="47.723560463637114" lon="11.488384930416942">
        <ele>1347.425048828125</ele>
        <time>2013-05-28T18:34:24Z</time>
      </trkpt>
      <trkpt lat="47.723563900217414" lon="11.488385265693069">
        <ele>1347.425048828125</ele>
        <time>2013-05-28T18:38:53Z</time>
      </trkpt>
      <trkpt lat="47.723563816398382" lon="11.488384176045656">
        <ele>1348.38623046875</ele>
        <time>2013-05-28T18:39:12Z</time>
      </trkpt>
      <trkpt lat="47.723559122532606" lon="11.488382164388895">
        <ele>1348.866943359375</ele>
        <time>2013-05-28T18:40:11Z</time>
      </trkpt>
      <trkpt lat="47.723545460030437" lon="11.488375626504421">
        <ele>1348.38623046875</ele>
        <time>2013-05-28T18:40:16Z</time>
      </trkpt>
      <trkpt lat="47.723551914095879" lon="11.488379230722785">
        <ele>1348.38623046875</ele>
        <time>2013-05-28T18:40:27Z</time>
      </trkpt>
      <trkpt lat="47.723553758114576" lon="11.488362215459347">
        <ele>1347.90576171875</ele>
        <time>2013-05-28T18:40:56Z</time>
      </trkpt>
      <trkpt lat="47.723550908267498" lon="11.4883784763515">
        <ele>1348.38623046875</ele>
        <time>2013-05-28T18:41:04Z</time>
      </trkpt>
      <trkpt lat="47.723555015400052" lon="11.488370597362518">
        <ele>1348.38623046875</ele>
        <time>2013-05-28T18:41:22Z</time>
      </trkpt>
      <trkpt lat="47.723573371767998" lon="11.488393228501081">
        <ele>1348.38623046875</ele>
        <time>2013-05-28T18:41:29Z</time>
      </trkpt>
      <trkpt lat="47.723579658195376" lon="11.488395323976874">
        <ele>1348.38623046875</ele>
        <time>2013-05-28T18:41:51Z</time>
      </trkpt>
      <trkpt lat="47.723578149452806" lon="11.488392977043986">
        <ele>1348.38623046875</ele>
        <time>2013-05-28T18:42:41Z</time>
      </trkpt>
      <trkpt lat="47.723599271848798" lon="11.488461289554834">
        <ele>1347.90576171875</ele>
        <time>2013-05-28T18:42:46Z</time>
      </trkpt>
      <trkpt lat="47.723717205226421" lon="11.488653654232621">
        <ele>1345.021728515625</ele>
        <time>2013-05-28T18:42:53Z</time>
      </trkpt>
      <trkpt lat="47.723799683153629" lon="11.488834116607904">
        <ele>1341.6572265625</ele>
        <time>2013-05-28T18:42:57Z</time>
      </trkpt>
      <trkpt lat="47.723819632083178" lon="11.488892203196883">
        <ele>1341.6572265625</ele>
        <time>2013-05-28T18:42:58Z</time>
      </trkpt>
      <trkpt lat="47.723900936543941" lon="11.489108875393867">
        <ele>1338.29248046875</ele>
        <time>2013-05-28T18:43:02Z</time>
      </trkpt>
      <trkpt lat="47.724113669246435" lon="11.489604832604527">
        <ele>1335.88916015625</ele>
        <time>2013-05-28T18:43:10Z</time>
      </trkpt>
      <trkpt lat="47.724418854340911" lon="11.490162564441562">
        <ele>1333.005126953125</ele>
        <time>2013-05-28T18:43:17Z</time>
      </trkpt>
      <trkpt lat="47.724586743861437" lon="11.490324502810836">
        <ele>1331.082763671875</ele>
        <time>2013-05-28T18:43:23Z</time>
      </trkpt>
      <trkpt lat="47.724722530692816" lon="11.490348307415843">
        <ele>1327.718017578125</ele>
        <time>2013-05-28T18:43:30Z</time>
      </trkpt>
      <trkpt lat="47.724829399958253" lon="11.490316037088633">
        <ele>1324.353515625</ele>
        <time>2013-05-28T18:43:35Z</time>
      </trkpt>
      <trkpt lat="47.724922271445394" lon="11.490335147827864">
        <ele>1321.949951171875</ele>
        <time>2013-05-28T18:43:39Z</time>
      </trkpt>
      <trkpt lat="47.724998630583286" lon="11.490337243303657">
        <ele>1320.02734375</ele>
        <time>2013-05-28T18:43:43Z</time>
      </trkpt>
      <trkpt lat="47.725043222308159" lon="11.490306314080954">
        <ele>1318.58544921875</ele>
        <time>2013-05-28T18:43:46Z</time>
      </trkpt>
      <trkpt lat="47.725092591717839" lon="11.490227272734046">
        <ele>1316.662841796875</ele>
        <time>2013-05-28T18:43:50Z</time>
      </trkpt>
      <trkpt lat="47.725136680528522" lon="11.490205647423863">
        <ele>1315.220947265625</ele>
        <time>2013-05-28T18:43:57Z</time>
      </trkpt>
      <trkpt lat="47.725178841501474" lon="11.490170611068606">
        <ele>1313.29833984375</ele>
        <time>2013-05-28T18:44:05Z</time>
      </trkpt>
      <trkpt lat="47.725206082686782" lon="11.490173041820526">
        <ele>1313.77880859375</ele>
        <time>2013-05-28T18:44:13Z</time>
      </trkpt>
      <trkpt lat="47.725216308608651" lon="11.490178070962429">
        <ele>1313.29833984375</ele>
        <time>2013-05-28T18:44:31Z</time>
      </trkpt>
      <trkpt lat="47.725196443498135" lon="11.490194331854582">
        <ele>1313.77880859375</ele>
        <time>2013-05-28T18:44:40Z</time>
      </trkpt>
      <trkpt lat="47.725166184827685" lon="11.490196930244565">
        <ele>1314.740234375</ele>
        <time>2013-05-28T18:44:47Z</time>
      </trkpt>
      <trkpt lat="47.725137183442712" lon="11.490237666293979">
        <ele>1315.70166015625</ele>
        <time>2013-05-28T18:44:52Z</time>
      </trkpt>
      <trkpt lat="47.725123101845384" lon="11.490279324352741">
        <ele>1316.18212890625</ele>
        <time>2013-05-28T18:44:55Z</time>
      </trkpt>
      <trkpt lat="47.725076163187623" lon="11.490340512245893">
        <ele>1318.58544921875</ele>
        <time>2013-05-28T18:45:03Z</time>
      </trkpt>
      <trkpt lat="47.725029978901148" lon="11.49039457552135">
        <ele>1319.546875</ele>
        <time>2013-05-28T18:45:11Z</time>
      </trkpt>
      <trkpt lat="47.725018328055739" lon="11.490433970466256">
        <ele>1320.02734375</ele>
        <time>2013-05-28T18:45:22Z</time>
      </trkpt>
      <trkpt lat="47.724978597834706" lon="11.490576546639204">
        <ele>1318.58544921875</ele>
        <time>2013-05-28T18:45:30Z</time>
      </trkpt>
      <trkpt lat="47.724975077435374" lon="11.490615690127015">
        <ele>1317.6240234375</ele>
        <time>2013-05-28T18:45:38Z</time>
      </trkpt>
      <trkpt lat="47.72494113072753" lon="11.490723146125674">
        <ele>1316.18212890625</ele>
        <time>2013-05-28T18:45:43Z</time>
      </trkpt>
      <trkpt lat="47.724891174584627" lon="11.490917271003127">
        <ele>1313.77880859375</ele>
        <time>2013-05-28T18:45:50Z</time>
      </trkpt>
      <trkpt lat="47.724809031933546" lon="11.491028917953372">
        <ele>1310.414306640625</ele>
        <time>2013-05-28T18:45:55Z</time>
      </trkpt>
      <trkpt lat="47.724775420501828" lon="11.491119526326656">
        <ele>1309.453125</ele>
        <time>2013-05-28T18:45:57Z</time>
      </trkpt>
      <trkpt lat="47.724713897332549" lon="11.49124869145453">
        <ele>1308.49169921875</ele>
        <time>2013-05-28T18:46:02Z</time>
      </trkpt>
      <trkpt lat="47.724655978381634" lon="11.491253804415464">
        <ele>1307.5302734375</ele>
        <time>2013-05-28T18:46:04Z</time>
      </trkpt>
      <trkpt lat="47.7245610114187" lon="11.491291103884578">
        <ele>1308.01123046875</ele>
        <time>2013-05-28T18:46:08Z</time>
      </trkpt>
      <trkpt lat="47.724553551524878" lon="11.491310298442841">
        <ele>1307.049560546875</ele>
        <time>2013-05-28T18:46:20Z</time>
      </trkpt>
      <trkpt lat="47.724542990326881" lon="11.491330247372389">
        <ele>1307.5302734375</ele>
        <time>2013-05-28T18:46:33Z</time>
      </trkpt>
      <trkpt lat="47.724524382501841" lon="11.49136008694768">
        <ele>1307.5302734375</ele>
        <time>2013-05-28T18:46:45Z</time>
      </trkpt>
      <trkpt lat="47.724517090246081" lon="11.491364613175392">
        <ele>1306.56884765625</ele>
        <time>2013-05-28T18:46:54Z</time>
      </trkpt>
      <trkpt lat="47.724514156579971" lon="11.491368971765041">
        <ele>1306.088134765625</ele>
        <time>2013-05-28T18:46:55Z</time>
      </trkpt>
      <trkpt lat="47.724475096911192" lon="11.491444911807775">
        <ele>1305.607666015625</ele>
        <time>2013-05-28T18:47:02Z</time>
      </trkpt>
      <trkpt lat="47.724475348368287" lon="11.491511296480894">
        <ele>1306.56884765625</ele>
        <time>2013-05-28T18:47:12Z</time>
      </trkpt>
      <trkpt lat="47.724435450509191" lon="11.491587236523628">
        <ele>1308.01123046875</ele>
        <time>2013-05-28T18:47:22Z</time>
      </trkpt>
      <trkpt lat="47.72442514076829" lon="11.491594696417451">
        <ele>1307.049560546875</ele>
        <time>2013-05-28T18:47:32Z</time>
      </trkpt>
      <trkpt lat="47.724314667284489" lon="11.491719670593739">
        <ele>1305.607666015625</ele>
        <time>2013-05-28T18:47:39Z</time>
      </trkpt>
      <trkpt lat="47.724288515746593" lon="11.491767028346658">
        <ele>1305.126953125</ele>
        <time>2013-05-28T18:47:45Z</time>
      </trkpt>
      <trkpt lat="47.724318774417043" lon="11.491863839328289">
        <ele>1303.68505859375</ele>
        <time>2013-05-28T18:47:52Z</time>
      </trkpt>
      <trkpt lat="47.724318103864789" lon="11.491933241486549">
        <ele>1301.762451171875</ele>
        <time>2013-05-28T18:47:55Z</time>
      </trkpt>
      <trkpt lat="47.72430301643908" lon="11.4919738098979">
        <ele>1301.762451171875</ele>
        <time>2013-05-28T18:48:00Z</time>
      </trkpt>
      <trkpt lat="47.724314415827394" lon="11.491959979757667">
        <ele>1300.801025390625</ele>
        <time>2013-05-28T18:48:09Z</time>
      </trkpt>
      <trkpt lat="47.7243313472718" lon="11.491993675008416">
        <ele>1300.801025390625</ele>
        <time>2013-05-28T18:48:20Z</time>
      </trkpt>
      <trkpt lat="47.724328581243753" lon="11.492067771032453">
        <ele>1298.397705078125</ele>
        <time>2013-05-28T18:48:29Z</time>
      </trkpt>
      <trkpt lat="47.724295724183321" lon="11.49219173938036">
        <ele>1295.99462890625</ele>
        <time>2013-05-28T18:48:36Z</time>
      </trkpt>
      <trkpt lat="47.7242761105299" lon="11.492274217307568">
        <ele>1295.99462890625</ele>
        <time>2013-05-28T18:48:42Z</time>
      </trkpt>
      <trkpt lat="47.724254904314876" lon="11.492313947528601">
        <ele>1293.59130859375</ele>
        <time>2013-05-28T18:48:52Z</time>
      </trkpt>
      <trkpt lat="47.724238727241755" lon="11.492308247834444">
        <ele>1293.59130859375</ele>
        <time>2013-05-28T18:49:05Z</time>
      </trkpt>
      <trkpt lat="47.724182233214378" lon="11.492308415472507">
        <ele>1291.66845703125</ele>
        <time>2013-05-28T18:49:14Z</time>
      </trkpt>
      <trkpt lat="47.724177204072475" lon="11.492313276976347">
        <ele>1291.66845703125</ele>
        <time>2013-05-28T18:49:15Z</time>
      </trkpt>
      <trkpt lat="47.724155830219388" lon="11.49237253703177">
        <ele>1290.2265625</ele>
        <time>2013-05-28T18:49:22Z</time>
      </trkpt>
      <trkpt lat="47.724160859361291" lon="11.492381254211068">
        <ele>1290.2265625</ele>
        <time>2013-05-28T18:49:29Z</time>
      </trkpt>
      <trkpt lat="47.724194386973977" lon="11.492535565048456">
        <ele>1288.303955078125</ele>
        <time>2013-05-28T18:49:35Z</time>
      </trkpt>
      <trkpt lat="47.724224310368299" lon="11.492658946663141">
        <ele>1285.900634765625</ele>
        <time>2013-05-28T18:49:40Z</time>
      </trkpt>
      <trkpt lat="47.724226657301188" lon="11.492698425427079">
        <ele>1285.419921875</ele>
        <time>2013-05-28T18:49:41Z</time>
      </trkpt>
      <trkpt lat="47.724173767492175" lon="11.492895651608706">
        <ele>1280.613525390625</ele>
        <time>2013-05-28T18:49:46Z</time>
      </trkpt>
      <trkpt lat="47.724146023392677" lon="11.4929926302284">
        <ele>1279.652099609375</ele>
        <time>2013-05-28T18:49:48Z</time>
      </trkpt>
      <trkpt lat="47.724133618175983" lon="11.493253810331225">
        <ele>1275.806640625</ele>
        <time>2013-05-28T18:49:53Z</time>
      </trkpt>
      <trkpt lat="47.724126325920224" lon="11.493304772302508">
        <ele>1273.403564453125</ele>
        <time>2013-05-28T18:49:54Z</time>
      </trkpt>
      <trkpt lat="47.724103275686502" lon="11.493540806695819">
        <ele>1271.000244140625</ele>
        <time>2013-05-28T18:49:58Z</time>
      </trkpt>
      <trkpt lat="47.724084164947271" lon="11.493827467784286">
        <ele>1268.1162109375</ele>
        <time>2013-05-28T18:50:03Z</time>
      </trkpt>
      <trkpt lat="47.724077962338924" lon="11.493921931833029">
        <ele>1266.67431640625</ele>
        <time>2013-05-28T18:50:05Z</time>
      </trkpt>
      <trkpt lat="47.724086763337255" lon="11.49413114413619">
        <ele>1264.27099609375</ele>
        <time>2013-05-28T18:50:11Z</time>
      </trkpt>
      <trkpt lat="47.724135713651776" lon="11.494303978979588">
        <ele>1261.38720703125</ele>
        <time>2013-05-28T18:50:17Z</time>
      </trkpt>
      <trkpt lat="47.724177790805697" lon="11.494408752769232">
        <ele>1258.983642578125</ele>
        <time>2013-05-28T18:50:20Z</time>
      </trkpt>
      <trkpt lat="47.724235290661454" lon="11.494689965620637">
        <ele>1255.619140625</ele>
        <time>2013-05-28T18:50:27Z</time>
      </trkpt>
      <trkpt lat="47.724229926243424" lon="11.494750566780567">
        <ele>1254.65771484375</ele>
        <time>2013-05-28T18:50:29Z</time>
      </trkpt>
      <trkpt lat="47.724184580147266" lon="11.494931364431977">
        <ele>1251.77392578125</ele>
        <time>2013-05-28T18:50:35Z</time>
      </trkpt>
      <trkpt lat="47.724178209900856" lon="11.494955169036984">
        <ele>1252.25439453125</ele>
        <time>2013-05-28T18:50:36Z</time>
      </trkpt>
      <trkpt lat="47.724198242649436" lon="11.495156334713101">
        <ele>1249.851318359375</ele>
        <time>2013-05-28T18:50:44Z</time>
      </trkpt>
      <trkpt lat="47.724174689501524" lon="11.495379293337464">
        <ele>1249.37060546875</ele>
        <time>2013-05-28T18:50:51Z</time>
      </trkpt>
      <trkpt lat="47.724175443872809" lon="11.495359512045979">
        <ele>1249.37060546875</ele>
        <time>2013-05-28T18:51:05Z</time>
      </trkpt>
      <trkpt lat="47.724154489114881" lon="11.495450790971518">
        <ele>1248.889892578125</ele>
        <time>2013-05-28T18:51:13Z</time>
      </trkpt>
      <trkpt lat="47.724147280678153" lon="11.495401002466679">
        <ele>1248.889892578125</ele>
        <time>2013-05-28T18:51:20Z</time>
      </trkpt>
      <trkpt lat="47.724145017564297" lon="11.495345765724778">
        <ele>1249.37060546875</ele>
        <time>2013-05-28T18:51:30Z</time>
      </trkpt>
      <trkpt lat="47.724144514650106" lon="11.495349453762174">
        <ele>1248.4091796875</ele>
        <time>2013-05-28T18:51:45Z</time>
      </trkpt>
      <trkpt lat="47.724145855754614" lon="11.495349034667015">
        <ele>1249.37060546875</ele>
        <time>2013-05-28T18:51:48Z</time>
      </trkpt>
      <trkpt lat="47.724148957058787" lon="11.495340652763844">
        <ele>1249.37060546875</ele>
        <time>2013-05-28T18:52:04Z</time>
      </trkpt>
      <trkpt lat="47.724135043099523" lon="11.495344843715429">
        <ele>1250.33203125</ele>
        <time>2013-05-28T18:52:38Z</time>
      </trkpt>
      <trkpt lat="47.724132277071476" lon="11.495350208133459">
        <ele>1249.37060546875</ele>
        <time>2013-05-28T18:52:56Z</time>
      </trkpt>
      <trkpt lat="47.724118866026402" lon="11.495340904220939">
        <ele>1249.851318359375</ele>
        <time>2013-05-28T18:53:08Z</time>
      </trkpt>
      <trkpt lat="47.724134037271142" lon="11.495367810130119">
        <ele>1249.37060546875</ele>
        <time>2013-05-28T18:53:13Z</time>
      </trkpt>
      <trkpt lat="47.724121464416385" lon="11.495379460975528">
        <ele>1249.851318359375</ele>
        <time>2013-05-28T18:53:22Z</time>
      </trkpt>
      <trkpt lat="47.724143844097853" lon="11.495372084900737">
        <ele>1249.37060546875</ele>
        <time>2013-05-28T18:53:32Z</time>
      </trkpt>
      <trkpt lat="47.72414761595428" lon="11.495359931141138">
        <ele>1249.851318359375</ele>
        <time>2013-05-28T18:53:52Z</time>
      </trkpt>
      <trkpt lat="47.724144095554948" lon="11.495356662198901">
        <ele>1249.37060546875</ele>
        <time>2013-05-28T18:53:53Z</time>
      </trkpt>
      <trkpt lat="47.724115094169974" lon="11.495293211191893">
        <ele>1250.33203125</ele>
        <time>2013-05-28T18:53:58Z</time>
      </trkpt>
      <trkpt lat="47.724099168553948" lon="11.495157927274704">
        <ele>1251.77392578125</ele>
        <time>2013-05-28T18:54:06Z</time>
      </trkpt>
      <trkpt lat="47.724119955673814" lon="11.495176199823618">
        <ele>1251.77392578125</ele>
        <time>2013-05-28T18:54:15Z</time>
      </trkpt>
      <trkpt lat="47.724137306213379" lon="11.495184162631631">
        <ele>1251.77392578125</ele>
        <time>2013-05-28T18:54:32Z</time>
      </trkpt>
      <trkpt lat="47.724128002300858" lon="11.495192712172866">
        <ele>1251.77392578125</ele>
        <time>2013-05-28T18:54:46Z</time>
      </trkpt>
      <trkpt lat="47.724120290949941" lon="11.495198747143149">
        <ele>1250.33203125</ele>
        <time>2013-05-28T18:54:50Z</time>
      </trkpt>
      <trkpt lat="47.724128840491176" lon="11.495255492627621">
        <ele>1249.37060546875</ele>
        <time>2013-05-28T18:54:54Z</time>
      </trkpt>
      <trkpt lat="47.724164128303528" lon="11.495343586429954">
        <ele>1250.33203125</ele>
        <time>2013-05-28T18:55:00Z</time>
      </trkpt>
      <trkpt lat="47.724160943180323" lon="11.495338222011924">
        <ele>1249.851318359375</ele>
        <time>2013-05-28T18:55:13Z</time>
      </trkpt>
      <trkpt lat="47.724158093333244" lon="11.495344759896398">
        <ele>1249.851318359375</ele>
        <time>2013-05-28T18:55:22Z</time>
      </trkpt>
      <trkpt lat="47.724144430831075" lon="11.495451545342803">
        <ele>1248.889892578125</ele>
        <time>2013-05-28T18:55:30Z</time>
      </trkpt>
      <trkpt lat="47.724157003685832" lon="11.495276279747486">
        <ele>1250.33203125</ele>
        <time>2013-05-28T18:55:41Z</time>
      </trkpt>
      <trkpt lat="47.724161865189672" lon="11.495240237563848">
        <ele>1250.8125</ele>
        <time>2013-05-28T18:55:53Z</time>
      </trkpt>
      <trkpt lat="47.724175862967968" lon="11.495144600048661">
        <ele>1250.33203125</ele>
        <time>2013-05-28T18:56:00Z</time>
      </trkpt>
      <trkpt lat="47.724212743341923" lon="11.495040748268366">
        <ele>1251.293212890625</ele>
        <time>2013-05-28T18:56:06Z</time>
      </trkpt>
      <trkpt lat="47.724215509369969" lon="11.495052985846996">
        <ele>1251.77392578125</ele>
        <time>2013-05-28T18:57:54Z</time>
      </trkpt>
      <trkpt lat="47.72426295094192" lon="11.494992468506098">
        <ele>1250.8125</ele>
        <time>2013-05-28T18:57:59Z</time>
      </trkpt>
      <trkpt lat="47.72437141276896" lon="11.494816783815622">
        <ele>1250.8125</ele>
        <time>2013-05-28T18:58:08Z</time>
      </trkpt>
      <trkpt lat="47.724507618695498" lon="11.494653671979904">
        <ele>1250.33203125</ele>
        <time>2013-05-28T18:58:15Z</time>
      </trkpt>
      <trkpt lat="47.724638963118196" lon="11.494453679770231">
        <ele>1250.33203125</ele>
        <time>2013-05-28T18:58:21Z</time>
      </trkpt>
      <trkpt lat="47.724714400246739" lon="11.494227284565568">
        <ele>1250.8125</ele>
        <time>2013-05-28T18:58:27Z</time>
      </trkpt>
      <trkpt lat="47.724791010841727" lon="11.494034836068749">
        <ele>1254.65771484375</ele>
        <time>2013-05-28T18:58:36Z</time>
      </trkpt>
      <trkpt lat="47.724883547052741" lon="11.493807686492801">
        <ele>1255.138427734375</ele>
        <time>2013-05-28T18:58:46Z</time>
      </trkpt>
      <trkpt lat="47.724965773522854" lon="11.49345145560801">
        <ele>1255.138427734375</ele>
        <time>2013-05-28T18:58:56Z</time>
      </trkpt>
      <trkpt lat="47.725046826526523" lon="11.493200836703181">
        <ele>1254.65771484375</ele>
        <time>2013-05-28T18:59:03Z</time>
      </trkpt>
      <trkpt lat="47.725095441564918" lon="11.49307468906045">
        <ele>1251.293212890625</ele>
        <time>2013-05-28T18:59:06Z</time>
      </trkpt>
      <trkpt lat="47.725267186760902" lon="11.492699012160301">
        <ele>1251.77392578125</ele>
        <time>2013-05-28T18:59:12Z</time>
      </trkpt>
      <trkpt lat="47.725360225886106" lon="11.492514945566654">
        <ele>1251.293212890625</ele>
        <time>2013-05-28T18:59:16Z</time>
      </trkpt>
      <trkpt lat="47.72542929276824" lon="11.492408076301217">
        <ele>1248.889892578125</ele>
        <time>2013-05-28T18:59:19Z</time>
      </trkpt>
      <trkpt lat="47.725492576137185" lon="11.492228284478188">
        <ele>1247.447998046875</ele>
        <time>2013-05-28T18:59:23Z</time>
      </trkpt>
      <trkpt lat="47.725593410432339" lon="11.491980766877532">
        <ele>1247.9287109375</ele>
        <time>2013-05-28T18:59:29Z</time>
      </trkpt>
      <trkpt lat="47.725647138431668" lon="11.491804243996739">
        <ele>1248.4091796875</ele>
        <time>2013-05-28T18:59:34Z</time>
      </trkpt>
      <trkpt lat="47.725658705458045" lon="11.491739535704255">
        <ele>1247.9287109375</ele>
        <time>2013-05-28T18:59:36Z</time>
      </trkpt>
      <trkpt lat="47.725743195042014" lon="11.491508111357689">
        <ele>1248.889892578125</ele>
        <time>2013-05-28T18:59:41Z</time>
      </trkpt>
      <trkpt lat="47.725807735696435" lon="11.491233939304948">
        <ele>1248.889892578125</ele>
        <time>2013-05-28T18:59:48Z</time>
      </trkpt>
      <trkpt lat="47.725883424282074" lon="11.491072503849864">
        <ele>1248.4091796875</ele>
        <time>2013-05-28T18:59:53Z</time>
      </trkpt>
      <trkpt lat="47.725899098441005" lon="11.491046268492937">
        <ele>1248.889892578125</ele>
        <time>2013-05-28T18:59:54Z</time>
      </trkpt>
      <trkpt lat="47.725949138402939" lon="11.490915510803461">
        <ele>1247.9287109375</ele>
        <time>2013-05-28T19:00:00Z</time>
      </trkpt>
      <trkpt lat="47.72612314671278" lon="11.490856502205133">
        <ele>1245.044677734375</ele>
        <time>2013-05-28T19:00:06Z</time>
      </trkpt>
      <trkpt lat="47.726205624639988" lon="11.490842588245869">
        <ele>1243.121826171875</ele>
        <time>2013-05-28T19:00:08Z</time>
      </trkpt>
      <trkpt lat="47.726300256326795" lon="11.490803193300962">
        <ele>1242.16064453125</ele>
        <time>2013-05-28T19:00:10Z</time>
      </trkpt>
      <trkpt lat="47.726398156955838" lon="11.490756757557392">
        <ele>1242.641357421875</ele>
        <time>2013-05-28T19:00:12Z</time>
      </trkpt>
      <trkpt lat="47.726646428927779" lon="11.490592723712325">
        <ele>1238.3154296875</ele>
        <time>2013-05-28T19:00:16Z</time>
      </trkpt>
      <trkpt lat="47.72682529874146" lon="11.490540336817503">
        <ele>1237.35400390625</ele>
        <time>2013-05-28T19:00:18Z</time>
      </trkpt>
      <trkpt lat="47.727105086669326" lon="11.490462385118008">
        <ele>1234.950927734375</ele>
        <time>2013-05-28T19:00:22Z</time>
      </trkpt>
      <trkpt lat="47.727322094142437" lon="11.490348223596811">
        <ele>1236.873291015625</ele>
        <time>2013-05-28T19:00:25Z</time>
      </trkpt>
      <trkpt lat="47.727517141029239" lon="11.490099867805839">
        <ele>1241.19921875</ele>
        <time>2013-05-28T19:00:30Z</time>
      </trkpt>
      <trkpt lat="47.727537006139755" lon="11.49005938321352">
        <ele>1241.679931640625</ele>
        <time>2013-05-28T19:00:32Z</time>
      </trkpt>
      <trkpt lat="47.727553602308035" lon="11.490027364343405">
        <ele>1242.16064453125</ele>
        <time>2013-05-28T19:00:33Z</time>
      </trkpt>
      <trkpt lat="47.727660639211535" lon="11.48993575014174">
        <ele>1242.16064453125</ele>
        <time>2013-05-28T19:00:37Z</time>
      </trkpt>
      <trkpt lat="47.727767005562782" lon="11.489862073212862">
        <ele>1240.238037109375</ele>
        <time>2013-05-28T19:00:41Z</time>
      </trkpt>
      <trkpt lat="47.727796090766788" lon="11.489847572520375">
        <ele>1238.796142578125</ele>
        <time>2013-05-28T19:00:43Z</time>
      </trkpt>
      <trkpt lat="47.727896338328719" lon="11.489793593063951">
        <ele>1235.912109375</ele>
        <time>2013-05-28T19:00:48Z</time>
      </trkpt>
      <trkpt lat="47.728001363575459" lon="11.489777751266956">
        <ele>1232.06689453125</ele>
        <time>2013-05-28T19:00:52Z</time>
      </trkpt>
      <trkpt lat="47.728049978613853" lon="11.489789569750428">
        <ele>1230.625</ele>
        <time>2013-05-28T19:00:53Z</time>
      </trkpt>
      <trkpt lat="47.728174617514014" lon="11.48983852006495">
        <ele>1225.818115234375</ele>
        <time>2013-05-28T19:00:55Z</time>
      </trkpt>
      <trkpt lat="47.728387769311666" lon="11.489935833960772">
        <ele>1222.934326171875</ele>
        <time>2013-05-28T19:00:58Z</time>
      </trkpt>
      <trkpt lat="47.728535290807486" lon="11.490007834509015">
        <ele>1220.531005859375</ele>
        <time>2013-05-28T19:01:00Z</time>
      </trkpt>
      <trkpt lat="47.728682309389114" lon="11.490069692954421">
        <ele>1219.56982421875</ele>
        <time>2013-05-28T19:01:02Z</time>
      </trkpt>
      <trkpt lat="47.728753136470914" lon="11.490099364891648">
        <ele>1218.127685546875</ele>
        <time>2013-05-28T19:01:03Z</time>
      </trkpt>
      <trkpt lat="47.728971652686596" lon="11.490251496434212">
        <ele>1210.917724609375</ele>
        <time>2013-05-28T19:01:06Z</time>
      </trkpt>
      <trkpt lat="47.729048347100616" lon="11.490327939391136">
        <ele>1208.514404296875</ele>
        <time>2013-05-28T19:01:07Z</time>
      </trkpt>
      <trkpt lat="47.729215482249856" lon="11.490479484200478">
        <ele>1206.591796875</ele>
        <time>2013-05-28T19:01:09Z</time>
      </trkpt>
      <trkpt lat="47.729293601587415" lon="11.490542851388454">
        <ele>1208.033935546875</ele>
        <time>2013-05-28T19:01:10Z</time>
      </trkpt>
      <trkpt lat="47.729668272659183" lon="11.490794895216823">
        <ele>1202.74658203125</ele>
        <time>2013-05-28T19:01:15Z</time>
      </trkpt>
      <trkpt lat="47.729845382273197" lon="11.490843594074249">
        <ele>1204.669189453125</ele>
        <time>2013-05-28T19:01:17Z</time>
      </trkpt>
      <trkpt lat="47.730185855180025" lon="11.491153389215469">
        <ele>1203.227294921875</ele>
        <time>2013-05-28T19:01:23Z</time>
      </trkpt>
      <trkpt lat="47.730206055566669" lon="11.491182474419475">
        <ele>1203.7080078125</ele>
        <time>2013-05-28T19:01:24Z</time>
      </trkpt>
      <trkpt lat="47.730239164084196" lon="11.491268221288919">
        <ele>1203.7080078125</ele>
        <time>2013-05-28T19:01:31Z</time>
      </trkpt>
      <trkpt lat="47.730249892920256" lon="11.491267047822475">
        <ele>1203.7080078125</ele>
        <time>2013-05-28T19:01:42Z</time>
      </trkpt>
      <trkpt lat="47.730541164055467" lon="11.491323374211788">
        <ele>1202.74658203125</ele>
        <time>2013-05-28T19:01:48Z</time>
      </trkpt>
      <trkpt lat="47.73056915961206" lon="11.491350280120969">
        <ele>1202.74658203125</ele>
        <time>2013-05-28T19:02:06Z</time>
      </trkpt>
      <trkpt lat="47.73058969527483" lon="11.491374503821135">
        <ele>1203.227294921875</ele>
        <time>2013-05-28T19:02:12Z</time>
      </trkpt>
      <trkpt lat="47.73059363476932" lon="11.491376012563705">
        <ele>1202.74658203125</ele>
        <time>2013-05-28T19:02:20Z</time>
      </trkpt>
      <trkpt lat="47.730617355555296" lon="11.491485396400094">
        <ele>1202.265869140625</ele>
        <time>2013-05-28T19:02:25Z</time>
      </trkpt>
      <trkpt lat="47.730740066617727" lon="11.491796616464853">
        <ele>1202.74658203125</ele>
        <time>2013-05-28T19:02:32Z</time>
      </trkpt>
      <trkpt lat="47.730873422697186" lon="11.492106076329947">
        <ele>1201.3046875</ele>
        <time>2013-05-28T19:02:39Z</time>
      </trkpt>
      <trkpt lat="47.730892030522227" lon="11.49216583929956">
        <ele>1201.3046875</ele>
        <time>2013-05-28T19:02:40Z</time>
      </trkpt>
      <trkpt lat="47.731067547574639" lon="11.492516286671162">
        <ele>1198.9013671875</ele>
        <time>2013-05-28T19:02:46Z</time>
      </trkpt>
      <trkpt lat="47.731275921687484" lon="11.492995899170637">
        <ele>1198.420654296875</ele>
        <time>2013-05-28T19:02:52Z</time>
      </trkpt>
      <trkpt lat="47.731351191177964" lon="11.493117101490498">
        <ele>1199.382080078125</ele>
        <time>2013-05-28T19:02:54Z</time>
      </trkpt>
      <trkpt lat="47.731491252779961" lon="11.493425974622369">
        <ele>1200.343505859375</ele>
        <time>2013-05-28T19:02:59Z</time>
      </trkpt>
      <trkpt lat="47.731570126488805" lon="11.49355698376894">
        <ele>1200.343505859375</ele>
        <time>2013-05-28T19:03:02Z</time>
      </trkpt>
      <trkpt lat="47.731890399008989" lon="11.49398747831583">
        <ele>1200.343505859375</ele>
        <time>2013-05-28T19:03:09Z</time>
      </trkpt>
      <trkpt lat="47.732192482799292" lon="11.49440229870379">
        <ele>1200.343505859375</ele>
        <time>2013-05-28T19:03:16Z</time>
      </trkpt>
      <trkpt lat="47.73228962905705" lon="11.494594579562545">
        <ele>1200.823974609375</ele>
        <time>2013-05-28T19:03:19Z</time>
      </trkpt>
      <trkpt lat="47.732584588229656" lon="11.494934801012278">
        <ele>1199.86279296875</ele>
        <time>2013-05-28T19:03:26Z</time>
      </trkpt>
      <trkpt lat="47.733068140223622" lon="11.495494628325105">
        <ele>1199.86279296875</ele>
        <time>2013-05-28T19:03:35Z</time>
      </trkpt>
      <trkpt lat="47.73360944353044" lon="11.496217651292682">
        <ele>1201.3046875</ele>
        <time>2013-05-28T19:03:48Z</time>
      </trkpt>
      <trkpt lat="47.733784038573503" lon="11.496451422572136">
        <ele>1202.74658203125</ele>
        <time>2013-05-28T19:03:53Z</time>
      </trkpt>
      <trkpt lat="47.734224423766136" lon="11.49677999317646">
        <ele>1204.669189453125</ele>
        <time>2013-05-28T19:04:03Z</time>
      </trkpt>
      <trkpt lat="47.7343575283885" lon="11.496923072263598">
        <ele>1205.630615234375</ele>
        <time>2013-05-28T19:04:07Z</time>
      </trkpt>
      <trkpt lat="47.734548049047589" lon="11.497258767485619">
        <ele>1204.669189453125</ele>
        <time>2013-05-28T19:04:16Z</time>
      </trkpt>
      <trkpt lat="47.734683249145746" lon="11.497531766071916">
        <ele>1202.74658203125</ele>
        <time>2013-05-28T19:04:23Z</time>
      </trkpt>
      <trkpt lat="47.734719710424542" lon="11.4976448379457">
        <ele>1202.74658203125</ele>
        <time>2013-05-28T19:04:30Z</time>
      </trkpt>
      <trkpt lat="47.734707640483975" lon="11.497631343081594">
        <ele>1202.265869140625</ele>
        <time>2013-05-28T19:05:39Z</time>
      </trkpt>
      <trkpt lat="47.73473865352571" lon="11.497705355286598">
        <ele>1201.3046875</ele>
        <time>2013-05-28T19:05:43Z</time>
      </trkpt>
      <trkpt lat="47.734858682379127" lon="11.498022610321641">
        <ele>1199.86279296875</ele>
        <time>2013-05-28T19:05:51Z</time>
      </trkpt>
      <trkpt lat="47.734918277710676" lon="11.498254789039493">
        <ele>1198.420654296875</ele>
        <time>2013-05-28T19:05:59Z</time>
      </trkpt>
      <trkpt lat="47.734905369579792" lon="11.498242300003767">
        <ele>1198.420654296875</ele>
        <time>2013-05-28T19:06:15Z</time>
      </trkpt>
      <trkpt lat="47.734926156699657" lon="11.49833332747221">
        <ele>1196.978759765625</ele>
        <time>2013-05-28T19:07:14Z</time>
      </trkpt>
      <trkpt lat="47.734979717060924" lon="11.49853466078639">
        <ele>1196.017578125</ele>
        <time>2013-05-28T19:07:21Z</time>
      </trkpt>
      <trkpt lat="47.735051549971104" lon="11.498788297176361">
        <ele>1193.13330078125</ele>
        <time>2013-05-28T19:07:27Z</time>
      </trkpt>
      <trkpt lat="47.735099997371435" lon="11.499097421765327">
        <ele>1188.326904296875</ele>
        <time>2013-05-28T19:07:31Z</time>
      </trkpt>
      <trkpt lat="47.735103433951735" lon="11.499294647946954">
        <ele>1184.96240234375</ele>
        <time>2013-05-28T19:07:33Z</time>
      </trkpt>
      <trkpt lat="47.735097398981452" lon="11.499588266015053">
        <ele>1182.078369140625</ele>
        <time>2013-05-28T19:07:36Z</time>
      </trkpt>
      <trkpt lat="47.734974855557084" lon="11.499835448339581">
        <ele>1181.59765625</ele>
        <time>2013-05-28T19:07:40Z</time>
      </trkpt>
      <trkpt lat="47.734852898865938" lon="11.499851876869798">
        <ele>1181.59765625</ele>
        <time>2013-05-28T19:07:42Z</time>
      </trkpt>
      <trkpt lat="47.734766397625208" lon="11.499831425026059">
        <ele>1183.03955078125</ele>
        <time>2013-05-28T19:07:45Z</time>
      </trkpt>
      <trkpt lat="47.734705628827214" lon="11.499833855777979">
        <ele>1183.03955078125</ele>
        <time>2013-05-28T19:07:48Z</time>
      </trkpt>
      <trkpt lat="47.734659612178802" lon="11.499758418649435">
        <ele>1183.03955078125</ele>
        <time>2013-05-28T19:07:55Z</time>
      </trkpt>
      <trkpt lat="47.734661288559437" lon="11.499796807765961">
        <ele>1183.520263671875</ele>
        <time>2013-05-28T19:08:00Z</time>
      </trkpt>
      <trkpt lat="47.734667574986815" lon="11.499872412532568">
        <ele>1184.0009765625</ele>
        <time>2013-05-28T19:08:04Z</time>
      </trkpt>
      <trkpt lat="47.734571266919374" lon="11.499891523271799">
        <ele>1184.96240234375</ele>
        <time>2013-05-28T19:08:12Z</time>
      </trkpt>
      <trkpt lat="47.734430870041251" lon="11.499932007864118">
        <ele>1184.96240234375</ele>
        <time>2013-05-28T19:08:18Z</time>
      </trkpt>
      <trkpt lat="47.734351074323058" lon="11.499977521598339">
        <ele>1185.44287109375</ele>
        <time>2013-05-28T19:08:20Z</time>
      </trkpt>
      <trkpt lat="47.734169773757458" lon="11.500115068629384">
        <ele>1186.404296875</ele>
        <time>2013-05-28T19:08:25Z</time>
      </trkpt>
      <trkpt lat="47.734152674674988" lon="11.50013443082571">
        <ele>1186.404296875</ele>
        <time>2013-05-28T19:08:26Z</time>
      </trkpt>
      <trkpt lat="47.733965422958136" lon="11.500411201268435">
        <ele>1187.84619140625</ele>
        <time>2013-05-28T19:08:34Z</time>
      </trkpt>
      <trkpt lat="47.733756965026259" lon="11.500774975866079">
        <ele>1189.2880859375</ele>
        <time>2013-05-28T19:08:42Z</time>
      </trkpt>
      <trkpt lat="47.733643222600222" lon="11.501087872311473">
        <ele>1190.72998046875</ele>
        <time>2013-05-28T19:08:49Z</time>
      </trkpt>
      <trkpt lat="47.733582118526101" lon="11.50126020424068">
        <ele>1191.210693359375</ele>
        <time>2013-05-28T19:08:53Z</time>
      </trkpt>
      <trkpt lat="47.733674487099051" lon="11.501645939424634">
        <ele>1191.69140625</ele>
        <time>2013-05-28T19:09:02Z</time>
      </trkpt>
      <trkpt lat="47.73384447209537" lon="11.502054054290056">
        <ele>1191.69140625</ele>
        <time>2013-05-28T19:09:09Z</time>
      </trkpt>
      <trkpt lat="47.733923010528088" lon="11.502199061214924">
        <ele>1194.0947265625</ele>
        <time>2013-05-28T19:09:15Z</time>
      </trkpt>
      <trkpt lat="47.733931811526418" lon="11.502214064821601">
        <ele>1193.614013671875</ele>
        <time>2013-05-28T19:09:33Z</time>
      </trkpt>
      <trkpt lat="47.733974391594529" lon="11.502330070361495">
        <ele>1194.0947265625</ele>
        <time>2013-05-28T19:09:40Z</time>
      </trkpt>
      <trkpt lat="47.734047314152122" lon="11.502473820000887">
        <ele>1194.5751953125</ele>
        <time>2013-05-28T19:09:46Z</time>
      </trkpt>
      <trkpt lat="47.734175976365805" lon="11.502711363136768">
        <ele>1195.53662109375</ele>
        <time>2013-05-28T19:09:54Z</time>
      </trkpt>
      <trkpt lat="47.73434923030436" lon="11.503142025321722">
        <ele>1196.017578125</ele>
        <time>2013-05-28T19:10:05Z</time>
      </trkpt>
      <trkpt lat="47.734475377947092" lon="11.503402115777135">
        <ele>1197.45947265625</ele>
        <time>2013-05-28T19:10:14Z</time>
      </trkpt>
      <trkpt lat="47.734543941915035" lon="11.503661116585135">
        <ele>1199.86279296875</ele>
        <time>2013-05-28T19:10:24Z</time>
      </trkpt>
      <trkpt lat="47.73459448479116" lon="11.503869406878948">
        <ele>1202.74658203125</ele>
        <time>2013-05-28T19:10:35Z</time>
      </trkpt>
      <trkpt lat="47.734632287174463" lon="11.5040048584342">
        <ele>1204.188720703125</ele>
        <time>2013-05-28T19:10:42Z</time>
      </trkpt>
      <trkpt lat="47.734623150900006" lon="11.504169646650553">
        <ele>1207.072509765625</ele>
        <time>2013-05-28T19:10:50Z</time>
      </trkpt>
      <trkpt lat="47.734613846987486" lon="11.504285400733352">
        <ele>1208.514404296875</ele>
        <time>2013-05-28T19:10:57Z</time>
      </trkpt>
      <trkpt lat="47.734590545296669" lon="11.504397131502628">
        <ele>1209.956298828125</ele>
        <time>2013-05-28T19:11:03Z</time>
      </trkpt>
      <trkpt lat="47.734572859480977" lon="11.504587484523654">
        <ele>1212.35986328125</ele>
        <time>2013-05-28T19:11:13Z</time>
      </trkpt>
      <trkpt lat="47.734520891681314" lon="11.50473777204752">
        <ele>1215.243896484375</ele>
        <time>2013-05-28T19:11:24Z</time>
      </trkpt>
      <trkpt lat="47.73451142013073" lon="11.504767360165715">
        <ele>1215.724609375</ele>
        <time>2013-05-28T19:11:26Z</time>
      </trkpt>
      <trkpt lat="47.734469678252935" lon="11.504959389567375">
        <ele>1219.089111328125</ele>
        <time>2013-05-28T19:11:37Z</time>
      </trkpt>
      <trkpt lat="47.734416536986828" lon="11.505134236067533">
        <ele>1221.4921875</ele>
        <time>2013-05-28T19:11:46Z</time>
      </trkpt>
      <trkpt lat="47.73437756113708" lon="11.505207074806094">
        <ele>1223.4150390625</ele>
        <time>2013-05-28T19:11:53Z</time>
      </trkpt>
      <trkpt lat="47.734319223091006" lon="11.505363397300243">
        <ele>1225.33740234375</ele>
        <time>2013-05-28T19:12:04Z</time>
      </trkpt>
      <trkpt lat="47.734243450686336" lon="11.505603035911918">
        <ele>1227.74072265625</ele>
        <time>2013-05-28T19:12:15Z</time>
      </trkpt>
      <trkpt lat="47.73419039323926" lon="11.505778301507235">
        <ele>1228.702392578125</ele>
        <time>2013-05-28T19:12:24Z</time>
      </trkpt>
      <trkpt lat="47.734140018001199" lon="11.505932947620749">
        <ele>1230.144287109375</ele>
        <time>2013-05-28T19:12:32Z</time>
      </trkpt>
      <trkpt lat="47.7340985275805" lon="11.50606588460505">
        <ele>1230.625</ele>
        <time>2013-05-28T19:12:40Z</time>
      </trkpt>
      <trkpt lat="47.733996771275997" lon="11.506215920671821">
        <ele>1231.105712890625</ele>
        <time>2013-05-28T19:12:47Z</time>
      </trkpt>
      <trkpt lat="47.733950922265649" lon="11.506246514618397">
        <ele>1232.06689453125</ele>
        <time>2013-05-28T19:12:51Z</time>
      </trkpt>
      <trkpt lat="47.733841873705387" lon="11.506270486861467">
        <ele>1232.547607421875</ele>
        <time>2013-05-28T19:12:59Z</time>
      </trkpt>
      <trkpt lat="47.733820751309395" lon="11.506277695298195">
        <ele>1233.5087890625</ele>
        <time>2013-05-28T19:13:01Z</time>
      </trkpt>
      <trkpt lat="47.733785044401884" lon="11.506340727210045">
        <ele>1233.028076171875</ele>
        <time>2013-05-28T19:13:05Z</time>
      </trkpt>
      <trkpt lat="47.733772890642285" lon="11.506564104929566">
        <ele>1235.431396484375</ele>
        <time>2013-05-28T19:13:14Z</time>
      </trkpt>
      <trkpt lat="47.733771298080683" lon="11.506580449640751">
        <ele>1235.912109375</ele>
        <time>2013-05-28T19:13:15Z</time>
      </trkpt>
      <trkpt lat="47.733765514567494" lon="11.506813047453761">
        <ele>1238.3154296875</ele>
        <time>2013-05-28T19:13:26Z</time>
      </trkpt>
      <trkpt lat="47.733697034418583" lon="11.506948666647077">
        <ele>1238.3154296875</ele>
        <time>2013-05-28T19:13:35Z</time>
      </trkpt>
      <trkpt lat="47.733640121296048" lon="11.507026702165604">
        <ele>1239.276611328125</ele>
        <time>2013-05-28T19:13:42Z</time>
      </trkpt>
      <trkpt lat="47.733658645302057" lon="11.507066851481795">
        <ele>1239.276611328125</ele>
        <time>2013-05-28T19:14:04Z</time>
      </trkpt>
      <trkpt lat="47.733628638088703" lon="11.507108425721526">
        <ele>1239.276611328125</ele>
        <time>2013-05-28T19:14:20Z</time>
      </trkpt>
      <trkpt lat="47.733619585633278" lon="11.507169110700488">
        <ele>1239.75732421875</ele>
        <time>2013-05-28T19:14:30Z</time>
      </trkpt>
      <trkpt lat="47.733615059405565" lon="11.507145809009671">
        <ele>1239.276611328125</ele>
        <time>2013-05-28T19:14:37Z</time>
      </trkpt>
      <trkpt lat="47.733618998900056" lon="11.50712426751852">
        <ele>1239.276611328125</ele>
        <time>2013-05-28T19:14:45Z</time>
      </trkpt>
      <trkpt lat="47.73362117819488" lon="11.507118986919522">
        <ele>1239.75732421875</ele>
        <time>2013-05-28T19:14:58Z</time>
      </trkpt>
      <trkpt lat="47.733556302264333" lon="11.507081352174282">
        <ele>1238.796142578125</ele>
        <time>2013-05-28T19:15:05Z</time>
      </trkpt>
      <trkpt lat="47.733471896499395" lon="11.507272208109498">
        <ele>1236.873291015625</ele>
        <time>2013-05-28T19:15:11Z</time>
      </trkpt>
      <trkpt lat="47.733417749404907" lon="11.507432134822011">
        <ele>1235.431396484375</ele>
        <time>2013-05-28T19:15:14Z</time>
      </trkpt>
      <trkpt lat="47.733379947021604" lon="11.507558450102806">
        <ele>1232.06689453125</ele>
        <time>2013-05-28T19:15:16Z</time>
      </trkpt>
      <trkpt lat="47.733340300619602" lon="11.507699768990278">
        <ele>1231.105712890625</ele>
        <time>2013-05-28T19:15:18Z</time>
      </trkpt>
      <trkpt lat="47.733290176838636" lon="11.507930355146527">
        <ele>1227.74072265625</ele>
        <time>2013-05-28T19:15:21Z</time>
      </trkpt>
      <trkpt lat="47.733266120776534" lon="11.508095897734165">
        <ele>1225.33740234375</ele>
        <time>2013-05-28T19:15:23Z</time>
      </trkpt>
      <trkpt lat="47.733176769688725" lon="11.508452463895082">
        <ele>1219.56982421875</ele>
        <time>2013-05-28T19:15:26Z</time>
      </trkpt>
      <trkpt lat="47.732974011451006" lon="11.508825123310089">
        <ele>1217.16650390625</ele>
        <time>2013-05-28T19:15:31Z</time>
      </trkpt>
      <trkpt lat="47.732878709211946" lon="11.509083705022931">
        <ele>1213.3212890625</ele>
        <time>2013-05-28T19:15:34Z</time>
      </trkpt>
      <trkpt lat="47.732772845774889" lon="11.509457370266318">
        <ele>1208.514404296875</ele>
        <time>2013-05-28T19:15:37Z</time>
      </trkpt>
      <trkpt lat="47.732745353132486" lon="11.509589720517397">
        <ele>1208.514404296875</ele>
        <time>2013-05-28T19:15:38Z</time>
      </trkpt>
      <trkpt lat="47.732721548527479" lon="11.509717544540763">
        <ele>1208.033935546875</ele>
        <time>2013-05-28T19:15:39Z</time>
      </trkpt>
      <trkpt lat="47.732553072273731" lon="11.510162623599172">
        <ele>1204.188720703125</ele>
        <time>2013-05-28T19:15:43Z</time>
      </trkpt>
      <trkpt lat="47.732115872204304" lon="11.51068976148963">
        <ele>1200.343505859375</ele>
        <time>2013-05-28T19:15:50Z</time>
      </trkpt>
      <trkpt lat="47.73184547200799" lon="11.511018248274922">
        <ele>1196.498291015625</ele>
        <time>2013-05-28T19:15:54Z</time>
      </trkpt>
      <trkpt lat="47.731769951060414" lon="11.511105336248875">
        <ele>1196.498291015625</ele>
        <time>2013-05-28T19:15:55Z</time>
      </trkpt>
      <trkpt lat="47.731500640511513" lon="11.511578159406781">
        <ele>1197.940185546875</ele>
        <time>2013-05-28T19:16:00Z</time>
      </trkpt>
      <trkpt lat="47.731343815103173" lon="11.5118189714849">
        <ele>1199.382080078125</ele>
        <time>2013-05-28T19:16:04Z</time>
      </trkpt>
      <trkpt lat="47.731196125969291" lon="11.511929277330637">
        <ele>1199.86279296875</ele>
        <time>2013-05-28T19:16:07Z</time>
      </trkpt>
      <trkpt lat="47.730934023857117" lon="11.51225533336401">
        <ele>1202.74658203125</ele>
        <time>2013-05-28T19:16:14Z</time>
      </trkpt>
      <trkpt lat="47.730899071320891" lon="11.512272180989385">
        <ele>1202.74658203125</ele>
        <time>2013-05-28T19:16:15Z</time>
      </trkpt>
      <trkpt lat="47.730697821825743" lon="11.512304954230785">
        <ele>1203.7080078125</ele>
        <time>2013-05-28T19:16:21Z</time>
      </trkpt>
      <trkpt lat="47.730391379445791" lon="11.51226413436234">
        <ele>1203.227294921875</ele>
        <time>2013-05-28T19:16:29Z</time>
      </trkpt>
      <trkpt lat="47.730350727215409" lon="11.512280395254493">
        <ele>1203.227294921875</ele>
        <time>2013-05-28T19:16:30Z</time>
      </trkpt>
      <trkpt lat="47.730206055566669" lon="11.512337224557996">
        <ele>1199.382080078125</ele>
        <time>2013-05-28T19:16:33Z</time>
      </trkpt>
      <trkpt lat="47.73008543998003" lon="11.512389862909913">
        <ele>1196.017578125</ele>
        <time>2013-05-28T19:16:36Z</time>
      </trkpt>
      <trkpt lat="47.729926183819771" lon="11.512457337230444">
        <ele>1192.172119140625</ele>
        <time>2013-05-28T19:16:40Z</time>
      </trkpt>
      <trkpt lat="47.729835156351328" lon="11.512481896206737">
        <ele>1187.365478515625</ele>
        <time>2013-05-28T19:16:42Z</time>
      </trkpt>
      <trkpt lat="47.729726443067193" lon="11.512456499040127">
        <ele>1183.520263671875</ele>
        <time>2013-05-28T19:16:44Z</time>
      </trkpt>
      <trkpt lat="47.729674139991403" lon="11.512435879558325">
        <ele>1182.55908203125</ele>
        <time>2013-05-28T19:16:45Z</time>
      </trkpt>
      <trkpt lat="47.729455037042499" lon="11.512349545955658">
        <ele>1176.791015625</ele>
        <time>2013-05-28T19:16:50Z</time>
      </trkpt>
      <trkpt lat="47.729336600750685" lon="11.512423558160663">
        <ele>1175.82958984375</ele>
        <time>2013-05-28T19:16:55Z</time>
      </trkpt>
      <trkpt lat="47.729257475584745" lon="11.512477621436119">
        <ele>1175.348876953125</ele>
        <time>2013-05-28T19:17:22Z</time>
      </trkpt>
      <trkpt lat="47.729238867759705" lon="11.512494804337621">
        <ele>1175.82958984375</ele>
        <time>2013-05-28T19:17:31Z</time>
      </trkpt>
      <trkpt lat="47.729200311005116" lon="11.512552555650473">
        <ele>1176.310302734375</ele>
        <time>2013-05-28T19:17:37Z</time>
      </trkpt>
      <trkpt lat="47.72916586138308" lon="11.512543335556984">
        <ele>1175.348876953125</ele>
        <time>2013-05-28T19:17:43Z</time>
      </trkpt>
      <trkpt lat="47.729114480316639" lon="11.512555321678519">
        <ele>1176.310302734375</ele>
        <time>2013-05-28T19:17:50Z</time>
      </trkpt>
      <trkpt lat="47.728985231369734" lon="11.51261449791491">
        <ele>1177.271728515625</ele>
        <time>2013-05-28T19:18:02Z</time>
      </trkpt>
      <trkpt lat="47.728892024606466" lon="11.512691359966993">
        <ele>1181.1171875</ele>
        <time>2013-05-28T19:18:15Z</time>
      </trkpt>
      <trkpt lat="47.728843996301293" lon="11.512700580060482">
        <ele>1184.0009765625</ele>
        <time>2013-05-28T19:18:30Z</time>
      </trkpt>
      <trkpt lat="47.728834021836519" lon="11.512714242562652">
        <ele>1186.404296875</ele>
        <time>2013-05-28T19:18:40Z</time>
      </trkpt>
      <trkpt lat="47.728771241381764" lon="11.512826811522245">
        <ele>1188.326904296875</ele>
        <time>2013-05-28T19:18:57Z</time>
      </trkpt>
      <trkpt lat="47.728705108165741" lon="11.512792529538274">
        <ele>1189.768798828125</ele>
        <time>2013-05-28T19:19:07Z</time>
      </trkpt>
      <trkpt lat="47.72864693775773" lon="11.512778112664819">
        <ele>1192.65283203125</ele>
        <time>2013-05-28T19:19:17Z</time>
      </trkpt>
      <trkpt lat="47.728591952472925" lon="11.512835696339607">
        <ele>1194.5751953125</ele>
        <time>2013-05-28T19:19:26Z</time>
      </trkpt>
      <trkpt lat="47.728532943874598" lon="11.512895124033093">
        <ele>1196.978759765625</ele>
        <time>2013-05-28T19:19:37Z</time>
      </trkpt>
      <trkpt lat="47.728534787893295" lon="11.512897638604045">
        <ele>1196.978759765625</ele>
        <time>2013-05-28T19:19:38Z</time>
      </trkpt>
      <trkpt lat="47.728437641635537" lon="11.512863440439105">
        <ele>1200.343505859375</ele>
        <time>2013-05-28T19:19:54Z</time>
      </trkpt>
      <trkpt lat="47.728410568088293" lon="11.512837707996368">
        <ele>1201.3046875</ele>
        <time>2013-05-28T19:20:01Z</time>
      </trkpt>
      <trkpt lat="47.728388356044888" lon="11.512900236994028">
        <ele>1203.227294921875</ele>
        <time>2013-05-28T19:20:12Z</time>
      </trkpt>
      <trkpt lat="47.728346949443221" lon="11.512961341068149">
        <ele>1204.669189453125</ele>
        <time>2013-05-28T19:20:21Z</time>
      </trkpt>
      <trkpt lat="47.728271679952741" lon="11.512900656089187">
        <ele>1206.591796875</ele>
        <time>2013-05-28T19:20:31Z</time>
      </trkpt>
      <trkpt lat="47.728211665526032" lon="11.512885568663478">
        <ele>1208.9951171875</ele>
        <time>2013-05-28T19:20:42Z</time>
      </trkpt>
      <trkpt lat="47.728153662756085" lon="11.512971986085176">
        <ele>1211.879150390625</ele>
        <time>2013-05-28T19:20:55Z</time>
      </trkpt>
      <trkpt lat="47.728122733533382" lon="11.513011045753956">
        <ele>1213.8017578125</ele>
        <time>2013-05-28T19:21:02Z</time>
      </trkpt>
      <trkpt lat="47.728070598095655" lon="11.513062259182334">
        <ele>1214.76318359375</ele>
        <time>2013-05-28T19:21:09Z</time>
      </trkpt>
      <trkpt lat="47.727936236187816" lon="11.513200309127569">
        <ele>1216.685791015625</ele>
        <time>2013-05-28T19:21:26Z</time>
      </trkpt>
      <trkpt lat="47.727805059403181" lon="11.513301143422723">
        <ele>1217.16650390625</ele>
        <time>2013-05-28T19:21:40Z</time>
      </trkpt>
      <trkpt lat="47.72773708216846" lon="11.513358391821384">
        <ele>1216.685791015625</ele>
        <time>2013-05-28T19:21:52Z</time>
      </trkpt>
      <trkpt lat="47.727743536233902" lon="11.513340622186661">
        <ele>1217.16650390625</ele>
        <time>2013-05-28T19:22:01Z</time>
      </trkpt>
      <trkpt lat="47.72776935249567" lon="11.513344058766961">
        <ele>1217.16650390625</ele>
        <time>2013-05-28T19:22:08Z</time>
      </trkpt>
      <trkpt lat="47.727779746055603" lon="11.513339700177312">
        <ele>1216.685791015625</ele>
        <time>2013-05-28T19:22:31Z</time>
      </trkpt>
      <trkpt lat="47.72778108716011" lon="11.51334011927247">
        <ele>1217.16650390625</ele>
        <time>2013-05-28T19:23:00Z</time>
      </trkpt>
      <trkpt lat="47.727778740227222" lon="11.513338945806026">
        <ele>1216.685791015625</ele>
        <time>2013-05-28T19:23:31Z</time>
      </trkpt>
      <trkpt lat="47.727760719135404" lon="11.513326205313206">
        <ele>1216.685791015625</ele>
        <time>2013-05-28T19:23:42Z</time>
      </trkpt>
      <trkpt lat="47.727694334462285" lon="11.513321176171303">
        <ele>1215.724609375</ele>
        <time>2013-05-28T19:23:52Z</time>
      </trkpt>
      <trkpt lat="47.727692490443587" lon="11.513318493962288">
        <ele>1218.6083984375</ele>
        <time>2013-05-28T19:24:01Z</time>
      </trkpt>
      <trkpt lat="47.727683940902352" lon="11.513330731540918">
        <ele>1214.76318359375</ele>
        <time>2013-05-28T19:24:13Z</time>
      </trkpt>
      <trkpt lat="47.727645132690668" lon="11.513378927484155">
        <ele>1215.243896484375</ele>
        <time>2013-05-28T19:24:21Z</time>
      </trkpt>
      <trkpt lat="47.727621244266629" lon="11.513417651876807">
        <ele>1213.8017578125</ele>
        <time>2013-05-28T19:24:29Z</time>
      </trkpt>
      <trkpt lat="47.727612778544426" lon="11.513440031558275">
        <ele>1216.205078125</ele>
        <time>2013-05-28T19:24:36Z</time>
      </trkpt>
      <trkpt lat="47.727618562057614" lon="11.513437181711197">
        <ele>1216.205078125</ele>
        <time>2013-05-28T19:24:37Z</time>
      </trkpt>
      <trkpt lat="47.727658879011869" lon="11.513400385156274">
        <ele>1216.685791015625</ele>
        <time>2013-05-28T19:24:46Z</time>
      </trkpt>
      <trkpt lat="47.727682180702686" lon="11.513383369892836">
        <ele>1216.685791015625</ele>
        <time>2013-05-28T19:24:53Z</time>
      </trkpt>
      <trkpt lat="47.727727275341749" lon="11.513335173949599">
        <ele>1217.16650390625</ele>
        <time>2013-05-28T19:25:01Z</time>
      </trkpt>
      <trkpt lat="47.727712774649262" lon="11.513386806473136">
        <ele>1216.205078125</ele>
        <time>2013-05-28T19:25:08Z</time>
      </trkpt>
      <trkpt lat="47.727711265906692" lon="11.513389572501183">
        <ele>1216.685791015625</ele>
        <time>2013-05-28T19:25:10Z</time>
      </trkpt>
      <trkpt lat="47.727580340579152" lon="11.513430392369628">
        <ele>1213.8017578125</ele>
        <time>2013-05-28T19:25:18Z</time>
      </trkpt>
      <trkpt lat="47.727511189877987" lon="11.513433577492833">
        <ele>1212.35986328125</ele>
        <time>2013-05-28T19:25:21Z</time>
      </trkpt>
      <trkpt lat="47.727401722222567" lon="11.513438606634736">
        <ele>1209.475830078125</ele>
        <time>2013-05-28T19:25:26Z</time>
      </trkpt>
      <trkpt lat="47.727302648127079" lon="11.51345101185143">
        <ele>1206.111083984375</ele>
        <time>2013-05-28T19:25:31Z</time>
      </trkpt>
      <trkpt lat="47.727236347272992" lon="11.513483785092831">
        <ele>1202.265869140625</ele>
        <time>2013-05-28T19:25:34Z</time>
      </trkpt>
      <trkpt lat="47.727112043648958" lon="11.513537932187319">
        <ele>1199.86279296875</ele>
        <time>2013-05-28T19:25:38Z</time>
      </trkpt>
      <trkpt lat="47.727030823007226" lon="11.513556037098169">
        <ele>1197.45947265625</ele>
        <time>2013-05-28T19:25:41Z</time>
      </trkpt>
      <trkpt lat="47.726934012025595" lon="11.513564670458436">
        <ele>1193.614013671875</ele>
        <time>2013-05-28T19:25:45Z</time>
      </trkpt>
      <trkpt lat="47.726908447220922" lon="11.513572046533227">
        <ele>1193.614013671875</ele>
        <time>2013-05-28T19:25:46Z</time>
      </trkpt>
      <trkpt lat="47.726853964850307" lon="11.513587301596999">
        <ele>1190.72998046875</ele>
        <time>2013-05-28T19:25:48Z</time>
      </trkpt>
      <trkpt lat="47.726764781400561" lon="11.513599455356598">
        <ele>1187.365478515625</ele>
        <time>2013-05-28T19:25:51Z</time>
      </trkpt>
      <trkpt lat="47.726577697321773" lon="11.513622589409351">
        <ele>1183.520263671875</ele>
        <time>2013-05-28T19:25:57Z</time>
      </trkpt>
      <trkpt lat="47.726443922147155" lon="11.513648573309183">
        <ele>1180.636474609375</ele>
        <time>2013-05-28T19:26:01Z</time>
      </trkpt>
      <trkpt lat="47.726334873586893" lon="11.513596270233393">
        <ele>1177.271728515625</ele>
        <time>2013-05-28T19:26:06Z</time>
      </trkpt>
      <trkpt lat="47.726289862766862" lon="11.513549163937569">
        <ele>1175.348876953125</ele>
        <time>2013-05-28T19:26:09Z</time>
      </trkpt>
      <trkpt lat="47.726217275485396" lon="11.513525024056435">
        <ele>1171.503662109375</ele>
        <time>2013-05-28T19:26:14Z</time>
      </trkpt>
      <trkpt lat="47.726161954924464" lon="11.513494681566954">
        <ele>1168.13916015625</ele>
        <time>2013-05-28T19:26:18Z</time>
      </trkpt>
      <trkpt lat="47.726108310744166" lon="11.5134422108531">
        <ele>1164.2939453125</ele>
        <time>2013-05-28T19:26:22Z</time>
      </trkpt>
      <trkpt lat="47.726036561653018" lon="11.513381274417043">
        <ele>1160.448486328125</ele>
        <time>2013-05-28T19:26:26Z</time>
      </trkpt>
      <trkpt lat="47.725928938016295" lon="11.513349926099181">
        <ele>1156.603271484375</ele>
        <time>2013-05-28T19:26:31Z</time>
      </trkpt>
      <trkpt lat="47.725835731253028" lon="11.51336501352489">
        <ele>1154.2001953125</ele>
        <time>2013-05-28T19:26:35Z</time>
      </trkpt>
      <trkpt lat="47.725816369056702" lon="11.513373730704188">
        <ele>1154.2001953125</ele>
        <time>2013-05-28T19:26:36Z</time>
      </trkpt>
      <trkpt lat="47.725755181163549" lon="11.513362331315875">
        <ele>1152.27734375</ele>
        <time>2013-05-28T19:26:43Z</time>
      </trkpt>
      <trkpt lat="47.725746966898441" lon="11.513305082917213">
        <ele>1150.83544921875</ele>
        <time>2013-05-28T19:26:51Z</time>
      </trkpt>
      <trkpt lat="47.725742692127824" lon="11.513314638286829">
        <ele>1149.874267578125</ele>
        <time>2013-05-28T19:26:53Z</time>
      </trkpt>
      <trkpt lat="47.725714948028326" lon="11.513387225568295">
        <ele>1149.874267578125</ele>
        <time>2013-05-28T19:27:02Z</time>
      </trkpt>
      <trkpt lat="47.725726263597608" lon="11.513381777331233">
        <ele>1149.874267578125</ele>
        <time>2013-05-28T19:27:24Z</time>
      </trkpt>
      <trkpt lat="47.725730119273067" lon="11.513329306617379">
        <ele>1148.912841796875</ele>
        <time>2013-05-28T19:29:35Z</time>
      </trkpt>
      <trkpt lat="47.725749062374234" lon="11.513113891705871">
        <ele>1147.470703125</ele>
        <time>2013-05-28T19:29:42Z</time>
      </trkpt>
      <trkpt lat="47.725769598037004" lon="11.512931669130921">
        <ele>1145.548095703125</ele>
        <time>2013-05-28T19:29:48Z</time>
      </trkpt>
      <trkpt lat="47.72582215256989" lon="11.512695131823421">
        <ele>1143.144775390625</ele>
        <time>2013-05-28T19:29:56Z</time>
      </trkpt>
      <trkpt lat="47.725862804800272" lon="11.512407967820764">
        <ele>1139.7802734375</ele>
        <time>2013-05-28T19:30:03Z</time>
      </trkpt>
      <trkpt lat="47.725921394303441" lon="11.51213463395834">
        <ele>1137.376953125</ele>
        <time>2013-05-28T19:30:09Z</time>
      </trkpt>
      <trkpt lat="47.726049637421966" lon="11.511878315359354">
        <ele>1135.93505859375</ele>
        <time>2013-05-28T19:30:15Z</time>
      </trkpt>
      <trkpt lat="47.72613144479692" lon="11.511575058102608">
        <ele>1134.4931640625</ele>
        <time>2013-05-28T19:30:22Z</time>
      </trkpt>
      <trkpt lat="47.726202523335814" lon="11.51131521910429">
        <ele>1133.53173828125</ele>
        <time>2013-05-28T19:30:28Z</time>
      </trkpt>
      <trkpt lat="47.726340657100081" lon="11.510965442284942">
        <ele>1130.647705078125</ele>
        <time>2013-05-28T19:30:36Z</time>
      </trkpt>
      <trkpt lat="47.726461691781878" lon="11.510655647143722">
        <ele>1128.244384765625</ele>
        <time>2013-05-28T19:30:43Z</time>
      </trkpt>
      <trkpt lat="47.726473929360509" lon="11.510616084560752">
        <ele>1127.763671875</ele>
        <time>2013-05-28T19:30:44Z</time>
      </trkpt>
      <trkpt lat="47.726496141403913" lon="11.510527655482292">
        <ele>1126.32177734375</ele>
        <time>2013-05-28T19:30:46Z</time>
      </trkpt>
      <trkpt lat="47.7265331055969" lon="11.510323639959097">
        <ele>1122.957275390625</ele>
        <time>2013-05-28T19:30:51Z</time>
      </trkpt>
      <trkpt lat="47.726544588804245" lon="11.510286089032888">
        <ele>1122.957275390625</ele>
        <time>2013-05-28T19:30:52Z</time>
      </trkpt>
      <trkpt lat="47.726583983749151" lon="11.510179890319705">
        <ele>1121.03466796875</ele>
        <time>2013-05-28T19:30:55Z</time>
      </trkpt>
      <trkpt lat="47.72664844058454" lon="11.510049551725388">
        <ele>1118.150634765625</ele>
        <time>2013-05-28T19:30:59Z</time>
      </trkpt>
      <trkpt lat="47.726702252402902" lon="11.509964559227228">
        <ele>1115.2666015625</ele>
        <time>2013-05-28T19:31:02Z</time>
      </trkpt>
      <trkpt lat="47.72672320716083" lon="11.509848218411207">
        <ele>1112.86328125</ele>
        <time>2013-05-28T19:31:06Z</time>
      </trkpt>
      <trkpt lat="47.726676100865006" lon="11.509745037183166">
        <ele>1110.940673828125</ele>
        <time>2013-05-28T19:31:09Z</time>
      </trkpt>
      <trkpt lat="47.726606447249651" lon="11.509648142382503">
        <ele>1107.576171875</ele>
        <time>2013-05-28T19:31:12Z</time>
      </trkpt>
      <trkpt lat="47.726581636816263" lon="11.509616207331419">
        <ele>1107.576171875</ele>
        <time>2013-05-28T19:31:13Z</time>
      </trkpt>
      <trkpt lat="47.726452639326453" lon="11.509553762152791">
        <ele>1103.73095703125</ele>
        <time>2013-05-28T19:31:18Z</time>
      </trkpt>
      <trkpt lat="47.726375861093402" lon="11.509577231481671">
        <ele>1099.885498046875</ele>
        <time>2013-05-28T19:31:22Z</time>
      </trkpt>
      <trkpt lat="47.726311655715108" lon="11.509656021371484">
        <ele>1096.040283203125</ele>
        <time>2013-05-28T19:31:26Z</time>
      </trkpt>
      <trkpt lat="47.726290198042989" lon="11.509670522063971">
        <ele>1096.040283203125</ele>
        <time>2013-05-28T19:31:27Z</time>
      </trkpt>
      <trkpt lat="47.726222053170204" lon="11.509695751592517">
        <ele>1092.195068359375</ele>
        <time>2013-05-28T19:31:30Z</time>
      </trkpt>
      <trkpt lat="47.726109148934484" lon="11.509726848453283">
        <ele>1089.31103515625</ele>
        <time>2013-05-28T19:31:34Z</time>
      </trkpt>
      <trkpt lat="47.725994065403938" lon="11.509761130437255">
        <ele>1085.946533203125</ele>
        <time>2013-05-28T19:31:38Z</time>
      </trkpt>
      <trkpt lat="47.725945953279734" lon="11.509772948920727">
        <ele>1085.4658203125</ele>
        <time>2013-05-28T19:31:40Z</time>
      </trkpt>
      <trkpt lat="47.725924076512456" lon="11.509777726605535">
        <ele>1084.504638671875</ele>
        <time>2013-05-28T19:31:41Z</time>
      </trkpt>
      <trkpt lat="47.725793402642012" lon="11.509777894243598">
        <ele>1079.69775390625</ele>
        <time>2013-05-28T19:31:46Z</time>
      </trkpt>
      <trkpt lat="47.725669182837009" lon="11.509776636958122">
        <ele>1076.333251953125</ele>
        <time>2013-05-28T19:31:50Z</time>
      </trkpt>
      <trkpt lat="47.725579580292106" lon="11.509788874536753">
        <ele>1072.96875</ele>
        <time>2013-05-28T19:31:54Z</time>
      </trkpt>
      <trkpt lat="47.725495928898454" lon="11.509824497625232">
        <ele>1069.604248046875</ele>
        <time>2013-05-28T19:31:57Z</time>
      </trkpt>
      <trkpt lat="47.725428203120828" lon="11.509864563122392">
        <ele>1067.68115234375</ele>
        <time>2013-05-28T19:31:59Z</time>
      </trkpt>
      <trkpt lat="47.725614113733172" lon="11.509339520707726">
        <ele>1071.526611328125</ele>
        <time>2013-05-28T20:54:05Z</time>
      </trkpt>
      <trkpt lat="47.725558625534177" lon="11.509399618953466">
        <ele>1072.00732421875</ele>
        <time>2013-05-28T20:54:07Z</time>
      </trkpt>
      <trkpt lat="47.725433651357889" lon="11.509689381346107">
        <ele>1071.046142578125</ele>
        <time>2013-05-28T20:54:13Z</time>
      </trkpt>
      <trkpt lat="47.725281016901135" lon="11.509982999414206">
        <ele>1069.604248046875</ele>
        <time>2013-05-28T20:54:19Z</time>
      </trkpt>
      <trkpt lat="47.725162077695131" lon="11.510218363255262">
        <ele>1069.12353515625</ele>
        <time>2013-05-28T20:54:25Z</time>
      </trkpt>
      <trkpt lat="47.72504573687911" lon="11.510420618578792">
        <ele>1068.642822265625</ele>
        <time>2013-05-28T20:54:29Z</time>
      </trkpt>
      <trkpt lat="47.724798386916518" lon="11.51090475730598">
        <ele>1070.5654296875</ele>
        <time>2013-05-28T20:54:38Z</time>
      </trkpt>
      <trkpt lat="47.72464650683105" lon="11.51140172034502">
        <ele>1071.526611328125</ele>
        <time>2013-05-28T20:54:48Z</time>
      </trkpt>
      <trkpt lat="47.724418686702847" lon="11.511995494365692">
        <ele>1068.642822265625</ele>
        <time>2013-05-28T20:54:56Z</time>
      </trkpt>
      <trkpt lat="47.724285582080483" lon="11.512345690280199">
        <ele>1067.68115234375</ele>
        <time>2013-05-28T20:55:00Z</time>
      </trkpt>
      <trkpt lat="47.724206540733576" lon="11.51255339384079">
        <ele>1066.2392578125</ele>
        <time>2013-05-28T20:55:03Z</time>
      </trkpt>
      <trkpt lat="47.724174940958619" lon="11.512620029971004">
        <ele>1065.278076171875</ele>
        <time>2013-05-28T20:55:04Z</time>
      </trkpt>
      <trkpt lat="47.724006045609713" lon="11.512960335239768">
        <ele>1061.432861328125</ele>
        <time>2013-05-28T20:55:09Z</time>
      </trkpt>
      <trkpt lat="47.723915101960301" lon="11.513174744322896">
        <ele>1058.548828125</ele>
        <time>2013-05-28T20:55:12Z</time>
      </trkpt>
      <trkpt lat="47.723842179402709" lon="11.513389656320214">
        <ele>1055.184326171875</ele>
        <time>2013-05-28T20:55:15Z</time>
      </trkpt>
      <trkpt lat="47.72378166206181" lon="11.513687465339899">
        <ele>1051.819580078125</ele>
        <time>2013-05-28T20:55:19Z</time>
      </trkpt>
      <trkpt lat="47.723733717575669" lon="11.513994578272104">
        <ele>1047.974365234375</ele>
        <time>2013-05-28T20:55:23Z</time>
      </trkpt>
      <trkpt lat="47.723718294873834" lon="11.514073619619012">
        <ele>1046.0517578125</ele>
        <time>2013-05-28T20:55:24Z</time>
      </trkpt>
      <trkpt lat="47.723624836653471" lon="11.514364639297128">
        <ele>1043.167724609375</ele>
        <time>2013-05-28T20:55:28Z</time>
      </trkpt>
      <trkpt lat="47.723501035943627" lon="11.514758337289095">
        <ele>1038.361328125</ele>
        <time>2013-05-28T20:55:33Z</time>
      </trkpt>
      <trkpt lat="47.723442865535617" lon="11.514910887926817">
        <ele>1036.919189453125</ele>
        <time>2013-05-28T20:55:35Z</time>
      </trkpt>
      <trkpt lat="47.723355861380696" lon="11.51516024954617">
        <ele>1034.03515625</ele>
        <time>2013-05-28T20:55:38Z</time>
      </trkpt>
      <trkpt lat="47.723288806155324" lon="11.515309866517782">
        <ele>1032.59326171875</ele>
        <time>2013-05-28T20:55:40Z</time>
      </trkpt>
      <trkpt lat="47.723298026248813" lon="11.515651093795896">
        <ele>1028.267333984375</ele>
        <time>2013-05-28T20:55:46Z</time>
      </trkpt>
      <trkpt lat="47.7233228366822" lon="11.515699122101068">
        <ele>1027.30615234375</ele>
        <time>2013-05-28T20:55:47Z</time>
      </trkpt>
      <trkpt lat="47.723488714545965" lon="11.516022831201553">
        <ele>1023.4609375</ele>
        <time>2013-05-28T20:55:52Z</time>
      </trkpt>
      <trkpt lat="47.723599690943956" lon="11.516359448432922">
        <ele>1018.654052734375</ele>
        <time>2013-05-28T20:55:56Z</time>
      </trkpt>
      <trkpt lat="47.723688539117575" lon="11.516601517796516">
        <ele>1015.28955078125</ele>
        <time>2013-05-28T20:55:59Z</time>
      </trkpt>
      <trkpt lat="47.723713098093867" lon="11.516681062057614">
        <ele>1013.847412109375</ele>
        <time>2013-05-28T20:56:00Z</time>
      </trkpt>
      <trkpt lat="47.723819632083178" lon="11.516945343464613">
        <ele>1010.002197265625</ele>
        <time>2013-05-28T20:56:04Z</time>
      </trkpt>
      <trkpt lat="47.723892889916897" lon="11.51707861572504">
        <ele>1007.59912109375</ele>
        <time>2013-05-28T20:56:06Z</time>
      </trkpt>
      <trkpt lat="47.724056839942932" lon="11.517393523827195">
        <ele>1002.792236328125</ele>
        <time>2013-05-28T20:56:11Z</time>
      </trkpt>
      <trkpt lat="47.724157674238086" lon="11.51752813719213">
        <ele>1000.86962890625</ele>
        <time>2013-05-28T20:56:14Z</time>
      </trkpt>
      <trkpt lat="47.724238811060786" lon="11.51758479885757">
        <ele>998.947021484375</ele>
        <time>2013-05-28T20:56:16Z</time>
      </trkpt>
      <trkpt lat="47.724368646740913" lon="11.517674988135695">
        <ele>996.5439453125</ele>
        <time>2013-05-28T20:56:19Z</time>
      </trkpt>
      <trkpt lat="47.724527986720204" lon="11.517920661717653">
        <ele>991.256591796875</ele>
        <time>2013-05-28T20:56:25Z</time>
      </trkpt>
      <trkpt lat="47.724563023075461" lon="11.518120234832168">
        <ele>988.372802734375</ele>
        <time>2013-05-28T20:56:28Z</time>
      </trkpt>
      <trkpt lat="47.724665952846408" lon="11.518363310024142">
        <ele>985.488525390625</ele>
        <time>2013-05-28T20:56:32Z</time>
      </trkpt>
      <trkpt lat="47.724820012226701" lon="11.518526924774051">
        <ele>981.162841796875</ele>
        <time>2013-05-28T20:56:36Z</time>
      </trkpt>
      <trkpt lat="47.724951859563589" lon="11.51870084926486">
        <ele>977.798095703125</ele>
        <time>2013-05-28T20:56:40Z</time>
      </trkpt>
      <trkpt lat="47.725125532597303" lon="11.518889190629125">
        <ele>972.99169921875</ele>
        <time>2013-05-28T20:56:44Z</time>
      </trkpt>
      <trkpt lat="47.725293422117829" lon="11.518983654677868">
        <ele>970.588134765625</ele>
        <time>2013-05-28T20:56:47Z</time>
      </trkpt>
      <trkpt lat="47.725517973303795" lon="11.519184652715921">
        <ele>966.26220703125</ele>
        <time>2013-05-28T20:56:52Z</time>
      </trkpt>
      <trkpt lat="47.725623585283756" lon="11.519334521144629">
        <ele>963.85888671875</ele>
        <time>2013-05-28T20:56:55Z</time>
      </trkpt>
      <trkpt lat="47.725785272195935" lon="11.519487323239446">
        <ele>960.013671875</ele>
        <time>2013-05-28T20:56:59Z</time>
      </trkpt>
      <trkpt lat="47.725834641605616" lon="11.519524455070496">
        <ele>959.533203125</ele>
        <time>2013-05-28T20:57:00Z</time>
      </trkpt>
      <trkpt lat="47.726017534732819" lon="11.519691422581673">
        <ele>953.76513671875</ele>
        <time>2013-05-28T20:57:04Z</time>
      </trkpt>
      <trkpt lat="47.726161619648337" lon="11.519836261868477">
        <ele>949.439208984375</ele>
        <time>2013-05-28T20:57:07Z</time>
      </trkpt>
      <trkpt lat="47.726247953251004" lon="11.519928127527237">
        <ele>947.5166015625</ele>
        <time>2013-05-28T20:57:09Z</time>
      </trkpt>
      <trkpt lat="47.726414334028959" lon="11.520109763368964">
        <ele>942.710205078125</ele>
        <time>2013-05-28T20:57:13Z</time>
      </trkpt>
      <trkpt lat="47.726588761433959" lon="11.520166676491499">
        <ele>939.34521484375</ele>
        <time>2013-05-28T20:57:16Z</time>
      </trkpt>
      <trkpt lat="47.726835943758488" lon="11.520364405587316">
        <ele>935.5</ele>
        <time>2013-05-28T20:57:21Z</time>
      </trkpt>
      <trkpt lat="47.727048676460981" lon="11.520523326471448">
        <ele>931.65478515625</ele>
        <time>2013-05-28T20:57:25Z</time>
      </trkpt>
      <trkpt lat="47.727189743891358" lon="11.520646624267101">
        <ele>929.25146484375</ele>
        <time>2013-05-28T20:57:28Z</time>
      </trkpt>
      <trkpt lat="47.727287728339434" lon="11.520712841302156">
        <ele>928.290283203125</ele>
        <time>2013-05-28T20:57:30Z</time>
      </trkpt>
      <trkpt lat="47.727598277851939" lon="11.520815100520849">
        <ele>923.483642578125</ele>
        <time>2013-05-28T20:57:35Z</time>
      </trkpt>
      <trkpt lat="47.727781925350428" lon="11.520808730274439">
        <ele>919.638427734375</ele>
        <time>2013-05-28T20:57:38Z</time>
      </trkpt>
      <trkpt lat="47.727946965023875" lon="11.520771849900484">
        <ele>917.235107421875</ele>
        <time>2013-05-28T20:57:41Z</time>
      </trkpt>
      <trkpt lat="47.728276457637548" lon="11.520822392776608">
        <ele>915.793212890625</ele>
        <time>2013-05-28T20:57:47Z</time>
      </trkpt>
      <trkpt lat="47.728459099307656" lon="11.52092607691884">
        <ele>915.3125</ele>
        <time>2013-05-28T20:57:51Z</time>
      </trkpt>
      <trkpt lat="47.728629838675261" lon="11.520954575389624">
        <ele>914.831787109375</ele>
        <time>2013-05-28T20:57:55Z</time>
      </trkpt>
      <trkpt lat="47.728849109262228" lon="11.520842257887125">
        <ele>912.9091796875</ele>
        <time>2013-05-28T20:58:00Z</time>
      </trkpt>
      <trkpt lat="47.728899484500289" lon="11.520800432190299">
        <ele>911.947998046875</ele>
        <time>2013-05-28T20:58:01Z</time>
      </trkpt>
      <trkpt lat="47.729003252461553" lon="11.52072717435658">
        <ele>909.544677734375</ele>
        <time>2013-05-28T20:58:03Z</time>
      </trkpt>
      <trkpt lat="47.729216068983078" lon="11.520662885159254">
        <ele>907.14111328125</ele>
        <time>2013-05-28T20:58:07Z</time>
      </trkpt>
      <trkpt lat="47.729413295164704" lon="11.520575378090143">
        <ele>906.1796875</ele>
        <time>2013-05-28T20:58:11Z</time>
      </trkpt>
      <trkpt lat="47.729716720059514" lon="11.52060404419899">
        <ele>905.218505859375</ele>
        <time>2013-05-28T20:58:17Z</time>
      </trkpt>
      <trkpt lat="47.729877401143312" lon="11.52070521377027">
        <ele>903.776611328125</ele>
        <time>2013-05-28T20:58:21Z</time>
      </trkpt>
      <trkpt lat="47.729911096394062" lon="11.520729353651404">
        <ele>904.25732421875</ele>
        <time>2013-05-28T20:58:22Z</time>
      </trkpt>
      <trkpt lat="47.730142520740628" lon="11.520625585690141">
        <ele>901.373291015625</ele>
        <time>2013-05-28T20:58:27Z</time>
      </trkpt>
      <trkpt lat="47.730228770524263" lon="11.520540760830045">
        <ele>899.931396484375</ele>
        <time>2013-05-28T20:58:29Z</time>
      </trkpt>
      <trkpt lat="47.730306722223759" lon="11.520489882677794">
        <ele>898.969970703125</ele>
        <time>2013-05-28T20:58:31Z</time>
      </trkpt>
      <trkpt lat="47.730449633672833" lon="11.520508825778961">
        <ele>896.086181640625</ele>
        <time>2013-05-28T20:58:35Z</time>
      </trkpt>
      <trkpt lat="47.730490537360311" lon="11.520537324249744">
        <ele>895.60546875</ele>
        <time>2013-05-28T20:58:36Z</time>
      </trkpt>
      <trkpt lat="47.730739060789347" lon="11.520690629258752">
        <ele>890.798583984375</ele>
        <time>2013-05-28T20:58:41Z</time>
      </trkpt>
      <trkpt lat="47.730889013037086" lon="11.520760199055076">
        <ele>887.914794921875</ele>
        <time>2013-05-28T20:58:44Z</time>
      </trkpt>
      <trkpt lat="47.731086071580648" lon="11.520818369463086">
        <ele>885.9921875</ele>
        <time>2013-05-28T20:58:48Z</time>
      </trkpt>
      <trkpt lat="47.731282291933894" lon="11.520857261493802">
        <ele>881.666259765625</ele>
        <time>2013-05-28T20:58:52Z</time>
      </trkpt>
      <trkpt lat="47.731564426794648" lon="11.520983576774597">
        <ele>879.74365234375</ele>
        <time>2013-05-28T20:58:57Z</time>
      </trkpt>
      <trkpt lat="47.731674732640386" lon="11.521047279238701">
        <ele>877.821044921875</ele>
        <time>2013-05-28T20:58:59Z</time>
      </trkpt>
      <trkpt lat="47.731774058192968" lon="11.521131517365575">
        <ele>876.85986328125</ele>
        <time>2013-05-28T20:59:01Z</time>
      </trkpt>
      <trkpt lat="47.731933481991291" lon="11.521252803504467">
        <ele>873.4951171875</ele>
        <time>2013-05-28T20:59:04Z</time>
      </trkpt>
      <trkpt lat="47.732133055105805" lon="11.521328995004296">
        <ele>870.13037109375</ele>
        <time>2013-05-28T20:59:08Z</time>
      </trkpt>
      <trkpt lat="47.732200864702463" lon="11.521341316401958">
        <ele>869.64990234375</ele>
        <time>2013-05-28T20:59:10Z</time>
      </trkpt>
      <trkpt lat="47.7323526609689" lon="11.521315332502127">
        <ele>866.765869140625</ele>
        <time>2013-05-28T20:59:13Z</time>
      </trkpt>
      <trkpt lat="47.732493141666055" lon="11.52131550014019">
        <ele>864.84326171875</ele>
        <time>2013-05-28T20:59:16Z</time>
      </trkpt>
      <trkpt lat="47.732575200498104" lon="11.521330503746867">
        <ele>863.4013671875</ele>
        <time>2013-05-28T20:59:18Z</time>
      </trkpt>
      <trkpt lat="47.73273479193449" lon="11.521320780739188">
        <ele>861.95947265625</ele>
        <time>2013-05-28T20:59:21Z</time>
      </trkpt>
      <trkpt lat="47.732862196862698" lon="11.521331425756216">
        <ele>861.478759765625</ele>
        <time>2013-05-28T20:59:23Z</time>
      </trkpt>
      <trkpt lat="47.733062189072371" lon="11.521422285586596">
        <ele>859.555908203125</ele>
        <time>2013-05-28T20:59:26Z</time>
      </trkpt>
      <trkpt lat="47.733193701133132" lon="11.521458411589265">
        <ele>858.594482421875</ele>
        <time>2013-05-28T20:59:28Z</time>
      </trkpt>
      <trkpt lat="47.733471980318427" lon="11.521499399095774">
        <ele>854.268798828125</ele>
        <time>2013-05-28T20:59:33Z</time>
      </trkpt>
      <trkpt lat="47.733522020280361" lon="11.521508786827326">
        <ele>854.268798828125</ele>
        <time>2013-05-28T20:59:34Z</time>
      </trkpt>
      <trkpt lat="47.733621932566166" lon="11.521511301398277">
        <ele>852.82666015625</ele>
        <time>2013-05-28T20:59:36Z</time>
      </trkpt>
      <trkpt lat="47.733781691640615" lon="11.521504009142518">
        <ele>849.462158203125</ele>
        <time>2013-05-28T20:59:40Z</time>
      </trkpt>
      <trkpt lat="47.733816979452968" lon="11.521510379388928">
        <ele>849.462158203125</ele>
        <time>2013-05-28T20:59:41Z</time>
      </trkpt>
      <trkpt lat="47.733999704942107" lon="11.521586151793599">
        <ele>846.09765625</ele>
        <time>2013-05-28T20:59:46Z</time>
      </trkpt>
      <trkpt lat="47.734039602801204" lon="11.521588582545519">
        <ele>846.09765625</ele>
        <time>2013-05-28T20:59:47Z</time>
      </trkpt>
      <trkpt lat="47.734181508421898" lon="11.521584391593933">
        <ele>842.73291015625</ele>
        <time>2013-05-28T20:59:52Z</time>
      </trkpt>
      <trkpt lat="47.73425099439919" lon="11.521577853709459">
        <ele>841.771484375</ele>
        <time>2013-05-28T20:59:54Z</time>
      </trkpt>
      <trkpt lat="47.734322575852275" lon="11.521545918658376">
        <ele>840.32958984375</ele>
        <time>2013-05-28T20:59:56Z</time>
      </trkpt>
      <trkpt lat="47.734411004930735" lon="11.521497974172235">
        <ele>839.3681640625</ele>
        <time>2013-05-28T20:59:58Z</time>
      </trkpt>
      <trkpt lat="47.734704706817865" lon="11.521506439894438">
        <ele>838.8876953125</ele>
        <time>2013-05-28T21:00:03Z</time>
      </trkpt>
      <trkpt lat="47.734910566359758" lon="11.521710036322474">
        <ele>840.32958984375</ele>
        <time>2013-05-28T21:00:12Z</time>
      </trkpt>
      <trkpt lat="47.734912158921361" lon="11.521700648590922">
        <ele>839.3681640625</ele>
        <time>2013-05-28T21:01:58Z</time>
      </trkpt>
      <trkpt lat="47.73491257801652" lon="11.521701067686081">
        <ele>841.290771484375</ele>
        <time>2013-05-28T21:02:02Z</time>
      </trkpt>
      <trkpt lat="47.734913416206837" lon="11.521701905876398">
        <ele>837.92626953125</ele>
        <time>2013-05-28T21:02:29Z</time>
      </trkpt>
      <trkpt lat="47.734913667663932" lon="11.521702744066715">
        <ele>841.290771484375</ele>
        <time>2013-05-28T21:02:46Z</time>
      </trkpt>
      <trkpt lat="47.734956163913012" lon="11.521760914474726">
        <ele>838.406982421875</ele>
        <time>2013-05-28T21:03:41Z</time>
      </trkpt>
      <trkpt lat="47.735014334321022" lon="11.521860910579562">
        <ele>837.445556640625</ele>
        <time>2013-05-28T21:03:43Z</time>
      </trkpt>
      <trkpt lat="47.73508901707828" lon="11.521980352699757">
        <ele>836.003662109375</ele>
        <time>2013-05-28T21:03:45Z</time>
      </trkpt>
      <trkpt lat="47.735280375927687" lon="11.522143799811602">
        <ele>831.197265625</ele>
        <time>2013-05-28T21:03:49Z</time>
      </trkpt>
      <trkpt lat="47.73533720523119" lon="11.522169532254338">
        <ele>831.677734375</ele>
        <time>2013-05-28T21:03:50Z</time>
      </trkpt>
      <trkpt lat="47.735647168010473" lon="11.522266091778874">
        <ele>827.351806640625</ele>
        <time>2013-05-28T21:03:55Z</time>
      </trkpt>
      <trkpt lat="47.735875826328993" lon="11.522305738180876">
        <ele>823.506591796875</ele>
        <time>2013-05-28T21:03:59Z</time>
      </trkpt>
      <trkpt lat="47.73604036308825" lon="11.522356029599905">
        <ele>820.141845703125</ele>
        <time>2013-05-28T21:04:02Z</time>
      </trkpt>
      <trkpt lat="47.736150920391083" lon="11.52239341288805">
        <ele>817.738525390625</ele>
        <time>2013-05-28T21:04:04Z</time>
      </trkpt>
      <trkpt lat="47.736375136300921" lon="11.522411098703742">
        <ele>813.412841796875</ele>
        <time>2013-05-28T21:04:08Z</time>
      </trkpt>
      <trkpt lat="47.736431546509266" lon="11.522404309362173">
        <ele>812.93212890625</ele>
        <time>2013-05-28T21:04:09Z</time>
      </trkpt>
      <trkpt lat="47.736615864560008" lon="11.522358544170856">
        <ele>807.1640625</ele>
        <time>2013-05-28T21:04:13Z</time>
      </trkpt>
      <trkpt lat="47.73680068552494" lon="11.522400872781873">
        <ele>803.799560546875</ele>
        <time>2013-05-28T21:04:17Z</time>
      </trkpt>
      <trkpt lat="47.736960863694549" lon="11.522443452849984">
        <ele>800.43505859375</ele>
        <time>2013-05-28T21:04:20Z</time>
      </trkpt>
      <trkpt lat="47.737011322751641" lon="11.522467089816928">
        <ele>799.4736328125</ele>
        <time>2013-05-28T21:04:21Z</time>
      </trkpt>
      <trkpt lat="47.737212907522917" lon="11.522558955475688">
        <ele>796.58984375</ele>
        <time>2013-05-28T21:04:25Z</time>
      </trkpt>
      <trkpt lat="47.737452294677496" lon="11.522666327655315">
        <ele>793.224853515625</ele>
        <time>2013-05-28T21:04:29Z</time>
      </trkpt>
      <trkpt lat="47.737672487273812" lon="11.522769257426262">
        <ele>789.8603515625</ele>
        <time>2013-05-28T21:04:33Z</time>
      </trkpt>
      <trkpt lat="47.737818332388997" lon="11.522857937961817">
        <ele>786.976318359375</ele>
        <time>2013-05-28T21:04:36Z</time>
      </trkpt>
      <trkpt lat="47.737868372350931" lon="11.522892890498042">
        <ele>786.01513671875</ele>
        <time>2013-05-28T21:04:37Z</time>
      </trkpt>
      <trkpt lat="47.738000890240073" lon="11.522967573255301">
        <ele>783.61181640625</ele>
        <time>2013-05-28T21:04:40Z</time>
      </trkpt>
      <trkpt lat="47.738139778375626" lon="11.523068575188518">
        <ele>780.72802734375</ele>
        <time>2013-05-28T21:04:44Z</time>
      </trkpt>
      <trkpt lat="47.738249497488141" lon="11.523201679810882">
        <ele>779.766357421875</ele>
        <time>2013-05-28T21:04:47Z</time>
      </trkpt>
      <trkpt lat="47.738355780020356" lon="11.523441402241588">
        <ele>776.40185546875</ele>
        <time>2013-05-28T21:04:51Z</time>
      </trkpt>
      <trkpt lat="47.738384949043393" lon="11.523496638983488">
        <ele>774.9599609375</ele>
        <time>2013-05-28T21:04:52Z</time>
      </trkpt>
      <trkpt lat="47.738451920449734" lon="11.523587247356772">
        <ele>773.99853515625</ele>
        <time>2013-05-28T21:04:54Z</time>
      </trkpt>
      <trkpt lat="47.738538673147559" lon="11.52372102253139">
        <ele>771.59521484375</ele>
        <time>2013-05-28T21:04:57Z</time>
      </trkpt>
      <trkpt lat="47.738652750849724" lon="11.523923864588141">
        <ele>768.71142578125</ele>
        <time>2013-05-28T21:05:00Z</time>
      </trkpt>
      <trkpt lat="47.738743191584945" lon="11.524131735786796">
        <ele>765.346923828125</ele>
        <time>2013-05-28T21:05:03Z</time>
      </trkpt>
      <trkpt lat="47.738755010068417" lon="11.524350335821509">
        <ele>762.462646484375</ele>
        <time>2013-05-28T21:05:07Z</time>
      </trkpt>
      <trkpt lat="47.738643363118172" lon="11.524555776268244">
        <ele>759.09814453125</ele>
        <time>2013-05-28T21:05:12Z</time>
      </trkpt>
      <trkpt lat="47.738593406975269" lon="11.524748979136348">
        <ele>755.733642578125</ele>
        <time>2013-05-28T21:05:16Z</time>
      </trkpt>
      <trkpt lat="47.738506989553571" lon="11.524967579171062">
        <ele>752.849609375</ele>
        <time>2013-05-28T21:05:21Z</time>
      </trkpt>
      <trkpt lat="47.738454518839717" lon="11.525155082345009">
        <ele>749.485107421875</ele>
        <time>2013-05-28T21:05:24Z</time>
      </trkpt>
      <trkpt lat="47.738406574353576" lon="11.525344010442495">
        <ele>746.120361328125</ele>
        <time>2013-05-28T21:05:27Z</time>
      </trkpt>
      <trkpt lat="47.738347062841058" lon="11.525482730939984">
        <ele>742.755859375</ele>
        <time>2013-05-28T21:05:31Z</time>
      </trkpt>
      <trkpt lat="47.738355193287134" lon="11.525571914389729">
        <ele>741.79443359375</ele>
        <time>2013-05-28T21:05:33Z</time>
      </trkpt>
      <trkpt lat="47.738402551040053" lon="11.525853294879198">
        <ele>738.429931640625</ele>
        <time>2013-05-28T21:05:38Z</time>
      </trkpt>
      <trkpt lat="47.738364329561591" lon="11.526087988168001">
        <ele>735.5458984375</ele>
        <time>2013-05-28T21:05:43Z</time>
      </trkpt>
      <trkpt lat="47.738327700644732" lon="11.526176920160651">
        <ele>734.10400390625</ele>
        <time>2013-05-28T21:05:45Z</time>
      </trkpt>
      <trkpt lat="47.738235667347908" lon="11.526511944830418">
        <ele>730.7392578125</ele>
        <time>2013-05-28T21:05:50Z</time>
      </trkpt>
      <trkpt lat="47.73818152025342" lon="11.52665133588016">
        <ele>729.77783203125</ele>
        <time>2013-05-28T21:05:52Z</time>
      </trkpt>
      <trkpt lat="47.738122595474124" lon="11.526888208463788">
        <ele>727.855224609375</ele>
        <time>2013-05-28T21:05:55Z</time>
      </trkpt>
      <trkpt lat="47.738112285733223" lon="11.526974542066455">
        <ele>726.413330078125</ele>
        <time>2013-05-28T21:05:57Z</time>
      </trkpt>
      <trkpt lat="47.738178838044405" lon="11.527368323877454">
        <ele>723.048828125</ele>
        <time>2013-05-28T21:06:03Z</time>
      </trkpt>
      <trkpt lat="47.738262070342898" lon="11.527969306334853">
        <ele>721.126220703125</ele>
        <time>2013-05-28T21:06:10Z</time>
      </trkpt>
      <trkpt lat="47.738415794447064" lon="11.52864589355886">
        <ele>717.761474609375</ele>
        <time>2013-05-28T21:06:19Z</time>
      </trkpt>
      <trkpt lat="47.738459212705493" lon="11.528827445581555">
        <ele>717.281005859375</ele>
        <time>2013-05-28T21:06:21Z</time>
      </trkpt>
      <trkpt lat="47.738508079200983" lon="11.529272440820932">
        <ele>715.358154296875</ele>
        <time>2013-05-28T21:06:27Z</time>
      </trkpt>
      <trkpt lat="47.738485280424356" lon="11.529324576258659">
        <ele>715.8388671875</ele>
        <time>2013-05-28T21:06:31Z</time>
      </trkpt>
      <trkpt lat="47.738475054502487" lon="11.529309907928109">
        <ele>715.8388671875</ele>
        <time>2013-05-28T21:06:45Z</time>
      </trkpt>
      <trkpt lat="47.738460889086127" lon="11.52931627817452">
        <ele>714.87744140625</ele>
        <time>2013-05-28T21:06:57Z</time>
      </trkpt>
      <trkpt lat="47.738464074209332" lon="11.529321223497391">
        <ele>714.396728515625</ele>
        <time>2013-05-28T21:08:00Z</time>
      </trkpt>
      <trkpt lat="47.738456865772605" lon="11.529323318973184">
        <ele>714.87744140625</ele>
        <time>2013-05-28T21:09:39Z</time>
      </trkpt>
      <trkpt lat="47.73835058324039" lon="11.529457764700055">
        <ele>714.396728515625</ele>
        <time>2013-05-28T21:09:45Z</time>
      </trkpt>
      <trkpt lat="47.738064425066113" lon="11.529825730249286">
        <ele>711.99365234375</ele>
        <time>2013-05-28T21:09:53Z</time>
      </trkpt>
      <trkpt lat="47.73793869651854" lon="11.530208615586162">
        <ele>707.667724609375</ele>
        <time>2013-05-28T21:09:58Z</time>
      </trkpt>
      <trkpt lat="47.737923189997673" lon="11.530298888683319">
        <ele>707.667724609375</ele>
        <time>2013-05-28T21:09:59Z</time>
      </trkpt>
      <trkpt lat="47.73796359077096" lon="11.530972374603152">
        <ele>708.62890625</ele>
        <time>2013-05-28T21:10:06Z</time>
      </trkpt>
      <trkpt lat="47.738064341247082" lon="11.531337657943368">
        <ele>706.2255859375</ele>
        <time>2013-05-28T21:10:10Z</time>
      </trkpt>
      <trkpt lat="47.738143382593989" lon="11.53160847723484">
        <ele>705.7451171875</ele>
        <time>2013-05-28T21:10:13Z</time>
      </trkpt>
      <trkpt lat="47.738194344565272" lon="11.532235192134976">
        <ele>705.264404296875</ele>
        <time>2013-05-28T21:10:20Z</time>
      </trkpt>
      <trkpt lat="47.738170456141233" lon="11.532377600669861">
        <ele>707.18701171875</ele>
        <time>2013-05-28T21:10:22Z</time>
      </trkpt>
      <trkpt lat="47.738142041489482" lon="11.532496875151992">
        <ele>707.18701171875</ele>
        <time>2013-05-28T21:10:24Z</time>
      </trkpt>
      <trkpt lat="47.738014468923211" lon="11.532899541780353">
        <ele>710.07080078125</ele>
        <time>2013-05-28T21:10:33Z</time>
      </trkpt>
      <trkpt lat="47.737950431182981" lon="11.533144544810057">
        <ele>711.512939453125</ele>
        <time>2013-05-28T21:10:40Z</time>
      </trkpt>
      <trkpt lat="47.737820344045758" lon="11.533704036846757">
        <ele>714.396728515625</ele>
        <time>2013-05-28T21:10:54Z</time>
      </trkpt>
      <trkpt lat="47.737746499478817" lon="11.534086503088474">
        <ele>715.358154296875</ele>
        <time>2013-05-28T21:11:03Z</time>
      </trkpt>
      <trkpt lat="47.737728981301188" lon="11.53423922136426">
        <ele>716.319580078125</ele>
        <time>2013-05-28T21:11:09Z</time>
      </trkpt>
      <trkpt lat="47.737728143110871" lon="11.534247687086463">
        <ele>716.319580078125</ele>
        <time>2013-05-28T21:11:15Z</time>
      </trkpt>
      <trkpt lat="47.737727640196681" lon="11.534261265769601">
        <ele>716.319580078125</ele>
        <time>2013-05-28T21:11:30Z</time>
      </trkpt>
      <trkpt lat="47.737710457295179" lon="11.534362938255072">
        <ele>715.8388671875</ele>
        <time>2013-05-28T21:11:39Z</time>
      </trkpt>
      <trkpt lat="47.737664021551609" lon="11.534806089475751">
        <ele>714.87744140625</ele>
        <time>2013-05-28T21:11:48Z</time>
      </trkpt>
      <trkpt lat="47.737633427605033" lon="11.535546127706766">
        <ele>715.358154296875</ele>
        <time>2013-05-28T21:12:01Z</time>
      </trkpt>
      <trkpt lat="47.737731412053108" lon="11.536041917279363">
        <ele>715.8388671875</ele>
        <time>2013-05-28T21:12:10Z</time>
      </trkpt>
      <trkpt lat="47.737863259389997" lon="11.536314329132438">
        <ele>719.20361328125</ele>
        <time>2013-05-28T21:12:17Z</time>
      </trkpt>
      <trkpt lat="47.737946826964617" lon="11.536442991346121">
        <ele>719.20361328125</ele>
        <time>2013-05-28T21:12:25Z</time>
      </trkpt>
      <trkpt lat="47.738062497228384" lon="11.536596296355128">
        <ele>721.126220703125</ele>
        <time>2013-05-28T21:12:33Z</time>
      </trkpt>
      <trkpt lat="47.738234410062432" lon="11.536942720413208">
        <ele>723.048828125</ele>
        <time>2013-05-28T21:12:45Z</time>
      </trkpt>
      <trkpt lat="47.738323174417019" lon="11.537382351234555">
        <ele>725.9326171875</ele>
        <time>2013-05-28T21:13:00Z</time>
      </trkpt>
      <trkpt lat="47.738321330398321" lon="11.537759201601148">
        <ele>728.816650390625</ele>
        <time>2013-05-28T21:13:13Z</time>
      </trkpt>
      <trkpt lat="47.738303309306502" lon="11.538066901266575">
        <ele>731.700439453125</ele>
        <time>2013-05-28T21:13:24Z</time>
      </trkpt>
      <trkpt lat="47.738290568813682" lon="11.538293547928333">
        <ele>733.142578125</ele>
        <time>2013-05-28T21:13:32Z</time>
      </trkpt>
      <trkpt lat="47.738272631540895" lon="11.538544502109289">
        <ele>734.10400390625</ele>
        <time>2013-05-28T21:13:41Z</time>
      </trkpt>
      <trkpt lat="47.738248156383634" lon="11.538862427696586">
        <ele>736.50732421875</ele>
        <time>2013-05-28T21:13:52Z</time>
      </trkpt>
      <trkpt lat="47.738241786137223" lon="11.539259478449821">
        <ele>738.429931640625</ele>
        <time>2013-05-28T21:14:05Z</time>
      </trkpt>
      <trkpt lat="47.738234829157591" lon="11.539628198370337">
        <ele>739.39111328125</ele>
        <time>2013-05-28T21:14:15Z</time>
      </trkpt>
      <trkpt lat="47.738248240202665" lon="11.540248543024063">
        <ele>739.871826171875</ele>
        <time>2013-05-28T21:14:28Z</time>
      </trkpt>
      <trkpt lat="47.738289060071111" lon="11.540814992040396">
        <ele>738.91064453125</ele>
        <time>2013-05-28T21:14:39Z</time>
      </trkpt>
      <trkpt lat="47.738360641524196" lon="11.541631137952209">
        <ele>737.94921875</ele>
        <time>2013-05-28T21:14:50Z</time>
      </trkpt>
      <trkpt lat="47.73839894682169" lon="11.542230360209942">
        <ele>739.39111328125</ele>
        <time>2013-05-28T21:15:01Z</time>
      </trkpt>
      <trkpt lat="47.738420739769936" lon="11.54282589443028">
        <ele>741.313720703125</ele>
        <time>2013-05-28T21:15:13Z</time>
      </trkpt>
      <trkpt lat="47.738387547433376" lon="11.543412124738097">
        <ele>740.8330078125</ele>
        <time>2013-05-28T21:15:23Z</time>
      </trkpt>
      <trkpt lat="47.738363072276115" lon="11.543606165796518">
        <ele>740.3525390625</ele>
        <time>2013-05-28T21:15:26Z</time>
      </trkpt>
      <trkpt lat="47.73813902400434" lon="11.544264480471611">
        <ele>739.39111328125</ele>
        <time>2013-05-28T21:15:36Z</time>
      </trkpt>
      <trkpt lat="47.738054282963276" lon="11.544439326971769">
        <ele>738.91064453125</ele>
        <time>2013-05-28T21:15:39Z</time>
      </trkpt>
      <trkpt lat="47.737765777856112" lon="11.54482782818377">
        <ele>741.313720703125</ele>
        <time>2013-05-28T21:15:49Z</time>
      </trkpt>
      <trkpt lat="47.737474758177996" lon="11.545180790126324">
        <ele>744.19775390625</ele>
        <time>2013-05-28T21:16:01Z</time>
      </trkpt>
      <trkpt lat="47.737452043220401" lon="11.545207947492599">
        <ele>744.19775390625</ele>
        <time>2013-05-28T21:16:02Z</time>
      </trkpt>
      <trkpt lat="47.737267054617405" lon="11.545438868924975">
        <ele>746.120361328125</ele>
        <time>2013-05-28T21:16:11Z</time>
      </trkpt>
      <trkpt lat="47.737023141235113" lon="11.545701390132308">
        <ele>749.00439453125</ele>
        <time>2013-05-28T21:16:23Z</time>
      </trkpt>
      <trkpt lat="47.736883834004402" lon="11.545885289087892">
        <ele>751.40771484375</ele>
        <time>2013-05-28T21:16:31Z</time>
      </trkpt>
      <trkpt lat="47.736665066331625" lon="11.546056950464845">
        <ele>752.368896484375</ele>
        <time>2013-05-28T21:16:41Z</time>
      </trkpt>
      <trkpt lat="47.736499691382051" lon="11.546216541901231">
        <ele>754.291748046875</ele>
        <time>2013-05-28T21:16:49Z</time>
      </trkpt>
      <trkpt lat="47.736319983378053" lon="11.546429023146629">
        <ele>755.2529296875</ele>
        <time>2013-05-28T21:16:59Z</time>
      </trkpt>
      <trkpt lat="47.736281510442495" lon="11.546466154977679">
        <ele>755.2529296875</ele>
        <time>2013-05-28T21:17:05Z</time>
      </trkpt>
      <trkpt lat="47.736280839890242" lon="11.546466071158648">
        <ele>753.81103515625</ele>
        <time>2013-05-28T21:17:37Z</time>
      </trkpt>
      <trkpt lat="47.736278492957354" lon="11.546462718397379">
        <ele>754.772216796875</ele>
        <time>2013-05-28T21:17:53Z</time>
      </trkpt>
      <trkpt lat="47.736093252897263" lon="11.546390047296882">
        <ele>754.291748046875</ele>
        <time>2013-05-28T21:18:01Z</time>
      </trkpt>
      <trkpt lat="47.735927207395434" lon="11.546353250741959">
        <ele>753.330322265625</ele>
        <time>2013-05-28T21:18:06Z</time>
      </trkpt>
      <trkpt lat="47.735446589067578" lon="11.546239675953984">
        <ele>752.849609375</ele>
        <time>2013-05-28T21:18:17Z</time>
      </trkpt>
      <trkpt lat="47.735358159989119" lon="11.546230372041464">
        <ele>752.849609375</ele>
        <time>2013-05-28T21:18:19Z</time>
      </trkpt>
      <trkpt lat="47.735016597434878" lon="11.546390382573009">
        <ele>750.927001953125</ele>
        <time>2013-05-28T21:18:26Z</time>
      </trkpt>
      <trkpt lat="47.734924228861928" lon="11.54644419439137">
        <ele>750.927001953125</ele>
        <time>2013-05-28T21:18:28Z</time>
      </trkpt>
      <trkpt lat="47.734560035169125" lon="11.546449139714241">
        <ele>748.523681640625</ele>
        <time>2013-05-28T21:18:35Z</time>
      </trkpt>
      <trkpt lat="47.734301285818219" lon="11.546456851065159">
        <ele>746.120361328125</ele>
        <time>2013-05-28T21:18:39Z</time>
      </trkpt>
      <trkpt lat="47.733773896470666" lon="11.546606719493866">
        <ele>744.19775390625</ele>
        <time>2013-05-28T21:18:46Z</time>
      </trkpt>
      <trkpt lat="47.733563678339124" lon="11.54665432870388">
        <ele>744.19775390625</ele>
        <time>2013-05-28T21:18:50Z</time>
      </trkpt>
      <trkpt lat="47.733536437153816" lon="11.546643180772662">
        <ele>744.19775390625</ele>
        <time>2013-05-28T21:18:52Z</time>
      </trkpt>
      <trkpt lat="47.733497126027942" lon="11.546456934884191">
        <ele>742.755859375</ele>
        <time>2013-05-28T21:18:57Z</time>
      </trkpt>
      <trkpt lat="47.733493270352483" lon="11.546319723129272">
        <ele>742.275146484375</ele>
        <time>2013-05-28T21:18:59Z</time>
      </trkpt>
      <trkpt lat="47.733421688899398" lon="11.546039348468184">
        <ele>740.8330078125</ele>
        <time>2013-05-28T21:19:03Z</time>
      </trkpt>
      <trkpt lat="47.733167298138142" lon="11.545664090663195">
        <ele>736.98779296875</ele>
        <time>2013-05-28T21:19:08Z</time>
      </trkpt>
      <trkpt lat="47.732931850478053" lon="11.545277433469892">
        <ele>733.142578125</ele>
        <time>2013-05-28T21:19:12Z</time>
      </trkpt>
      <trkpt lat="47.732751136645675" lon="11.544948611408472">
        <ele>729.77783203125</ele>
        <time>2013-05-28T21:19:15Z</time>
      </trkpt>
      <trkpt lat="47.732565393671393" lon="11.544579640030861">
        <ele>728.3359375</ele>
        <time>2013-05-28T21:19:18Z</time>
      </trkpt>
      <trkpt lat="47.732379985973239" lon="11.54423757456243">
        <ele>729.297119140625</ele>
        <time>2013-05-28T21:19:21Z</time>
      </trkpt>
      <trkpt lat="47.732131714001298" lon="11.543989218771458">
        <ele>728.816650390625</ele>
        <time>2013-05-28T21:19:25Z</time>
      </trkpt>
      <trkpt lat="47.73154204711318" lon="11.543780928477645">
        <ele>729.297119140625</ele>
        <time>2013-05-28T21:19:35Z</time>
      </trkpt>
      <trkpt lat="47.730884151533246" lon="11.54345185495913">
        <ele>730.258544921875</ele>
        <time>2013-05-28T21:19:47Z</time>
      </trkpt>
      <trkpt lat="47.730339244008064" lon="11.542948689311743">
        <ele>729.77783203125</ele>
        <time>2013-05-28T21:19:58Z</time>
      </trkpt>
      <trkpt lat="47.730298424139619" lon="11.542883394286036">
        <ele>730.7392578125</ele>
        <time>2013-05-28T21:19:59Z</time>
      </trkpt>
      <trkpt lat="47.730181161314249" lon="11.542563708499074">
        <ele>729.297119140625</ele>
        <time>2013-05-28T21:20:03Z</time>
      </trkpt>
      <trkpt lat="47.73004830814898" lon="11.541744796559215">
        <ele>725.9326171875</ele>
        <time>2013-05-28T21:20:11Z</time>
      </trkpt>
      <trkpt lat="47.729932889342308" lon="11.541079860180616">
        <ele>721.606689453125</ele>
        <time>2013-05-28T21:20:16Z</time>
      </trkpt>
      <trkpt lat="47.729814788326621" lon="11.540648695081472">
        <ele>717.281005859375</ele>
        <time>2013-05-28T21:20:19Z</time>
      </trkpt>
      <trkpt lat="47.729688473045826" lon="11.540180901065469">
        <ele>713.435546875</ele>
        <time>2013-05-28T21:20:22Z</time>
      </trkpt>
      <trkpt lat="47.729619070887566" lon="11.5398511569947">
        <ele>712.47412109375</ele>
        <time>2013-05-28T21:20:24Z</time>
      </trkpt>
      <trkpt lat="47.729527037590742" lon="11.5393883921206">
        <ele>713.916015625</ele>
        <time>2013-05-28T21:20:27Z</time>
      </trkpt>
      <trkpt lat="47.72938814945519" lon="11.538652628660202">
        <ele>715.8388671875</ele>
        <time>2013-05-28T21:20:33Z</time>
      </trkpt>
      <trkpt lat="47.729343054816127" lon="11.538352975621819">
        <ele>715.358154296875</ele>
        <time>2013-05-28T21:20:36Z</time>
      </trkpt>
      <trkpt lat="47.729234509170055" lon="11.538009904325008">
        <ele>715.8388671875</ele>
        <time>2013-05-28T21:20:40Z</time>
      </trkpt>
      <trkpt lat="47.728860508650541" lon="11.537437587976456">
        <ele>716.319580078125</ele>
        <time>2013-05-28T21:20:49Z</time>
      </trkpt>
      <trkpt lat="47.728409813717008" lon="11.536906259134412">
        <ele>717.761474609375</ele>
        <time>2013-05-28T21:21:00Z</time>
      </trkpt>
      <trkpt lat="47.728291461244226" lon="11.536694280803204">
        <ele>718.2421875</ele>
        <time>2013-05-28T21:21:04Z</time>
      </trkpt>
      <trkpt lat="47.728140922263265" lon="11.535821137949824">
        <ele>719.684326171875</ele>
        <time>2013-05-28T21:21:17Z</time>
      </trkpt>
      <trkpt lat="47.728111334145069" lon="11.53568996116519">
        <ele>720.164794921875</ele>
        <time>2013-05-28T21:21:19Z</time>
      </trkpt>
      <trkpt lat="47.727893153205514" lon="11.535349236801267">
        <ele>720.164794921875</ele>
        <time>2013-05-28T21:21:26Z</time>
      </trkpt>
      <trkpt lat="47.727614371106029" lon="11.535332221537828">
        <ele>721.126220703125</ele>
        <time>2013-05-28T21:21:32Z</time>
      </trkpt>
      <trkpt lat="47.726858742535114" lon="11.535548390820622">
        <ele>723.048828125</ele>
        <time>2013-05-28T21:21:49Z</time>
      </trkpt>
      <trkpt lat="47.726398911327124" lon="11.535708568990231">
        <ele>724.971435546875</ele>
        <time>2013-05-28T21:22:01Z</time>
      </trkpt>
      <trkpt lat="47.725899098441005" lon="11.535877631977201">
        <ele>726.89404296875</ele>
        <time>2013-05-28T21:22:14Z</time>
      </trkpt>
      <trkpt lat="47.725299457088113" lon="11.53598902747035">
        <ele>727.374755859375</ele>
        <time>2013-05-28T21:22:29Z</time>
      </trkpt>
      <trkpt lat="47.724952781572938" lon="11.536060944199562">
        <ele>728.3359375</ele>
        <time>2013-05-28T21:22:38Z</time>
      </trkpt>
      <trkpt lat="47.724632257595658" lon="11.536127747967839">
        <ele>729.297119140625</ele>
        <time>2013-05-28T21:22:47Z</time>
      </trkpt>
      <trkpt lat="47.724204026162624" lon="11.53625288978219">
        <ele>729.297119140625</ele>
        <time>2013-05-28T21:22:57Z</time>
      </trkpt>
      <trkpt lat="47.723741680383682" lon="11.536384988576174">
        <ele>730.258544921875</ele>
        <time>2013-05-28T21:23:08Z</time>
      </trkpt>
      <trkpt lat="47.723720306530595" lon="11.536369984969497">
        <ele>731.219970703125</ele>
        <time>2013-05-28T21:23:09Z</time>
      </trkpt>
      <trkpt lat="47.723665740340948" lon="11.536048958078027">
        <ele>732.181396484375</ele>
        <time>2013-05-28T21:23:18Z</time>
      </trkpt>
      <trkpt lat="47.723606564104557" lon="11.535596083849669">
        <ele>732.662109375</ele>
        <time>2013-05-28T21:23:29Z</time>
      </trkpt>
      <trkpt lat="47.723518721759319" lon="11.535101300105453">
        <ele>734.10400390625</ele>
        <time>2013-05-28T21:23:41Z</time>
      </trkpt>
      <trkpt lat="47.72346306592226" lon="11.534833079203963">
        <ele>735.0654296875</ele>
        <time>2013-05-28T21:23:48Z</time>
      </trkpt>
      <trkpt lat="47.723388466984034" lon="11.534328404814005">
        <ele>736.50732421875</ele>
        <time>2013-05-28T21:23:59Z</time>
      </trkpt>
      <trkpt lat="47.723333900794387" lon="11.533954739570618">
        <ele>737.468505859375</ele>
        <time>2013-05-28T21:24:07Z</time>
      </trkpt>
      <trkpt lat="47.723272293806076" lon="11.5336240734905">
        <ele>739.39111328125</ele>
        <time>2013-05-28T21:24:14Z</time>
      </trkpt>
      <trkpt lat="47.723223343491554" lon="11.533307991921902">
        <ele>739.39111328125</ele>
        <time>2013-05-28T21:24:21Z</time>
      </trkpt>
      <trkpt lat="47.723151929676533" lon="11.532732155174017">
        <ele>741.313720703125</ele>
        <time>2013-05-28T21:24:33Z</time>
      </trkpt>
      <trkpt lat="47.723141117021441" lon="11.532308449968696">
        <ele>743.717041015625</ele>
        <time>2013-05-28T21:24:42Z</time>
      </trkpt>
      <trkpt lat="47.723137596622109" lon="11.531747030094266">
        <ele>746.120361328125</ele>
        <time>2013-05-28T21:24:54Z</time>
      </trkpt>
      <trkpt lat="47.723052436485887" lon="11.531367748975754">
        <ele>747.562255859375</ele>
        <time>2013-05-28T21:25:03Z</time>
      </trkpt>
      <trkpt lat="47.722971132025123" lon="11.531402952969074">
        <ele>746.120361328125</ele>
        <time>2013-05-28T21:25:09Z</time>
      </trkpt>
      <trkpt lat="47.722968952730298" lon="11.531403958797455">
        <ele>746.60107421875</ele>
        <time>2013-05-28T21:25:18Z</time>
      </trkpt>
      <trkpt lat="47.722955625504255" lon="11.531407227739692">
        <ele>746.60107421875</ele>
        <time>2013-05-28T21:25:31Z</time>
      </trkpt>
      <trkpt lat="47.722969623282552" lon="11.531402533873916">
        <ele>746.60107421875</ele>
        <time>2013-05-28T21:25:49Z</time>
      </trkpt>
      <trkpt lat="47.722962833940983" lon="11.531413597986102">
        <ele>746.120361328125</ele>
        <time>2013-05-28T21:26:03Z</time>
      </trkpt>
      <trkpt lat="47.722956882789731" lon="11.531403204426169">
        <ele>745.158935546875</ele>
        <time>2013-05-28T21:26:44Z</time>
      </trkpt>
      <trkpt lat="47.722951769828796" lon="11.531402952969074">
        <ele>744.67822265625</ele>
        <time>2013-05-28T21:27:10Z</time>
      </trkpt>
      <trkpt lat="47.722951853647828" lon="11.531402869150043">
        <ele>744.19775390625</ele>
        <time>2013-05-28T21:27:13Z</time>
      </trkpt>
    </trkseg>
  </trk>

</gpx>
